GFSSW_2pvu_pres_000.txt.gz
Presure
126 119 125 122 114 107 142 130 129 123 111 123 119 124 125 131 144 127 136 145 161 161 177 182 189 173 149 157 176 130 110 104 96 100 104 111 184 183 164 140 136 133 137 147 163
119 124 119 124 130 123 109 141 112 128 114 104 110 115 126 126 129 135 128 141 136 125 155 165 186 191 227 207 138 141 149 153 165 177 174 169 158 132 135 139 147 163 171 169 233
94 118 122 126 120 120 121 117 134 103 123 112 104 112 118 128 136 129 82 85 132 143 140 135 155 176 185 215 273 256 228 131 131 142 165 177 174 177 167 169 174 138 149 140 110
113 84 115 122 125 118 130 134 108 137 125 131 116 109 98 112 126 132 137 132 139 143 142 135 147 145 162 187 136 280 243 238 166 180 128 130 124 127 143 140 137 142 123 110 144
124 88 116 112 111 123 115 129 116 121 121 129 126 123 105 99 112 120 127 137 131 136 143 100 142 156 152 163 190 178 250 241 231 185 206 193 142 136 132 128 123 134 139 125 150
107 141 111 118 113 118 109 97 129 124 111 108 88 121 125 106 107 96 119 125 124 131 131 147 137 134 151 152 162 187 190 234 236 222 222 223 205 181 168 151 159 161 155 176 167
141 136 117 115 116 140 136 118 127 116 126 136 119 137 120 121 100 114 106 102 132 116 133 134 137 138 132 150 151 171 179 190 239 226 210 202 195 204 207 200 193 179 175 241 225
120 150 143 140 121 114 130 122 118 132 126 128 139 138 130 125 122 124 111 104 125 121 119 133 129 130 126 127 122 143 170 177 180 233 253 216 198 187 198 191 212 195 182 185 187
161 146 153 165 142 119 123 127 123 122 129 137 123 139 142 123 126 124 129 117 108 134 133 120 131 133 132 127 138 122 143 117 177 174 169 193 215 206 187 183 171 169 151 165 164
109 96 146 132 177 122 144 154 126 125 120 157 143 119 135 139 134 121 128 140 117 108 112 131 121 112 120 132 119 135 122 138 146 175 174 167 167 169 168 169 164 158 154 156 156
117 115 110 121 233 99 141 112 135 192 183 145 140 133 129 134 142 134 123 130 123 118 112 137 132 127 110 100 136 124 132 130 126 159 165 137 149 183 177 176 170 169 161 170 172
193 187 229 205 111 213 125 128 170 168 178 189 121 140 128 127 137 138 130 114 132 111 122 109 103 133 132 119 111 141 132 130 132 128 154 164 139 128 156 170 175 174 175 174 180
173 193 202 195 177 213 189 113 123 111 220 137 133 158 130 122 124 132 144 122 127 137 131 121 109 120 121 132 130 106 119 130 118 122 132 131 154 143 142 135 126 124 134 136 141
203 193 168 214 165 186 196 228 214 111 230 114 234 226 139 123 130 115 120 149 122 127 118 139 121 120 107 112 134 129 113 112 135 129 125 129 104 118 143 141 142 139 138 146 118
190 184 185 162 212 163 160 223 181 240 231 262 160 125 105 135 119 134 143 117 143 128 137 122 139 123 124 126 116 155 134 115 124 128 122 123 136 139 133 131 139 146 131 135 140
177 178 159 184 180 195 167 170 212 188 191 237 224 171 238 123 173 147 135 174 134 140 121 135 120 129 138 131 129 114 106 120 131 133 140 128 136 107 98 125 119 113 144 128 117
166 179 165 189 159 189 192 158 190 147 205 204 198 225 148 115 137 175 201 147 167 138 149 124 118 123 128 96 141 159 131 131 132 121 115 114 123 132 141 139 130 134 122 118 126
170 175 178 168 190 152 202 183 163 153 103 217 214 177 180 201 121 159 123 179 131 155 140 153 131 125 129 125 105 107 142 133 152 150 108 113 112 120 126 128 144 132 133 139 136
167 177 181 183 182 181 183 195 167 203 102 206 195 229 185 235 249 267 125 122 204 193 147 139 143 130 124 112 123 100 138 133 136 135 135 105 133 129 124 126 127 133 136 134 115
169 163 168 176 173 182 176 191 189 173 189 159 202 203 199 233 238 235 258 250 158 183 285 201 141 143 145 133 114 122 127 120 127 129 129 151 142 134 144 150 128 138 145 124 141
171 174 173 176 177 178 184 183 198 198 200 201 156 130 210 168 175 222 246 244 238 133 126 280 164 144 141 134 138 127 125 114 122 126 131 135 149 128 126 151 158 132 128 128 137
160 155 184 183 199 191 195 211 198 153 89 208 208 184 187 201 233 243 239 159 238 274 246 126 286 153 156 141 148 137 126 129 126 123 127 132 136 144 134 141 132 142 121 138 138
174 188 190 194 195 191 180 220 82 200 208 174 228 219 215 217 236 238 238 184 242 248 240 238 128 241 168 151 144 131 136 137 128 125 128 130 136 136 130 131 136 89 154 143 132
194 199 210 212 224 226 228 226 238 217 228 206 202 193 206 231 196 231 242 232 233 250 244 273 273 130 138 167 148 150 114 144 141 144 140 139 133 137 140 137 141 144 140 140 129
244 257 231 222 220 266 243 225 224 235 238 231 253 111 229 229 215 226 247 237 246 216 238 269 252 285 245 136 185 90 99 148 140 146 152 153 146 138 150 179 156 138 133 130 147
326 483 465 448 322 321 295 248 228 220 219 250 249 208 238 186 232 207 247 229 226 238 254 252 121 286 289 278 135 147 157 129 90 153 112 136 151 125 135 173 158 136 145 156 147
478 428 457 446 422 408 390 386 249 246 249 237 230 248 233 185 196 206 230 244 230 228 234 193 267 271 292 281 140 103 147 166 148 144 147 148 156 132 123 158 167 150 148 151 150

GFSSW_2pvu_pres_003.txt.gz
Presure
125 121 127 130 117 114 141 129 120 130 120 104 122 126 129 140 140 144 153 158 149 165 184 167 175 170 179 191 155 135 137 145 135 103 103 104 129 137 138 138 157 150 135 136 143
128 117 123 121 126 122 124 133 117 114 111 125 102 121 127 126 143 139 141 134 145 159 160 175 192 157 158 165 156 126 153 95 97 108 112 158 160 160 167 172 173 174 157 164 164
89 107 122 117 123 120 120 112 115 121 106 128 99 114 121 125 131 141 87 91 138 141 152 152 162 174 193 184 257 136 144 149 150 160 166 171 177 177 174 180 183 148 160 169 143
125 110 124 124 113 123 121 120 118 148 136 115 126 98 129 103 125 133 133 146 144 140 144 136 152 152 161 186 185 252 164 145 132 132 131 144 155 170 178 178 164 168 160 123 132
135 137 104 84 85 107 98 94 100 129 129 134 123 123 126 131 100 103 113 137 141 145 140 139 147 157 152 157 176 173 285 249 243 231 167 176 137 128 125 124 133 134 122 130 117
127 137 117 113 118 111 132 109 94 103 104 124 122 105 122 126 121 107 99 103 138 136 147 141 137 143 154 151 153 184 178 253 170 238 234 217 195 192 136 137 135 122 135 144 161
146 114 118 153 116 137 122 120 96 93 119 101 125 124 114 130 122 119 110 120 100 132 133 147 145 141 143 154 146 159 182 187 247 233 224 222 220 201 228 146 144 148 151 182 201
138 134 147 145 118 118 117 113 119 121 115 108 124 115 125 137 124 92 120 121 116 96 140 138 135 145 141 144 149 149 160 180 183 231 230 211 187 186 177 201 197 189 205 197 197
163 168 165 164 152 117 117 118 120 118 116 117 130 121 128 124 141 123 133 119 124 122 104 135 128 134 137 132 131 132 150 158 175 182 187 230 196 181 210 223 201 191 196 193 182
158 110 182 178 186 196 146 119 126 163 122 123 119 127 110 130 123 142 118 133 122 141 123 104 135 139 124 137 134 117 142 145 154 178 174 161 170 186 194 181 192 183 168 165 161
217 209 205 108 106 100 177 204 216 222 146 129 130 124 129 117 124 128 142 123 135 127 131 128 100 136 132 110 131 132 126 137 136 155 178 172 166 165 165 168 173 169 164 160 157
198 195 190 191 191 226 148 176 226 184 98 148 112 208 125 124 133 136 127 131 140 140 131 129 137 114 130 133 115 115 129 129 130 142 152 147 142 174 182 180 178 179 175 177 178
157 147 182 180 172 188 176 191 204 112 110 162 242 207 224 118 123 145 143 116 123 141 141 133 133 123 109 112 137 133 129 136 126 125 128 164 161 155 155 171 176 176 172 170 168
174 170 180 161 200 195 201 182 190 220 192 161 114 201 247 158 277 252 136 132 118 119 141 116 116 129 126 120 124 135 136 104 128 149 127 125 149 120 138 138 140 135 146 150 148
172 172 177 170 187 183 189 182 201 207 205 220 172 204 115 111 211 282 149 121 132 138 128 137 129 102 119 144 122 113 133 134 122 119 150 126 126 150 154 140 138 134 127 139 128
163 168 172 177 174 177 179 184 194 178 191 214 200 169 188 150 205 236 183 130 220 127 122 121 135 141 123 125 133 132 122 118 128 116 123 135 136 123 132 144 132 140 123 138 130
153 170 157 155 173 162 175 180 178 168 190 179 199 163 194 175 141 142 116 204 151 152 185 133 131 132 130 122 132 148 123 132 118 138 129 135 120 142 141 137 134 117 120 133 111
166 164 170 165 166 176 178 178 152 166 179 198 190 182 159 188 212 221 202 212 217 110 258 208 137 126 154 126 125 122 145 137 132 127 138 131 118 144 124 134 140 146 142 143 118
161 163 165 164 180 173 174 177 173 174 180 182 186 193 187 184 191 220 196 126 218 219 127 126 200 136 142 146 122 129 121 132 150 107 144 158 155 132 111 117 126 147 133 125 128
156 159 164 170 172 182 174 172 178 173 191 173 182 178 181 184 176 214 217 183 206 256 170 138 163 176 141 144 156 116 100 129 101 144 141 144 154 163 137 134 134 117 126 137 144
158 163 168 169 173 173 176 168 170 167 175 171 160 186 180 186 193 196 190 218 214 229 197 124 281 139 159 164 147 134 128 105 113 102 120 158 140 169 143 139 149 137 139 137 140
170 163 173 172 169 168 178 179 179 184 190 192 185 189 168 188 190 201 201 203 224 185 179 130 129 289 284 184 144 145 154 108 109 118 127 129 129 136 137 138 139 147 137 149 129
167 170 170 183 176 184 187 198 190 195 195 198 202 199 194 196 162 194 198 181 226 213 212 230 195 263 136 235 145 189 146 149 100 116 118 111 119 130 125 129 137 148 128 139 152
182 186 190 197 200 203 203 202 201 201 204 211 209 168 203 202 145 207 210 195 226 221 207 218 218 234 253 172 131 177 119 146 150 117 127 126 134 135 134 127 129 131 133 120 137
207 215 216 210 218 226 226 224 216 216 218 224 137 201 214 201 206 205 222 184 190 222 219 185 230 186 262 185 136 163 135 151 152 109 133 131 127 132 124 96 135 138 139 148 116
257 248 255 241 246 251 238 261 256 249 231 244 240 224 225 196 218 129 211 214 235 231 234 213 171 245 253 249 187 255 136 132 149 83 149 120 108 110 135 136 126 135 139 140 141
453 449 449 448 461 450 435 404 414 351 279 243 221 236 241 213 226 225 230 238 228 244 224 251 238 246 167 180 248 251 276 100 129 148 162 123 121 102 140 139 140 140 125 156 145

GFSSW_2pvu_pres_006.txt.gz
Presure
105 116 128 127 127 121 99 112 103 103 131 126 106 120 125 129 142 145 154 158 150 167 184 202 182 171 141 138 140 123 132 131 112 131 131 123 135 138 135 135 129 134 144 157 138
126 119 125 115 120 123 125 123 134 126 115 119 128 117 116 117 129 138 141 146 155 157 161 171 182 203 169 191 164 149 147 139 88 127 104 110 127 150 150 153 141 146 187 183 182
132 118 123 133 122 118 127 119 122 129 115 112 97 127 124 110 128 127 143 139 140 135 158 156 164 170 174 152 182 185 169 174 163 162 158 161 161 162 166 177 175 174 179 180 177
83 108 112 147 118 108 110 113 128 138 134 132 118 117 129 114 124 130 134 140 141 147 149 128 148 158 158 167 188 183 261 209 134 140 151 150 157 157 159 170 178 175 155 157 175
113 130 137 115 101 97 85 112 90 100 122 119 120 130 124 134 128 124 108 126 133 142 143 147 157 154 149 153 159 182 183 272 254 242 227 161 160 140 133 155 147 160 190 163 121
149 139 113 137 147 126 120 116 111 95 98 120 132 116 122 130 130 109 119 112 101 114 142 143 144 148 156 149 147 154 184 173 249 244 234 225 158 170 170 148 134 133 125 121 135
150 139 140 140 115 139 125 119 125 121 124 121 102 104 112 111 127 116 127 121 120 125 105 136 144 142 148 154 154 151 161 182 226 241 227 234 231 169 184 187 187 143 142 147 151
156 162 159 146 145 144 124 111 147 131 117 120 116 121 114 110 115 114 116 131 125 116 116 99 126 143 145 146 154 149 147 168 180 233 229 222 215 210 214 220 217 164 155 150 170
141 134 109 128 137 156 158 161 149 128 122 140 120 120 119 125 118 121 122 125 127 132 116 124 124 134 135 141 144 142 144 143 170 174 246 205 200 175 187 195 198 194 188 198 191
129 131 124 147 160 163 163 159 186 176 118 110 116 116 121 122 124 128 113 128 137 133 131 119 123 118 123 133 131 133 130 145 146 180 170 177 188 184 228 224 200 187 202 188 180
205 201 188 145 200 196 206 108 205 150 205 217 183 111 117 123 131 128 129 127 111 149 136 130 124 129 114 133 132 135 122 146 137 142 176 169 173 156 161 168 193 185 174 173 166
193 197 187 186 189 190 189 189 189 185 117 246 197 156 113 156 120 118 125 126 137 121 142 141 126 125 127 119 130 132 131 130 143 141 143 175 143 172 170 161 155 168 158 158 164
182 182 186 191 179 185 188 187 181 189 205 176 111 189 191 236 151 197 128 125 127 129 134 141 147 122 129 131 133 131 108 116 133 134 142 134 150 135 177 177 172 168 168 173 151
184 183 180 178 168 169 181 173 191 174 168 199 199 181 133 192 181 132 122 136 121 133 126 137 132 95 129 131 134 119 123 141 144 137 128 130 150 165 159 159 173 172 170 171 172
172 174 178 165 163 164 171 180 179 186 200 191 164 189 202 222 112 112 217 246 243 134 124 149 139 137 151 130 130 133 144 130 139 143 112 133 136 118 164 163 158 160 164 162 157
177 170 168 162 159 159 163 172 178 183 186 170 187 182 191 202 207 219 115 127 159 152 270 134 160 143 129 150 131 130 133 130 115 137 133 121 126 132 155 153 137 141 133 118 130
172 167 165 170 170 164 169 158 144 172 168 174 186 179 177 194 195 196 189 169 115 225 110 264 190 145 139 128 143 129 122 144 127 129 119 140 119 134 141 135 137 149 123 131 122
154 159 148 159 156 164 176 177 176 159 159 170 178 181 179 190 194 182 210 216 189 169 228 111 246 139 140 143 119 135 144 109 142 126 135 141 123 130 126 139 142 142 121 131 155
146 155 151 164 172 171 171 168 148 153 162 72 174 166 188 189 192 194 199 200 168 176 192 226 111 219 137 138 149 121 139 104 137 130 135 133 128 122 141 118 125 140 127 149 143
163 170 167 172 163 164 167 160 162 167 164 176 166 171 173 125 150 188 190 210 189 172 168 182 224 130 116 186 135 97 97 111 120 132 138 138 138 128 121 123 133 123 141 145 146
165 161 169 169 169 166 166 162 164 166 169 177 182 181 178 176 183 177 192 185 200 187 177 210 202 130 130 127 130 145 141 146 108 129 122 124 127 128 142 140 137 119 143 143 129
165 163 163 163 161 168 169 175 175 176 169 173 175 177 185 185 186 180 181 189 196 170 213 204 216 194 221 116 173 241 134 75 87 101 130 141 117 133 121 144 145 146 135 140 135
164 170 170 175 169 184 179 178 180 180 179 182 184 173 175 176 180 202 157 166 188 203 179 197 187 220 192 208 150 189 149 135 107 143 114 127 118 109 128 147 132 94 148 140 150
182 181 175 191 188 186 189 189 191 188 187 171 188 188 188 184 186 193 197 195 204 199 184 211 191 202 175 219 196 138 131 190 193 107 134 149 101 134 99 117 135 107 133 118 133
198 201 204 205 204 208 210 202 196 184 183 195 195 195 196 195 191 194 197 196 109 204 200 204 187 206 214 223 228 241 175 126 123 150 155 148 106 102 117 112 119 129 122 131 138
226 232 239 248 248 251 259 263 264 213 213 213 202 204 209 214 207 206 202 211 189 202 204 208 216 222 215 209 230 185 207 208 128 123 132 149 152 148 148 149 133 131 131 131 136
268 278 328 428 450 463 452 428 392 437 365 304 217 230 233 229 228 218 221 222 220 214 218 219 226 218 227 205 208 233 258 186 219 140 126 136 147 150 137 120 146 141 138 119 139

GFSSW_2pvu_pres_012.txt.gz
Presure
121 119 110 121 118 119 123 121 104 125 142 123 117 130 119 140 143 146 155 154 139 125 127 123 126 108 133 129 130 120 99 146 143 146 142 142 148 133 155 138 133 142 142 142 149
117 116 128 109 119 114 116 124 121 124 118 123 112 116 129 123 128 141 141 147 150 161 169 147 135 181 133 133 134 135 129 124 118 138 148 126 125 133 112 119 136 148 149 147 153
137 135 123 141 120 112 114 113 122 126 120 102 124 124 117 111 129 127 138 139 143 144 157 162 168 168 149 141 135 132 131 130 132 130 138 153 128 110 127 140 149 150 158 161 172
123 93 129 115 136 140 141 125 112 110 131 122 121 139 127 124 124 133 131 132 139 137 141 147 156 159 165 168 171 180 186 184 186 267 271 181 162 176 184 171 165 164 166 162 166
122 122 132 102 89 121 89 117 122 135 119 128 127 118 129 140 129 125 122 133 114 134 136 139 142 150 153 156 159 161 164 164 169 200 223 235 246 203 145 151 146 143 126 127 130
127 128 148 150 137 114 117 85 87 89 123 119 127 120 112 116 143 122 117 126 119 110 119 136 139 141 142 144 151 153 158 161 154 181 228 251 219 236 202 190 185 162 163 151 131
159 102 97 147 145 149 156 153 127 124 145 125 90 114 132 124 132 118 130 114 120 132 125 111 124 142 138 139 149 141 153 156 160 171 242 255 240 241 223 202 194 169 184 179 169
140 99 103 141 154 146 152 161 168 156 140 166 168 124 122 118 112 123 131 144 129 108 135 135 118 115 136 140 145 139 138 145 157 156 172 238 243 238 236 231 199 187 197 191 161
156 125 142 124 130 125 117 104 136 138 113 169 165 178 165 118 126 107 125 134 143 124 127 137 115 136 120 122 133 141 144 139 146 129 153 199 167 238 229 241 237 185 222 219 171
119 159 132 134 147 120 116 116 131 132 130 140 189 209 223 207 147 123 127 126 131 138 140 133 134 133 140 124 119 146 136 142 147 148 143 157 198 210 224 229 209 216 198 192 224
172 176 181 186 193 195 195 194 192 192 209 205 133 130 108 118 207 211 134 124 122 102 125 142 123 118 122 134 139 125 144 149 138 140 136 141 177 163 227 249 195 196 197 198 196
185 190 184 186 184 182 179 173 180 180 184 191 191 204 150 191 163 156 141 190 208 126 123 122 125 131 105 120 136 138 125 129 135 139 139 144 144 173 162 163 199 206 202 195 188
180 182 179 174 179 200 196 198 198 199 195 192 185 180 186 194 198 102 104 165 202 206 131 133 125 122 123 120 143 136 143 131 126 136 143 124 136 152 142 166 169 179 176 97 165
195 179 179 181 200 198 193 193 195 187 180 187 191 180 181 183 187 201 190 182 117 198 220 126 131 127 114 126 137 154 142 133 124 131 140 133 133 136 156 154 158 170 167 160 160
191 157 191 196 195 202 193 198 191 182 189 186 191 180 185 175 180 180 202 197 200 183 197 230 208 137 116 127 133 134 158 133 131 117 135 146 136 133 132 159 170 173 169 161 162
199 189 194 205 203 202 190 191 185 180 123 155 165 169 189 187 183 188 182 182 177 197 196 184 155 208 213 128 132 144 126 146 134 132 116 126 148 143 141 142 160 189 178 174 171
195 198 190 190 198 185 185 184 179 172 156 127 173 179 179 179 171 167 170 175 182 187 179 204 193 172 225 204 169 147 131 119 135 133 135 136 136 145 147 126 134 144 165 169 175
200 188 191 195 187 177 175 177 170 163 165 173 182 181 178 179 186 193 187 159 165 183 178 191 200 189 197 220 194 239 134 136 116 141 146 134 129 127 133 138 144 123 137 156 142
199 193 187 195 182 184 176 174 163 113 87 179 182 179 168 183 175 173 167 170 174 183 150 183 182 197 184 191 121 183 142 144 137 132 128 151 142 110 140 127 145 133 140 156 126
194 190 188 191 195 181 185 175 177 180 175 175 177 182 182 152 159 165 178 160 167 185 189 171 170 194 195 207 187 166 127 131 109 142 107 141 151 127 137 130 131 141 139 146 159
202 194 193 195 191 188 184 184 166 183 172 173 169 187 168 167 161 161 162 169 171 175 186 178 177 181 185 182 193 193 213 187 171 95 143 107 125 146 136 152 133 126 120 150 127
212 208 202 202 199 172 168 177 181 176 187 180 176 173 178 174 187 170 164 146 166 170 164 152 179 177 170 193 187 193 192 211 187 188 106 140 140 133 145 115 119 124 131 127 138
228 237 221 216 213 214 206 180 191 169 192 168 178 179 183 181 179 170 171 90 156 161 167 162 168 168 170 176 182 173 183 188 200 184 212 203 140 108 144 138 140 141 116 133 133
181 170 160 239 232 215 229 215 190 192 180 164 187 199 184 192 198 174 174 154 167 170 170 172 176 169 159 166 170 173 186 178 141 151 176 189 97 100 152 131 150 127 136 132 133
203 185 182 185 186 188 197 227 220 161 196 199 184 180 188 173 176 184 184 177 181 170 154 167 167 176 164 167 161 166 176 180 182 185 189 98 115 157 225 138 132 132 122 133 136
237 229 218 202 200 197 197 194 190 190 187 186 185 184 185 184 187 190 192 187 189 189 180 177 174 185 191 171 182 170 176 183 180 183 176 136 82 177 159 134 234 125 129 151 124
458 454 455 312 255 249 227 217 210 202 201 199 197 192 189 189 190 188 175 183 174 177 191 187 188 186 193 187 182 192 184 186 173 193 177 179 191 109 142 137 167 155 126 153 125

GFSSW_2pvu_pres_015.txt.gz
Presure
114 118 111 114 123 125 124 124 114 112 124 114 118 130 133 140 144 147 153 127 138 129 138 140 130 133 134 135 151 155 162 166 152 96 147 135 161 145 129 112 146 118 132 132 141
118 122 125 111 129 117 118 107 112 126 126 116 123 124 123 123 137 139 144 150 125 125 142 116 125 120 105 128 132 132 129 129 127 131 136 154 154 149 134 115 135 134 133 139 142
123 115 124 124 119 140 113 115 119 101 126 123 124 130 126 120 119 132 137 143 146 157 163 141 137 167 147 133 131 127 130 130 132 127 134 136 134 139 130 135 132 141 138 146 151
128 128 129 119 117 116 111 141 119 119 117 122 124 127 129 127 122 131 126 137 139 147 150 158 160 150 145 141 135 133 137 133 133 136 151 160 167 170 170 168 164 175 156 161 142
117 122 111 109 116 129 128 121 126 146 108 125 123 111 129 118 131 125 129 130 129 140 142 145 151 156 158 163 165 159 162 160 166 166 166 175 185 135 200 231 232 138 136 130 126
124 137 136 127 124 100 108 84 132 123 115 113 113 117 124 124 135 110 135 129 136 129 131 142 144 145 149 153 157 156 157 155 154 148 156 149 197 250 242 237 227 196 179 161 160
136 123 135 128 161 145 134 129 136 113 144 122 117 117 121 105 123 131 133 131 121 130 110 116 138 143 143 150 149 145 145 152 152 150 153 154 242 251 240 226 227 205 192 181 172
153 150 140 150 143 97 142 152 160 162 160 167 174 123 136 107 113 111 125 131 105 110 132 131 131 120 124 140 144 142 142 146 142 145 125 134 183 239 243 236 233 208 203 189 157
127 115 113 135 133 150 165 163 146 135 137 138 140 146 159 147 129 120 126 127 151 133 124 106 140 128 131 131 121 138 139 144 144 150 150 125 145 206 235 237 236 228 213 183 193
140 136 157 149 155 141 147 125 126 125 124 127 145 127 166 146 207 183 179 123 117 125 118 142 110 132 140 133 129 126 126 134 140 145 125 142 149 181 228 196 223 240 227 223 217
180 153 193 194 197 166 203 127 129 195 195 197 120 97 97 107 121 135 157 154 97 129 121 130 136 106 126 132 130 136 118 143 139 140 143 146 148 168 176 224 190 223 206 199 188
183 182 190 178 179 185 192 194 192 188 187 188 184 183 179 180 194 205 197 163 173 202 130 113 135 123 110 126 121 129 136 132 121 126 137 130 135 146 177 169 215 199 196 193 197
186 180 189 181 180 179 177 181 183 185 178 175 180 202 212 192 200 206 166 162 124 127 172 235 198 133 131 115 103 131 140 133 126 125 132 134 138 134 139 142 168 172 201 196 175
190 189 185 180 178 175 175 176 193 179 179 178 200 192 197 191 192 202 199 190 201 128 133 186 195 207 198 144 117 127 135 129 132 139 126 132 139 132 134 143 146 182 186 187 172
180 182 181 180 183 179 178 171 204 193 193 186 196 191 194 191 192 192 199 185 190 201 191 210 205 195 199 198 141 140 124 125 135 150 130 125 134 134 136 139 157 147 170 166 167
185 196 203 204 174 175 173 209 199 203 198 180 191 186 197 190 189 196 187 187 183 172 173 201 195 207 233 198 204 129 135 128 132 131 146 138 132 141 150 133 126 157 179 167 163
195 211 194 187 188 214 201 195 204 206 190 73 89 190 191 191 187 190 171 173 171 169 180 188 187 195 191 221 215 221 143 130 120 125 139 159 135 131 141 142 130 138 161 179 176
212 201 218 214 200 199 201 196 191 198 194 207 195 184 183 184 183 134 170 175 179 161 167 162 168 190 197 203 210 231 148 225 136 117 112 132 152 141 130 132 139 138 139 149 182
203 201 212 218 217 214 208 196 197 185 186 89 96 184 184 178 179 168 173 178 178 178 173 165 176 168 171 195 197 203 211 216 206 145 106 89 129 131 138 149 132 127 148 149 156
198 201 257 228 226 220 219 204 196 192 197 195 192 186 183 181 176 177 182 186 181 181 182 180 176 174 184 181 190 200 194 210 227 198 228 121 119 84 141 150 132 138 126 131 138
239 231 237 235 238 231 224 224 201 198 196 202 200 188 188 182 173 176 189 190 157 182 151 164 170 168 182 178 173 184 120 156 112 74 181 130 143 146 128 141 133 137 133 130 119
245 242 240 236 278 232 238 220 217 201 202 208 203 191 190 189 175 178 186 193 190 152 160 157 165 166 172 180 173 177 190 184 192 193 214 80 130 146 147 142 117 155 134 140 120
253 198 238 243 243 258 230 243 226 212 216 207 208 203 191 184 136 166 184 169 178 168 162 161 159 164 174 176 171 166 174 181 176 186 196 154 110 92 104 134 133 142 110 129 139
189 186 190 182 180 179 179 266 251 230 229 224 217 208 198 161 180 189 173 179 171 169 81 166 173 159 162 180 164 168 165 171 160 180 161 148 116 202 128 136 191 121 140 145 122
444 403 209 198 197 193 168 192 193 208 231 237 234 228 217 211 203 183 159 172 173 171 174 181 180 171 159 158 160 153 158 165 173 165 169 156 183 197 207 129 202 151 143 134 128
409 417 439 454 269 214 207 203 206 197 196 198 189 246 235 224 217 219 205 167 171 173 184 183 176 173 150 163 168 149 151 162 165 166 147 166 177 110 195 153 203 148 155 143 137
399 407 418 422 445 454 283 240 224 211 205 202 203 197 192 235 228 222 164 204 188 186 179 182 190 183 188 181 174 179 93 164 159 156 165 82 78 168 171 195 188 172 169 196 118

GFSSW_2pvu_pres_021.txt.gz
Presure
114 121 126 127 123 118 107 124 125 125 127 117 123 146 130 135 151 135 158 161 170 173 183 206 140 143 126 122 140 147 104 135 158 150 157 153 167 145 133 134 125 146 146 124 145
120 110 109 130 122 124 124 124 122 125 117 123 125 122 130 129 134 148 150 150 157 135 171 177 129 201 140 143 154 131 131 138 127 117 134 141 139 104 138 147 156 165 103 171 165
116 118 117 129 121 122 119 127 132 118 122 111 123 115 118 122 140 128 137 148 151 156 138 157 155 140 134 171 100 129 98 132 122 102 139 142 133 150 155 170 176 158 160 174 183
127 131 134 110 125 127 133 137 131 132 126 130 112 125 106 114 127 133 128 131 142 144 152 152 147 161 132 133 133 133 136 137 133 128 96 149 153 163 179 170 155 159 173 191 133
130 129 126 129 130 126 120 124 135 127 134 113 103 117 125 130 111 124 127 136 129 130 141 144 151 155 163 158 167 177 157 152 160 159 151 161 167 170 158 157 153 161 209 208 229
138 128 124 126 127 129 131 134 136 132 134 127 122 127 123 126 127 127 108 123 139 133 132 132 140 144 151 153 163 172 163 163 157 167 171 167 164 160 161 151 160 178 236 230 220
126 124 128 125 132 136 155 141 98 140 122 120 127 147 127 140 128 118 126 102 119 122 138 145 134 139 138 152 152 151 167 170 171 166 160 163 163 156 153 151 152 243 234 228 221
140 141 118 135 135 133 131 130 128 133 149 158 163 147 127 145 91 90 111 128 121 104 129 124 135 131 149 121 118 127 152 158 157 160 148 153 149 146 148 145 145 240 229 218 215
125 89 92 103 99 101 102 100 120 128 165 158 128 132 140 144 140 162 135 96 123 161 111 125 137 130 112 134 141 127 124 126 143 146 145 152 148 154 142 146 150 248 228 220 194
137 104 104 105 134 134 136 137 139 104 102 129 138 156 150 153 154 184 182 177 147 128 134 163 119 129 112 115 126 107 139 138 122 127 135 139 144 144 135 143 145 240 243 210 203
190 190 191 202 166 117 112 138 119 112 136 97 96 109 104 122 126 188 174 187 228 153 197 103 142 124 107 137 111 138 140 152 139 137 131 133 144 141 141 138 137 237 237 223 208
202 199 200 191 147 147 151 158 161 188 189 133 191 191 179 128 186 105 181 173 113 192 189 111 152 157 149 150 130 113 127 123 141 131 132 127 131 143 135 131 134 155 228 227 219
180 186 183 186 193 190 188 190 190 188 185 187 171 192 192 190 200 200 189 189 111 103 121 128 170 119 177 180 146 148 140 113 134 133 135 122 130 131 131 139 138 134 144 205 200
203 198 194 190 194 194 195 190 182 184 188 184 193 200 203 203 191 189 195 187 184 132 182 176 116 140 144 221 177 197 201 113 127 115 125 145 133 126 131 126 139 136 140 198 195
203 202 202 197 196 198 192 195 202 185 187 194 190 182 186 190 195 196 198 190 183 192 193 191 218 206 143 135 127 211 220 137 115 124 121 138 134 129 124 132 124 132 136 159 219
189 190 193 192 197 205 212 203 185 185 184 192 184 181 193 184 185 188 193 188 186 185 199 190 210 201 201 210 206 140 194 142 170 195 106 139 132 130 133 127 128 126 150 136 192
255 252 244 243 224 208 194 197 202 190 199 198 176 176 181 181 180 183 186 189 191 120 201 196 203 203 202 159 160 202 200 148 205 211 84 96 125 126 126 145 145 128 129 134 145
208 206 206 212 217 229 252 264 216 213 195 193 194 192 190 194 191 196 202 219 211 179 93 198 192 195 197 194 187 198 195 192 122 151 108 155 183 134 126 127 138 150 133 133 133
233 245 247 226 226 210 213 226 260 257 228 202 198 192 197 201 200 138 92 191 216 191 181 206 200 201 191 198 194 209 186 195 138 202 205 136 82 114 117 127 132 137 146 136 153
159 175 153 161 249 211 233 232 217 221 239 234 233 242 219 200 205 195 195 194 198 215 209 200 197 196 195 124 194 176 192 191 181 215 190 229 163 168 106 129 137 130 131 145 135
215 211 213 220 239 220 186 252 237 238 214 208 213 209 221 128 211 204 141 207 208 191 214 204 194 197 197 193 171 174 169 182 185 194 208 220 251 203 117 115 132 136 141 140 147
478 469 480 472 275 248 235 236 178 221 260 227 219 210 216 190 225 212 197 198 211 202 199 202 199 195 197 197 195 184 178 172 175 191 208 204 232 231 198 156 136 132 137 132 125
451 446 454 450 454 457 280 256 242 245 186 239 259 259 266 246 212 226 214 214 156 218 196 201 200 194 203 196 186 98 154 95 111 176 190 199 191 209 219 216 192 132 109 130 140
431 435 438 433 432 431 429 358 276 257 241 220 188 242 185 245 244 230 225 159 214 213 218 210 190 194 198 195 173 183 174 165 174 169 173 181 209 190 199 208 245 166 157 128 151
392 420 427 421 424 424 420 423 427 340 271 256 236 194 193 250 233 243 229 224 205 213 223 214 190 196 197 196 177 182 180 161 165 166 159 176 179 211 199 187 203 245 196 167 108
380 402 408 441 415 425 426 423 423 464 301 273 263 245 199 178 239 234 228 240 223 205 218 223 206 205 198 198 172 177 184 174 162 166 79 93 178 188 188 209 188 187 195 237 201
369 397 394 406 421 407 415 409 426 451 460 356 295 271 246 203 246 239 238 235 234 227 211 224 218 202 211 198 192 180 177 182 173 167 159 153 169 174 183 185 196 201 186 196 219

GFSSW_2pvu_pres_024.txt.gz
Presure
114 117 121 126 125 126 108 126 123 122 126 123 127 131 135 138 143 143 156 170 165 173 136 131 133 141 122 124 114 116 132 130 141 127 108 155 152 134 131 137 135 138 147 125 167
117 124 123 117 118 130 124 110 126 123 125 124 119 126 129 138 133 138 151 151 149 172 171 178 185 240 121 148 127 151 157 105 143 129 139 115 129 139 136 126 139 133 172 162 148
127 131 102 127 122 125 128 118 125 129 126 125 113 113 121 133 125 145 139 152 152 158 154 169 171 159 149 251 169 138 160 124 160 133 129 117 111 133 142 148 150 174 153 162 171
107 138 138 140 136 138 122 126 134 127 130 127 129 121 127 111 117 129 131 140 137 148 152 159 147 158 172 147 115 133 138 123 131 138 135 134 139 156 151 184 172 164 157 167 175
125 127 118 133 133 134 130 130 124 125 130 135 141 126 123 136 130 112 117 127 132 129 137 141 151 158 162 166 166 140 149 138 175 145 112 153 158 163 187 165 165 162 160 170 213
129 128 128 135 140 135 126 127 130 132 129 129 129 126 127 108 126 127 135 110 132 120 128 138 137 135 153 154 160 164 168 173 177 178 180 185 177 171 162 160 155 153 161 207 235
125 126 123 127 135 132 129 134 118 125 138 139 138 130 127 126 125 126 125 147 130 140 147 121 139 122 151 137 136 152 150 149 171 168 168 169 166 159 167 152 154 151 191 239 231
139 138 142 139 123 137 141 135 134 133 134 134 134 141 123 122 113 132 129 123 135 126 107 113 123 134 118 127 142 130 123 141 153 151 153 165 150 160 156 152 151 156 171 234 222
133 102 105 95 119 90 93 135 128 149 134 136 120 139 138 147 144 150 111 132 124 120 116 130 111 118 139 114 141 111 122 129 132 139 148 148 149 153 159 146 149 146 166 235 225
169 142 146 135 112 115 102 102 105 96 113 107 117 129 135 140 149 168 133 132 125 115 97 112 136 134 120 145 114 108 148 135 123 131 139 143 146 149 145 144 147 148 157 233 228
141 143 180 179 188 185 188 187 141 147 156 145 123 102 149 140 133 131 138 152 179 181 184 143 111 141 103 121 110 123 145 146 110 117 123 131 137 141 140 146 141 132 155 226 210
195 194 194 192 197 200 191 185 184 177 176 176 147 115 101 136 127 95 139 157 134 136 134 149 166 181 197 122 138 128 108 124 137 136 131 122 136 134 140 144 132 139 149 155 238
203 203 204 212 196 188 210 214 213 209 168 173 183 170 155 140 133 128 161 123 125 149 195 214 217 209 173 142 214 192 169 105 147 116 119 131 151 131 133 138 139 141 137 153 231
196 194 197 205 201 200 198 196 195 188 171 192 186 180 172 164 160 187 174 163 184 171 203 160 120 114 108 204 147 107 170 150 122 112 131 143 139 117 129 134 133 136 134 139 191
210 210 212 204 202 204 207 207 204 200 199 195 198 195 189 187 188 181 186 186 184 204 199 199 200 195 202 116 129 131 115 173 137 157 123 128 146 151 118 129 127 131 127 133 140
238 230 216 205 203 198 202 204 208 217 207 207 196 192 196 199 195 186 197 192 202 201 202 189 190 185 190 132 132 158 130 221 152 185 170 183 148 132 138 123 134 126 129 133 138
207 213 222 244 246 253 262 255 223 196 204 214 200 190 192 190 195 202 190 196 193 190 187 200 195 187 186 205 194 216 208 219 139 141 144 154 205 121 148 133 130 133 128 132 139
242 230 231 251 249 208 209 221 260 270 238 202 188 195 198 204 198 186 183 189 189 183 187 191 147 190 182 190 199 217 214 200 207 209 141 90 99 202 125 130 133 133 127 130 131
247 243 255 253 252 227 230 239 270 234 216 261 224 202 195 186 202 203 198 197 187 194 199 187 184 189 93 183 215 217 185 204 195 90 104 93 156 160 116 130 132 132 138 151 133
303 245 237 238 206 162 166 173 252 241 261 219 230 259 237 219 203 189 198 192 192 179 138 161 179 184 205 194 174 97 152 166 192 192 201 156 207 187 132 175 116 132 134 140 137
405 406 439 494 479 482 225 244 181 200 213 250 259 219 205 245 183 215 126 119 188 191 123 199 192 199 207 144 196 185 190 179 180 193 183 155 134 135 98 126 106 120 132 138 136
390 405 433 450 464 466 458 459 241 170 224 185 193 256 232 221 225 232 222 213 211 202 194 198 198 203 188 211 196 205 193 182 183 190 198 205 215 88 93 157 130 179 125 127 133
351 386 408 435 446 433 446 444 447 333 252 175 217 205 242 240 230 238 238 137 215 205 199 182 200 196 190 220 216 208 191 184 174 187 192 186 217 207 201 215 194 137 126 120 139
338 353 386 431 423 465 421 426 429 440 321 280 203 198 165 189 239 229 238 243 232 227 219 212 200 196 192 203 197 202 195 180 168 185 185 191 187 209 212 227 163 193 144 128 127
323 341 359 433 415 435 416 415 417 428 439 301 280 253 180 227 216 239 230 217 134 233 225 226 215 201 206 202 215 205 202 184 167 170 72 178 191 213 205 211 223 199 192 178 108
310 327 349 381 413 398 426 418 420 421 428 440 300 279 258 187 202 224 247 230 195 212 208 209 228 210 195 209 201 205 201 186 168 166 169 132 185 184 211 194 203 221 220 188 192
308 316 337 352 433 405 388 396 405 412 430 444 454 296 277 265 222 187 225 253 234 215 208 211 226 222 203 216 202 215 199 187 170 164 166 143 182 184 192 198 205 162 117 245 211

GFSSW_2pvu_pres_027.txt.gz
Presure
117 108 119 123 123 115 125 122 129 112 128 131 130 128 135 139 147 154 161 174 188 145 142 189 141 122 139 143 104 114 118 118 108 108 112 114 106 155 121 109 134 136 141 147 154
125 118 130 108 123 117 125 131 112 128 126 115 131 124 133 132 145 144 144 156 159 179 181 151 125 156 127 115 152 132 115 158 115 108 145 137 138 118 138 119 134 142 147 147 174
135 105 124 124 128 131 125 120 130 124 131 131 123 115 126 130 126 146 139 141 154 159 165 178 179 181 196 257 146 149 138 128 150 130 133 145 133 101 138 140 150 150 158 161 145
133 133 134 132 137 140 140 111 114 115 119 115 126 132 127 112 122 126 130 131 138 137 157 162 163 166 178 103 190 135 169 166 161 157 126 131 137 168 138 123 150 172 165 158 163
124 119 128 126 130 128 129 116 134 138 136 129 129 127 131 128 129 115 114 124 129 128 134 145 163 156 164 155 173 136 136 133 131 126 124 127 137 147 151 153 189 163 157 156 166
139 140 141 128 131 123 126 122 137 123 130 127 124 126 125 135 111 130 126 127 113 131 130 129 129 137 142 147 161 167 172 169 175 179 186 179 178 192 191 183 166 152 148 164 161
130 135 143 145 147 134 136 139 134 124 125 135 133 129 87 129 123 128 110 128 132 130 120 124 128 127 151 151 151 136 151 153 156 162 168 174 176 175 174 167 152 149 153 167 239
136 131 131 132 142 143 146 147 144 134 131 133 124 118 135 138 135 122 126 127 123 111 133 111 139 129 125 122 133 139 143 130 140 150 159 157 162 164 154 154 148 146 156 166 233
125 126 120 132 127 120 121 114 147 144 143 142 144 140 133 133 113 134 129 118 84 123 135 142 140 122 117 141 146 126 137 140 147 141 150 154 153 153 159 155 150 145 152 162 225
111 118 160 160 167 137 100 98 130 137 139 154 150 154 142 105 141 135 135 138 149 143 94 143 138 133 112 129 131 140 136 140 115 133 134 140 147 149 150 144 149 149 145 158 173
192 200 146 195 153 167 159 178 148 130 150 148 138 126 149 149 141 128 135 148 144 148 150 148 124 98 139 143 104 78 99 107 146 127 110 144 140 141 142 143 146 143 149 149 162
200 203 203 204 202 203 198 192 154 191 184 127 102 104 148 144 106 138 151 140 140 145 137 139 147 183 150 110 166 118 147 127 130 140 139 122 124 132 139 145 145 139 144 143 151
208 198 211 213 218 225 214 202 204 204 194 185 188 189 192 195 161 137 119 115 125 133 134 137 138 141 164 198 202 203 160 173 125 123 135 143 135 123 133 141 146 137 136 143 151
207 212 215 214 212 217 218 218 215 205 219 208 220 196 205 196 190 186 172 112 115 138 96 109 139 150 134 138 124 141 151 178 151 110 102 148 144 138 131 137 140 139 139 138 143
208 208 207 207 212 216 215 216 214 212 211 219 204 185 166 209 183 193 207 169 168 136 132 115 125 197 121 141 130 209 197 199 154 208 208 143 121 109 142 127 139 136 138 134 134
235 240 248 253 263 262 241 220 224 214 209 206 202 198 200 199 192 200 205 206 200 175 177 186 165 180 158 173 128 121 172 205 135 202 209 192 107 125 174 134 126 137 131 134 132
247 237 224 219 214 217 222 243 278 265 214 224 222 209 205 200 201 201 187 184 174 168 169 178 188 191 141 186 201 195 159 139 155 128 141 155 132 189 130 137 136 131 132 133 135
240 242 185 178 258 263 256 255 227 217 155 293 231 211 209 203 202 202 203 202 196 198 186 183 192 186 172 208 199 198 193 195 195 132 141 204 169 127 131 127 128 134 127 131 129
231 395 395 397 382 244 196 194 201 250 287 251 210 259 206 194 194 203 208 204 199 189 188 199 187 182 194 196 211 200 181 187 200 220 207 193 203 202 147 158 198 135 138 129 134
355 359 371 372 409 506 516 336 321 268 227 215 271 232 191 253 186 204 195 208 204 200 82 195 202 196 199 195 194 193 147 182 188 199 201 175 119 99 129 142 118 114 136 141 132
340 334 339 356 390 491 470 448 441 463 294 256 197 222 231 231 205 126 235 209 206 178 198 172 192 196 189 190 114 183 193 174 191 191 186 202 163 175 106 112 155 145 125 131 137
315 319 323 343 356 425 446 455 468 446 461 171 250 244 207 248 262 205 234 233 215 193 205 206 197 166 184 188 195 183 186 174 197 194 200 207 132 199 197 213 209 197 151 158 130
312 321 325 342 346 377 440 466 432 446 456 475 205 206 243 206 239 250 227 102 199 205 193 170 196 199 196 193 195 190 178 181 165 191 201 207 204 194 206 252 194 199 167 145 115
318 316 320 337 349 368 429 428 430 435 438 454 468 289 162 235 201 233 224 249 200 231 215 208 194 188 196 65 171 170 180 206 176 188 187 193 198 194 195 202 203 93 134 167 132
299 302 318 313 347 355 389 403 404 427 439 437 439 456 291 229 238 211 247 193 234 207 207 218 214 197 185 186 186 196 109 204 172 180 178 187 195 196 198 214 89 179 129 116 118
292 293 311 314 344 355 380 397 393 404 427 435 424 437 448 269 210 239 207 252 230 223 207 209 215 213 207 199 197 203 205 191 198 183 182 183 190 195 197 195 223 87 208 204 195
289 293 293 322 353 368 374 384 396 405 413 416 432 426 440 298 271 214 208 194 238 234 186 214 228 220 214 211 203 198 198 185 199 181 176 176 185 196 197 194 190 216 191 210 207

GFSSW_2pvu_pres_030.txt.gz
Presure
116 111 127 111 118 123 124 124 130 125 130 133 129 131 142 144 151 153 121 156 215 229 183 129 128 138 128 113 124 108 107 115 115 115 109 108 125 103 112 151 128 105 137 140 152
104 121 108 116 119 114 119 121 126 128 126 133 128 133 131 130 144 148 147 155 161 185 121 104 185 116 151 132 143 109 114 115 122 119 109 131 118 135 148 137 132 133 142 150 167
126 128 131 131 122 119 113 116 127 123 125 127 137 132 125 135 131 128 143 146 149 157 127 180 190 187 202 112 156 116 115 140 119 159 126 141 130 153 131 138 141 141 150 163 158
137 141 136 121 121 132 134 132 136 134 119 125 124 115 131 117 126 131 127 139 143 142 150 151 165 169 185 196 249 292 189 141 151 131 149 161 181 128 141 138 172 154 158 167 154
131 138 131 138 136 132 112 110 122 128 113 138 126 136 123 127 115 113 126 126 128 130 133 137 133 155 165 171 179 207 185 188 178 142 140 125 150 132 163 147 158 155 183 149 153
130 131 124 132 137 140 141 136 131 133 109 135 133 135 131 124 127 133 131 116 119 122 136 128 135 136 133 148 161 165 161 141 140 138 124 118 168 194 169 185 196 181 161 146 157
124 124 125 154 130 133 147 145 141 137 119 129 123 137 131 126 125 136 124 137 136 135 140 125 140 127 125 134 132 152 133 160 159 158 163 167 174 170 174 173 172 171 145 151 163
133 97 111 132 134 136 138 135 136 138 149 146 133 105 129 105 134 127 132 125 119 126 131 113 120 130 127 125 141 134 129 140 149 142 154 157 147 162 167 168 162 148 142 142 159
148 126 142 142 141 142 137 143 137 137 123 127 124 142 133 136 135 125 126 128 131 132 132 131 127 132 127 145 146 127 133 134 138 137 140 153 153 164 156 158 157 153 142 155 163
176 133 134 152 146 116 154 151 148 135 136 116 139 140 143 149 143 143 120 127 137 123 125 132 131 132 141 133 129 129 115 147 142 135 148 141 141 144 144 143 143 150 143 138 161
191 192 193 188 197 192 185 111 104 178 161 102 101 133 143 143 147 151 145 149 100 89 87 116 133 130 134 140 114 141 124 118 132 148 127 147 154 141 142 265 159 147 145 143 156
207 202 203 202 205 209 202 194 189 195 183 186 179 161 154 148 151 85 141 155 128 148 145 138 134 142 156 151 124 162 132 110 139 111 150 154 122 135 134 137 140 141 141 147 142
194 202 207 194 210 222 216 214 211 215 207 206 201 181 189 161 147 159 142 148 149 146 148 142 147 151 116 144 145 141 110 147 139 139 115 156 142 110 137 137 136 138 135 136 140
223 222 219 222 219 217 216 206 210 225 220 163 170 201 200 187 146 181 112 151 157 97 117 132 145 138 137 135 143 142 142 197 196 183 139 116 155 158 125 119 141 141 143 135 136
249 252 257 258 232 237 240 237 237 226 226 214 207 193 219 210 129 157 201 183 179 128 116 148 150 160 103 150 140 134 135 137 141 141 113 180 164 113 158 138 133 146 135 137 134
237 245 255 264 264 261 274 276 275 248 225 190 223 161 225 204 212 215 206 199 195 189 196 130 106 129 141 136 126 142 145 172 140 145 146 151 150 195 130 117 141 129 141 138 137
222 226 223 229 231 231 233 239 266 255 191 193 256 213 163 135 217 214 188 218 199 186 186 169 175 129 142 123 138 123 124 125 163 195 162 195 221 105 149 131 135 143 125 135 137
195 192 373 355 370 389 402 423 411 259 105 102 277 201 217 191 209 213 211 202 210 174 215 195 190 213 118 168 188 156 134 130 131 166 168 205 121 203 137 178 115 128 135 127 134
367 347 352 370 369 366 371 200 435 481 487 258 220 98 186 278 144 207 215 204 196 201 198 207 166 206 195 197 204 201 173 174 190 194 202 112 171 95 195 141 148 212 139 138 133
334 340 325 322 345 345 355 388 405 460 469 335 296 234 258 248 237 240 214 213 197 195 199 193 193 194 201 167 177 169 145 199 192 186 193 160 148 200 90 158 148 204 181 138 140
317 314 313 320 340 338 346 372 391 461 449 439 447 291 222 234 245 188 190 215 201 197 204 202 202 197 197 194 182 182 186 182 181 193 186 187 188 204 166 181 114 206 170 127 137
298 298 299 306 304 329 363 373 417 455 479 446 433 389 220 255 226 131 204 200 237 204 85 212 204 205 210 193 195 192 183 182 197 190 185 189 189 188 201 214 201 214 104 151 119
292 303 302 310 308 327 367 400 397 427 427 456 486 398 384 223 205 207 231 233 114 234 216 205 97 213 219 216 202 185 202 190 192 187 187 180 197 202 209 103 227 209 166 142 148
287 293 287 296 308 341 382 399 394 405 408 428 468 526 365 353 263 226 209 243 235 211 237 88 195 83 194 115 195 181 195 188 185 175 183 190 197 186 212 201 199 122 124 209 207
287 286 291 287 302 340 372 410 398 380 393 413 449 463 372 341 292 215 229 208 264 233 208 238 221 202 118 182 114 175 183 177 87 174 172 182 191 191 186 206 175 96 96 173 140
282 279 291 281 294 346 361 403 404 394 412 419 438 436 465 344 337 255 207 235 86 257 229 127 233 116 210 189 192 197 190 177 64 183 177 176 185 192 192 202 202 199 203 207 219
276 273 285 282 290 315 353 361 396 394 403 425 404 429 457 358 331 331 275 257 214 236 235 224 202 236 216 202 185 196 203 93 179 184 183 175 176 186 200 194 200 198 199 200 144

GFSSW_2pvu_pres_033.txt.gz
Presure
104 108 118 115 130 121 125 119 124 136 121 135 134 146 149 155 161 164 167 201 174 168 152 146 116 96 125 106 134 131 135 126 121 122 109 147 118 118 133 109 145 124 134 142 149
110 105 112 120 108 117 116 127 122 119 133 129 127 135 135 142 149 155 159 163 165 201 183 105 126 118 124 124 108 113 118 113 132 111 118 119 120 142 113 138 141 133 142 152 152
128 127 127 126 120 124 116 113 117 127 111 121 133 139 136 130 132 143 151 152 154 150 164 185 220 200 170 122 145 129 139 141 119 131 118 108 99 118 132 150 129 140 148 151 169
141 134 134 133 130 127 107 124 136 130 127 124 125 125 135 122 134 127 137 139 149 146 156 160 161 170 206 208 243 121 149 120 99 139 150 125 140 146 180 127 139 148 157 163 164
134 118 129 127 130 134 134 133 133 132 131 133 124 131 118 125 119 125 129 130 137 143 147 147 156 158 153 152 168 228 327 232 193 134 173 190 168 124 122 129 139 164 182 181 150
124 128 115 141 144 141 136 128 136 111 121 111 123 123 132 143 140 127 116 122 126 129 135 137 139 143 135 153 155 165 167 239 186 211 178 140 163 128 164 174 198 192 175 156 148
148 149 142 131 131 130 122 132 131 131 138 140 133 119 137 131 135 126 125 133 129 117 144 132 138 133 140 134 133 133 142 158 165 165 162 167 156 160 162 174 177 169 172 143 144
149 144 139 92 121 130 124 120 124 154 149 125 146 145 138 115 140 125 119 116 131 134 118 135 126 140 133 126 135 141 134 146 153 152 146 144 157 163 142 157 163 163 147 147 137
166 122 122 128 148 150 148 141 142 138 137 137 135 137 141 148 132 122 132 131 131 130 132 128 144 122 140 131 130 139 133 131 128 136 148 141 141 144 164 151 156 154 144 137 140
162 163 169 112 109 151 153 172 154 148 144 137 140 140 140 142 144 99 126 125 134 131 124 132 120 129 134 121 130 132 131 124 143 137 145 131 158 136 138 144 145 152 151 138 139
208 198 199 183 183 182 187 198 138 132 154 155 147 148 144 144 128 142 123 118 114 133 127 132 136 140 135 135 125 115 135 125 152 146 149 125 154 133 132 136 154 132 155 144 146
185 188 206 210 219 216 215 213 208 207 143 114 123 159 158 151 143 141 139 140 146 104 114 123 131 137 132 132 132 123 138 107 108 136 127 118 140 126 139 133 150 152 139 147 137
214 213 214 216 221 226 230 237 234 231 224 198 188 149 168 121 166 127 152 133 131 140 146 91 84 137 137 119 134 140 145 127 122 129 145 123 150 164 122 133 220 141 144 157 136
241 242 230 251 257 237 238 238 232 234 224 86 152 212 214 199 167 173 119 163 162 137 112 107 149 143 122 133 142 101 109 113 116 101 144 128 114 145 123 138 132 134 135 141 117
231 234 238 240 246 255 260 270 283 265 244 91 217 210 229 227 197 164 184 144 87 124 96 103 153 154 156 150 140 137 140 139 145 123 128 154 138 109 143 135 155 127 134 139 150
257 257 222 264 307 310 264 310 243 249 258 264 289 192 217 125 223 210 203 200 201 129 186 168 92 167 152 131 148 135 146 144 140 142 141 119 115 194 156 144 131 150 119 134 137
230 232 234 238 377 371 369 371 389 402 430 239 251 265 267 148 223 201 211 190 210 124 205 183 137 137 165 111 149 133 145 140 146 149 96 149 152 125 104 147 193 116 126 118 142
271 395 171 360 342 342 345 353 353 368 394 392 389 170 253 114 235 224 226 220 210 216 198 118 194 186 179 182 140 167 151 110 157 150 143 143 154 150 154 150 188 118 132 134 123
375 377 330 325 329 328 330 326 345 377 205 431 278 104 429 246 97 283 235 215 77 210 212 208 176 133 135 198 157 193 90 120 139 141 138 133 95 132 136 215 114 129 123 121 184
357 324 318 304 315 319 322 317 375 403 440 288 519 418 396 373 227 250 266 238 211 208 222 202 200 207 196 187 187 190 118 185 117 135 125 115 174 141 149 146 204 209 211 129 121
318 313 302 299 300 317 310 326 376 387 423 426 481 189 367 134 303 257 198 269 250 217 222 216 224 204 220 223 197 188 193 186 175 215 202 196 169 130 150 184 145 207 202 207 186
307 298 294 297 285 302 313 315 345 414 424 442 461 442 360 213 331 233 261 213 264 251 218 210 215 217 205 131 210 222 206 208 215 163 200 198 96 192 189 196 130 81 167 194 156
301 284 291 291 286 296 307 311 333 434 418 427 427 435 396 355 234 299 284 240 251 254 244 217 199 207 215 218 213 229 204 196 167 192 175 161 167 165 203 206 202 201 92 117 110
291 289 277 291 281 293 308 307 324 385 416 408 412 443 466 340 349 344 295 272 242 239 228 252 218 202 215 206 179 210 196 199 207 199 191 178 186 189 172 200 199 188 206 120 112
285 276 285 283 287 291 304 309 319 362 411 414 430 422 433 341 342 294 322 281 247 244 209 163 246 205 194 161 96 87 196 202 192 180 180 186 189 189 191 196 194 194 198 218 227
273 273 280 282 282 296 315 312 319 334 406 419 437 437 459 352 331 344 328 223 174 237 250 200 184 238 203 194 129 198 195 191 194 93 183 183 181 189 193 191 191 102 191 215 246
264 277 278 287 295 303 323 319 316 328 375 409 435 414 436 351 334 355 325 294 277 257 250 235 199 147 220 200 196 202 187 165 78 189 190 183 182 194 196 195 189 192 196 205 215

GFSSW_2pvu_pres_036.txt.gz
Presure
120 108 111 114 111 123 113 100 127 122 127 139 153 160 169 158 153 172 242 161 151 121 140 146 134 135 142 114 133 120 125 123 147 164 103 125 139 105 124 139 131 147 127 132 140
115 118 107 110 126 117 117 118 110 115 131 121 131 142 154 159 161 161 157 135 240 173 142 135 122 114 108 138 131 121 101 132 134 105 134 118 107 109 113 131 154 127 131 134 153
119 119 118 110 124 124 113 116 123 116 114 131 120 128 132 142 149 149 160 153 144 148 222 199 167 155 133 120 117 115 104 106 124 106 109 113 122 117 146 144 173 127 132 134 155
139 126 129 121 131 130 128 123 128 123 120 116 117 131 136 132 129 143 138 144 152 158 164 170 106 204 108 125 126 133 97 133 134 104 108 129 143 165 148 163 153 126 140 158 199
136 142 141 137 138 133 133 132 130 123 121 127 129 114 135 122 135 129 132 147 143 146 150 156 159 165 158 213 216 111 121 173 98 104 115 149 142 184 173 108 121 123 175 187 165
134 138 140 137 136 133 132 133 133 116 135 131 131 132 132 118 138 133 130 127 136 145 150 144 150 156 159 157 166 162 166 196 279 126 195 187 183 134 136 133 155 167 168 166 153
148 149 151 143 142 136 145 127 127 133 136 121 132 133 135 115 127 124 131 121 128 135 135 147 140 145 142 151 155 154 151 156 164 167 256 144 215 164 162 157 161 168 167 155 145
168 163 151 132 149 152 119 142 143 144 141 129 114 119 134 113 124 123 119 139 140 123 129 134 132 135 139 138 136 141 141 142 145 149 154 161 164 152 162 143 154 157 157 150 142
179 133 179 174 165 158 152 133 131 129 125 125 138 138 132 125 135 115 129 139 128 136 121 119 130 132 128 129 136 143 137 132 133 151 144 143 144 141 145 159 148 150 152 147 143
176 183 187 189 187 187 175 163 144 135 136 121 119 124 135 157 135 140 135 131 143 137 136 132 125 115 124 144 129 143 133 127 133 128 131 138 133 143 140 146 147 157 180 151 144
204 205 210 212 183 183 111 112 174 174 142 147 150 148 143 138 139 148 139 124 141 121 137 132 129 136 143 120 116 145 134 128 139 147 131 147 127 136 141 139 148 146 153 145 139
213 215 213 199 199 199 205 228 223 139 187 185 175 146 156 143 146 126 128 128 150 142 142 133 115 125 131 138 123 118 122 125 141 153 140 128 124 130 129 132 139 160 170 144 149
241 246 243 240 237 227 231 235 229 203 209 115 171 197 169 151 137 158 147 148 144 146 135 86 128 134 144 134 132 139 123 126 129 148 147 132 125 118 127 127 134 151 143 143 148
254 253 259 238 235 247 254 264 264 267 230 230 189 205 105 119 192 144 175 155 102 135 142 141 86 135 138 133 141 141 147 132 106 109 123 113 139 129 151 108 125 144 139 140 145
243 241 240 243 253 267 275 283 288 159 244 263 154 235 227 190 135 116 194 111 166 110 106 128 136 137 82 96 139 143 150 143 104 107 103 156 145 117 119 123 164 161 176 142 139
241 231 230 231 235 236 244 242 248 298 271 140 280 289 253 253 197 180 116 119 157 168 111 144 92 144 119 107 129 149 142 101 129 149 149 127 140 113 119 129 128 116 165 126 133
254 242 265 298 402 392 368 358 360 360 375 380 263 293 274 297 192 246 227 229 208 183 123 141 157 129 88 127 134 134 154 90 131 139 134 116 140 118 105 109 173 165 185 140 147
262 249 285 392 360 340 335 311 229 328 350 347 354 268 427 324 306 204 118 228 222 160 213 131 144 171 144 88 156 133 147 155 141 148 133 156 141 138 156 138 143 207 124 130 126
253 273 393 350 339 321 308 322 306 315 330 199 319 445 133 474 343 184 260 287 236 120 214 227 177 130 172 135 184 136 154 146 151 156 139 110 153 153 152 128 128 109 145 166 165
259 320 329 327 308 297 293 297 301 309 323 357 392 375 185 440 90 207 302 262 282 241 80 227 220 196 131 191 161 183 130 155 137 151 148 83 123 137 133 141 142 146 150 143 120
268 353 327 303 289 289 294 295 298 312 326 347 409 349 457 380 286 383 303 300 181 280 241 154 210 214 211 202 176 196 193 154 156 165 172 156 161 106 82 135 140 125 124 145 160
339 336 315 283 278 289 292 298 306 320 334 347 401 432 426 89 481 259 379 88 294 263 279 237 223 210 176 83 211 205 203 211 122 191 189 123 119 138 124 133 101 105 145 178 110
360 306 285 282 276 290 297 300 313 322 325 336 421 427 429 432 454 157 198 317 300 234 267 259 233 191 200 198 90 210 211 192 151 196 173 171 206 112 203 152 90 99 135 142 166
305 280 281 293 306 306 298 309 304 307 318 341 398 429 423 428 412 359 364 206 309 230 255 272 238 214 214 164 149 214 201 210 204 175 184 181 189 187 168 128 130 125 125 159 142
293 305 303 314 291 305 304 301 308 317 321 343 382 424 433 447 366 346 164 181 211 261 165 255 268 226 115 215 206 174 177 212 219 184 203 199 198 201 210 190 210 200 200 198 138
287 273 267 281 283 276 284 286 297 311 327 344 365 417 438 456 358 344 348 323 347 241 297 185 258 248 216 204 207 71 94 205 172 212 197 199 199 208 200 200 201 199 163 200 199
279 278 273 266 275 275 277 286 291 313 324 347 363 413 420 437 352 340 319 340 322 346 299 240 244 252 232 214 198 202 205 201 195 181 189 84 178 200 198 200 178 168 181 190 204

GFSSW_2pvu_pres_042.txt.gz
Presure
111 122 138 133 115 115 119 138 131 134 164 164 152 161 137 123 137 142 131 132 133 131 139 135 136 133 126 126 137 138 127 137 120 127 132 131 141 150 130 119 124 152 137 158 147
111 112 109 108 112 128 118 117 136 123 132 164 158 172 172 129 139 133 139 139 142 126 132 142 140 140 116 131 130 125 136 119 125 116 129 108 130 113 113 105 142 139 163 130 157
114 120 116 109 111 111 113 117 120 120 120 133 167 156 173 170 168 111 109 140 132 138 138 133 137 146 127 116 130 115 113 104 120 141 125 138 152 147 109 133 140 159 125 134 142
129 130 126 126 124 115 115 109 121 122 124 120 119 137 161 147 168 173 176 128 129 131 131 135 131 140 139 144 123 145 148 107 132 138 123 126 102 123 110 126 131 166 136 139 171
124 131 128 130 132 131 127 120 114 120 121 121 121 122 134 147 163 172 171 171 162 161 149 126 137 140 140 136 142 142 127 111 121 121 124 115 95 118 114 108 165 174 155 149 167
144 142 141 138 133 124 134 136 128 121 120 118 129 123 120 123 133 140 162 164 167 169 176 178 193 212 159 150 132 118 123 125 118 119 111 119 129 121 159 174 173 164 163 166 156
131 134 140 140 139 141 125 127 137 133 132 128 124 123 120 119 126 136 127 142 161 164 168 166 168 167 140 210 239 191 168 125 110 120 115 97 115 176 178 135 177 166 165 163 164
135 140 143 142 146 151 149 147 142 139 137 138 141 136 125 122 123 123 127 129 134 143 151 156 154 117 163 165 159 171 219 128 143 150 200 192 179 181 187 139 197 158 159 162 150
206 197 163 165 198 120 160 154 152 148 145 143 144 148 143 125 122 124 125 127 127 127 130 136 147 148 154 153 152 156 160 166 193 198 177 106 166 172 206 275 153 148 151 147 147
193 192 188 193 200 205 203 196 166 165 155 148 142 143 147 148 136 122 121 131 130 127 137 134 131 143 139 128 145 147 166 160 157 148 154 153 156 153 144 149 153 156 148 148 152
239 273 254 271 247 230 210 193 189 192 208 176 157 150 148 143 142 144 92 133 129 124 132 124 133 133 141 129 153 93 82 141 149 149 148 152 142 145 142 139 139 141 137 143 148
206 207 207 214 217 212 215 227 280 283 242 196 206 172 162 157 150 98 147 144 133 133 120 137 127 132 130 136 132 130 134 138 136 141 142 141 140 144 133 137 134 135 143 136 177
236 228 224 212 212 246 226 231 238 250 281 281 290 226 207 171 148 155 156 148 142 149 144 122 109 97 135 113 144 108 132 147 136 136 132 136 135 138 131 129 130 139 134 154 159
232 190 173 208 203 211 236 212 208 233 270 274 283 285 270 214 192 175 148 160 146 153 151 134 130 118 89 105 135 124 110 130 139 122 131 126 127 121 120 144 134 136 128 139 148
229 216 197 190 193 194 191 173 179 242 276 296 271 272 275 292 296 211 202 166 150 165 159 149 142 131 119 129 129 98 141 147 119 111 141 141 126 125 129 133 137 141 133 149 134
200 199 239 235 244 204 211 266 282 280 281 293 302 305 277 284 294 304 304 188 161 153 170 140 155 146 128 134 131 81 152 130 122 131 131 145 144 128 128 138 129 127 121 142 120
231 240 228 212 225 232 270 276 279 280 294 292 352 383 385 351 285 289 311 212 120 192 117 98 101 90 119 97 122 92 112 107 141 115 131 128 120 125 131 116 125 132 137 149 166
237 189 239 234 229 277 285 278 278 273 357 336 351 345 342 350 355 308 298 295 306 269 222 153 122 149 146 123 157 124 89 143 118 134 145 133 139 133 134 138 126 122 144 151 162
235 230 203 254 268 273 274 265 343 339 329 325 326 326 201 325 329 344 355 294 296 292 310 223 156 131 97 159 142 97 68 123 131 128 95 85 145 136 146 113 104 103 125 126 155
247 252 258 284 274 258 338 346 341 327 328 335 334 330 319 310 317 326 210 97 311 301 302 316 220 144 150 77 116 149 159 153 161 142 131 117 101 119 111 110 133 114 135 129 140
271 279 277 259 276 335 311 305 302 299 296 297 306 305 327 335 331 343 357 370 382 312 306 306 293 214 206 146 114 112 117 148 132 104 149 139 107 93 109 125 90 127 123 126 137
272 262 248 334 313 292 282 278 289 291 296 301 317 315 314 311 315 320 328 315 368 383 302 315 319 144 219 193 136 160 173 87 89 132 146 125 119 115 98 105 132 145 142 131 123
251 345 315 289 277 279 279 265 274 271 277 287 299 327 323 316 318 321 330 349 379 413 500 308 296 308 262 223 194 117 163 173 154 141 151 145 88 143 127 141 136 166 135 133 136
313 291 279 275 259 246 258 252 252 268 276 291 337 329 325 321 323 335 224 255 425 471 471 494 364 307 166 255 222 240 154 160 139 136 129 126 108 119 141 132 146 94 98 152 132
282 273 265 256 257 249 241 249 263 264 276 316 360 340 335 337 346 355 384 406 431 457 451 446 481 301 277 264 254 228 197 203 180 92 163 122 129 141 129 135 97 146 94 149 145
267 260 248 252 249 247 257 250 254 263 273 337 370 353 350 354 356 365 384 410 443 430 431 461 458 159 275 269 257 237 212 230 225 174 103 169 155 139 151 126 142 150 157 120 126
260 252 254 249 248 244 245 247 252 256 293 349 370 357 350 358 368 378 388 405 412 349 470 480 400 324 273 273 255 248 229 204 228 213 167 94 168 179 163 153 153 160 140 166 124

GFSSW_2pvu_pres_045.txt.gz
Presure
114 111 115 148 118 117 120 138 135 131 166 174 175 146 124 140 145 137 145 136 140 123 135 135 129 124 139 134 142 127 131 133 106 142 135 109 117 131 120 114 130 133 138 157 161
120 115 112 112 111 119 117 119 124 136 125 170 176 178 165 135 130 140 137 142 135 123 130 142 140 128 139 135 137 133 135 130 123 138 147 113 128 113 131 121 129 144 145 131 166
128 110 122 119 114 110 110 111 116 121 123 122 173 173 173 162 140 134 151 141 144 136 139 151 138 141 132 132 134 133 133 133 110 104 112 99 118 146 108 126 131 142 165 160 168
118 129 131 129 123 124 121 115 115 117 118 123 123 146 177 170 170 147 135 140 154 146 142 129 139 137 130 134 136 132 141 134 112 110 147 141 131 130 139 115 146 133 180 160 167
129 124 121 122 125 131 131 129 125 119 114 116 123 124 123 173 160 179 167 143 141 127 139 140 139 99 128 142 113 141 126 119 134 129 105 143 96 127 114 100 125 181 128 172 166
135 134 140 140 127 126 135 133 134 133 127 122 119 122 124 125 126 168 176 179 159 149 138 134 133 134 137 131 138 111 147 151 110 124 143 149 130 131 142 112 176 181 150 177 167
128 142 141 136 140 143 140 139 140 133 136 134 130 119 124 125 126 126 130 179 178 172 144 152 144 143 146 104 146 144 144 127 106 122 126 104 123 128 157 172 185 178 188 170 172
143 144 142 135 130 147 132 137 137 126 139 140 136 135 123 124 124 127 126 127 135 177 177 178 179 158 143 135 121 159 124 132 121 120 117 102 103 129 177 187 184 181 168 167 159
177 172 175 178 165 155 149 142 137 144 147 147 138 137 134 133 121 127 127 127 130 138 136 171 173 172 175 177 176 184 209 225 239 217 148 156 117 184 180 188 187 197 155 145 151
223 202 199 198 202 224 177 135 140 148 137 141 149 150 149 140 133 140 123 126 130 129 134 134 145 164 168 169 168 130 181 185 190 205 247 229 210 162 167 182 180 159 152 142 166
224 232 238 238 245 251 248 222 223 197 135 189 148 142 148 151 147 142 138 137 132 129 130 133 110 141 143 159 164 159 164 161 162 158 161 170 165 162 165 149 152 144 148 146 150
214 205 207 216 217 220 224 222 224 247 257 264 300 251 163 156 151 148 150 148 144 134 136 128 127 144 143 126 136 148 97 82 152 161 115 150 149 148 146 142 145 143 140 143 143
224 227 244 231 207 208 233 230 249 224 219 216 243 228 244 223 174 160 152 150 150 145 141 132 126 134 137 101 142 138 96 150 133 154 159 157 150 152 144 149 138 137 137 140 135
235 230 210 221 245 238 191 207 189 226 228 227 214 234 241 234 240 205 168 160 156 148 148 97 138 134 134 127 141 134 131 143 150 144 141 141 141 147 154 136 134 128 139 137 135
223 237 201 242 243 232 241 237 217 234 216 219 218 216 222 260 238 238 255 199 170 154 147 143 147 139 97 117 143 143 82 149 132 139 141 130 126 131 137 127 126 117 139 135 136
240 242 223 241 243 234 235 225 214 201 207 207 209 224 205 206 230 259 229 262 298 284 161 153 129 127 133 140 141 99 104 135 132 129 137 135 130 126 129 124 130 125 134 133 133
244 240 243 247 241 241 250 251 251 251 234 229 256 265 283 244 264 261 210 307 260 300 254 163 155 149 87 94 150 136 112 135 154 118 88 125 133 139 127 128 128 141 138 134 124
234 239 238 241 239 238 242 241 239 255 259 274 301 307 293 299 302 302 304 317 300 302 104 293 128 94 146 90 109 127 153 143 141 132 136 104 109 109 132 134 137 127 131 133 128
246 235 232 237 264 271 265 270 287 293 290 285 290 345 338 353 356 350 359 367 370 321 316 299 306 172 158 85 126 133 152 129 144 81 119 125 149 151 114 130 135 130 120 133 133
314 316 308 288 276 287 282 281 271 293 326 316 314 316 320 333 322 333 345 337 347 356 339 308 209 257 178 128 107 107 110 101 141 140 128 118 132 126 162 143 119 116 138 127 119
274 272 274 271 267 260 288 315 290 284 283 284 282 288 290 291 319 328 340 347 337 337 351 362 306 245 89 92 139 82 135 92 139 121 126 103 99 143 162 108 127 113 140 130 132
253 254 262 312 303 297 278 274 266 274 260 264 275 280 283 291 308 319 324 332 333 314 330 350 298 302 295 244 198 182 163 145 133 142 132 100 88 158 147 149 145 153 112 118 122
330 306 292 286 278 267 261 254 262 258 270 254 262 275 284 284 332 325 332 325 330 330 165 357 310 272 297 309 215 192 183 88 140 87 103 145 119 109 135 103 155 101 136 115 105
295 278 269 261 259 253 257 256 252 258 262 265 264 277 283 308 342 371 343 327 326 248 219 317 362 387 293 304 184 232 218 132 115 123 144 146 137 126 152 99 108 99 145 124 148
277 268 256 258 258 256 248 244 259 253 261 259 272 282 327 345 367 355 345 336 330 331 338 298 358 168 399 290 309 289 223 178 100 140 81 143 155 125 150 116 100 137 152 123 95
262 253 253 253 247 254 263 264 249 258 254 266 286 364 354 366 363 350 347 344 343 348 352 356 371 389 419 440 173 81 254 223 90 88 135 148 111 118 140 176 88 162 131 125 159
258 252 247 250 250 242 253 258 268 271 263 295 381 384 377 370 367 371 372 374 383 393 410 407 461 457 483 388 301 313 281 248 245 79 142 136 98 140 147 120 93 157 142 155 147

GFSSW_2pvu_pres_048.txt.gz
Presure
118 117 116 117 118 126 136 141 140 140 167 169 185 163 147 134 138 147 147 137 138 126 125 127 124 137 111 134 111 124 125 127 131 136 123 144 123 117 103 121 128 132 140 153 161
113 121 122 115 116 116 115 117 118 128 142 166 149 181 183 149 141 138 139 151 141 138 138 133 130 136 128 133 134 123 144 124 138 119 127 122 130 118 144 123 132 132 140 146 168
126 126 128 122 123 117 112 111 113 116 120 139 161 165 156 155 183 163 137 145 151 133 137 143 133 139 137 139 141 139 136 139 135 131 133 127 126 139 134 127 118 131 155 150 170
130 120 119 128 112 122 113 119 120 113 112 115 121 123 125 174 174 135 165 132 142 139 141 143 132 110 137 125 142 135 138 132 139 141 121 104 122 106 123 144 121 132 165 175 174
139 137 134 132 123 126 128 131 124 124 124 120 120 117 124 165 177 165 168 141 147 141 150 135 147 128 130 143 135 138 136 141 141 126 134 123 125 124 113 112 140 132 163 188 175
130 128 125 130 131 126 123 124 125 131 132 128 126 120 119 122 127 125 152 159 188 132 137 148 128 147 147 141 108 137 127 153 136 114 143 105 136 103 160 135 146 165 184 190 194
136 130 139 145 134 125 134 139 127 127 127 134 131 130 127 123 127 128 125 139 176 166 197 120 138 137 136 127 144 145 144 118 95 148 121 157 99 108 125 119 156 180 141 191 192
156 157 151 141 135 142 147 128 140 142 137 136 139 132 134 134 131 125 130 125 129 177 188 156 161 132 138 138 135 139 143 142 139 144 109 143 111 122 117 132 170 187 179 198 171
142 136 143 144 135 137 135 135 143 136 138 141 146 139 139 129 134 135 130 122 126 128 131 183 178 150 155 146 143 134 152 142 140 123 125 136 132 129 109 138 179 157 188 166 157
222 213 206 206 212 208 223 154 143 138 133 133 130 140 138 126 138 136 136 134 126 124 129 130 163 183 185 159 152 152 137 133 131 156 117 163 129 155 135 168 193 196 151 155 156
224 222 229 230 223 244 247 208 212 231 193 164 142 136 136 135 145 146 127 139 138 130 126 125 130 140 146 185 182 187 185 194 194 146 143 253 135 218 205 194 180 196 158 161 158
230 238 236 226 228 221 221 223 239 249 257 208 200 183 139 143 145 142 147 148 136 137 137 133 128 133 135 138 176 150 184 186 127 181 177 177 185 239 239 172 174 166 155 151 150
211 217 230 227 225 238 246 244 220 216 218 232 238 247 251 143 145 144 143 147 151 145 143 140 114 137 127 127 139 154 92 183 162 171 144 155 171 199 168 174 166 153 151 151 149
262 226 197 195 240 230 225 209 231 235 261 223 216 225 231 232 232 176 145 155 146 152 152 146 142 143 140 133 130 92 144 155 158 163 163 158 159 157 151 153 144 146 148 145 142
260 268 249 241 228 225 245 220 246 234 213 247 242 216 218 239 237 239 235 253 154 151 149 153 146 149 150 142 138 134 93 146 155 101 155 152 153 152 147 147 137 145 135 141 142
248 241 246 252 254 258 244 234 247 231 248 243 238 242 247 227 221 230 241 236 246 254 154 157 154 153 99 139 145 139 113 137 134 147 138 144 144 149 142 153 150 137 133 144 140
252 244 246 250 244 240 251 257 252 247 251 249 250 253 242 248 242 222 236 239 241 232 250 166 148 154 157 149 157 156 134 129 127 125 138 137 133 143 139 138 148 133 129 139 140
311 317 282 264 262 246 240 244 249 249 247 250 252 253 256 250 243 212 213 244 232 231 237 235 238 162 161 113 100 139 138 148 137 126 141 127 119 137 142 137 135 132 139 136 141
275 288 294 290 296 310 330 275 251 237 236 240 242 245 250 247 258 260 264 275 229 227 226 225 232 256 89 103 160 159 114 110 135 93 84 111 133 127 148 140 128 132 133 140 137
253 259 254 255 269 274 279 284 288 290 287 285 284 284 288 290 306 309 318 277 376 349 346 199 263 225 271 191 120 97 125 128 131 109 114 130 139 108 139 137 149 135 138 138 138
280 271 272 274 304 265 264 253 255 256 281 283 298 296 292 299 297 310 316 311 320 339 358 377 381 333 267 100 169 140 173 153 153 125 134 138 102 155 105 102 144 137 134 146 135
284 313 307 293 294 290 282 281 277 273 273 269 266 278 283 284 290 290 296 308 300 310 342 348 364 354 98 99 102 102 143 172 137 146 132 96 105 148 125 128 148 108 139 141 155
296 283 278 275 272 270 269 269 268 269 265 263 261 265 272 274 286 282 282 305 304 286 311 340 338 358 354 373 310 245 301 130 109 148 144 147 128 125 146 144 133 160 139 116 151
283 277 274 268 265 263 262 262 259 260 261 259 266 263 267 278 285 282 284 298 301 305 315 336 292 339 360 348 361 305 89 282 80 111 161 120 101 133 117 124 147 133 166 111 115
273 264 261 253 255 254 256 252 252 253 271 270 275 287 294 292 289 272 289 299 321 328 329 332 330 334 145 347 348 354 241 124 105 86 95 114 143 114 125 132 165 167 153 166 135
277 264 256 252 254 252 254 269 266 258 261 292 462 445 438 444 392 366 352 343 339 334 334 341 365 346 335 346 106 355 119 107 102 191 113 147 101 139 143 113 111 191 103 137 104
262 259 257 256 255 253 255 269 262 261 275 366 361 370 375 391 376 421 398 378 369 362 360 365 363 355 346 340 331 347 368 319 293 228 180 157 144 105 104 111 115 125 102 106 170

GFSSW_2pvu_pres_051.txt.gz
Presure
117 116 117 114 116 142 142 138 147 131 171 150 177 170 149 133 145 137 151 140 142 142 138 134 126 138 114 135 118 126 131 125 129 132 125 141 111 126 113 124 128 120 140 135 145
117 118 118 120 120 114 117 117 117 138 136 169 144 181 195 129 139 143 135 138 136 137 140 142 133 119 125 117 135 135 125 134 133 138 128 143 108 120 128 139 133 124 142 137 147
129 127 123 113 118 120 119 115 116 116 118 139 163 157 183 194 148 148 134 149 152 142 138 144 122 119 141 119 139 141 138 114 105 143 141 125 122 116 161 116 130 123 142 148 147
120 126 131 133 128 128 117 119 119 111 116 116 119 137 173 185 185 152 125 145 160 144 139 141 142 139 130 141 136 109 114 146 125 139 125 130 124 144 127 125 121 130 140 146 169
124 125 128 125 127 124 126 130 119 117 121 121 115 116 120 170 126 177 207 145 134 142 139 149 146 139 139 130 132 98 130 123 145 137 139 116 117 109 110 123 144 135 133 159 179
148 126 131 136 128 131 137 133 123 127 127 122 121 125 122 122 121 127 147 156 178 130 150 133 155 137 138 139 136 135 147 154 143 130 136 118 148 112 119 123 124 118 145 168 186
131 136 133 127 126 133 142 137 129 133 128 126 130 130 126 128 119 120 125 127 193 216 127 142 148 145 135 148 138 146 142 146 143 140 137 155 132 137 118 108 140 145 152 179 182
145 146 153 151 139 135 126 125 127 126 134 127 124 126 127 131 130 130 122 127 128 164 201 161 154 136 142 141 149 150 140 145 139 135 141 152 141 101 106 129 121 141 164 178 201
225 218 160 146 148 144 137 138 137 140 135 128 132 138 126 128 136 136 133 125 127 130 128 185 154 174 156 135 140 133 129 156 138 139 130 131 139 110 115 123 131 152 166 183 192
239 245 224 205 203 154 201 156 154 146 139 137 141 134 135 130 129 139 137 135 134 127 132 126 146 187 158 172 160 142 145 140 132 136 138 129 108 159 103 113 152 165 164 187 165
218 234 242 241 241 246 219 220 134 143 149 135 138 137 138 142 135 138 136 137 138 135 137 130 127 133 185 195 178 163 178 157 142 148 149 100 108 155 120 102 138 167 144 171 156
235 216 210 205 224 246 243 243 244 225 219 212 158 139 141 141 134 140 145 143 143 144 140 138 122 130 131 133 176 191 170 167 157 135 139 118 116 155 116 168 180 206 174 167 153
264 249 230 233 231 233 210 246 242 236 234 240 235 222 212 147 137 140 143 135 140 143 137 135 141 139 133 130 133 156 192 195 197 175 177 117 154 198 146 189 244 110 192 158 155
257 256 254 252 229 234 245 230 222 220 245 249 227 229 231 233 179 149 143 148 145 144 143 145 152 99 141 133 132 134 141 143 191 184 158 188 190 182 185 220 238 189 160 160 158
271 264 256 234 259 267 272 253 250 228 232 222 233 248 253 225 229 236 254 152 152 91 150 142 149 150 151 145 138 127 137 137 144 181 184 177 173 170 171 213 223 177 166 157 150
283 299 292 261 254 258 257 248 248 252 244 235 233 223 233 246 254 230 218 235 232 150 105 139 151 148 153 153 148 143 136 134 88 91 153 165 165 164 165 153 103 172 150 143 145
289 269 294 329 296 253 251 259 248 258 266 252 248 238 232 238 222 230 244 240 225 233 208 80 151 105 147 151 153 156 145 138 124 131 157 106 158 158 158 168 156 151 143 134 133
270 260 270 278 287 307 300 259 254 254 252 257 251 258 262 254 244 253 248 233 249 228 234 236 190 153 102 140 148 146 151 145 136 124 131 120 109 150 145 162 149 149 142 145 134
262 268 266 261 265 265 278 289 299 288 262 248 245 248 246 255 259 256 251 244 249 240 251 220 226 235 164 136 157 149 149 86 132 131 125 132 150 96 164 159 152 150 143 146 136
301 288 301 294 281 262 257 257 257 273 281 288 303 270 250 243 254 255 257 253 253 249 256 242 225 235 103 237 144 169 127 156 155 143 118 123 138 135 96 153 154 148 154 144 131
317 294 302 276 309 306 304 297 299 258 252 263 269 275 281 283 251 243 254 202 257 259 258 260 249 162 221 239 236 219 166 150 156 148 141 122 131 129 148 143 122 137 136 143 138
311 305 298 282 276 274 283 286 286 285 287 283 282 268 268 271 286 291 298 284 245 250 257 265 265 268 256 102 233 248 246 103 138 109 145 79 96 105 101 127 150 142 143 135 139
300 286 278 271 267 269 271 269 267 267 266 265 268 272 273 279 283 289 289 288 301 297 305 321 329 280 101 280 248 265 102 110 150 167 138 150 141 110 136 118 165 147 147 136 148
283 281 273 270 266 265 264 261 254 256 259 260 262 266 270 273 279 281 282 289 294 296 291 298 308 309 314 263 309 98 96 190 234 152 111 135 126 126 132 130 86 149 143 163 139
285 274 262 257 260 257 256 259 250 259 268 275 278 288 377 394 306 294 299 297 290 288 291 290 295 301 309 297 261 366 406 244 93 205 101 158 153 91 85 152 158 170 160 115 128
275 265 265 255 257 254 255 258 256 262 263 261 329 325 350 366 413 413 426 401 306 308 307 285 293 282 290 302 299 321 117 381 237 218 248 98 140 107 167 159 156 145 117 130 140
267 266 257 255 253 260 259 276 261 252 264 340 309 302 317 319 348 359 410 418 424 400 299 313 305 306 291 303 293 117 283 176 379 278 122 153 129 146 145 139 137 153 154 153 154

GFSSW_2pvu_pres_057.txt.gz
Presure
119 116 114 132 142 142 140 130 133 134 164 179 182 169 135 141 134 132 132 132 136 134 135 141 139 135 118 140 141 163 114 118 131 118 135 116 115 114 140 125 128 131 138 135 134
116 117 120 120 114 126 148 143 134 137 134 168 182 180 201 152 143 135 127 145 134 127 150 138 139 126 157 127 131 105 153 104 138 117 135 89 129 105 138 142 137 130 128 141 135
122 124 120 119 121 121 117 121 142 143 138 140 170 177 179 198 149 144 140 135 147 142 144 130 124 120 158 108 132 139 142 121 131 132 126 129 116 117 131 149 138 133 133 136 136
131 121 124 126 123 121 119 119 118 118 118 146 140 137 186 188 202 174 140 142 145 130 152 134 147 144 138 155 135 149 126 138 131 119 110 137 132 150 138 154 123 140 128 126 141
124 132 132 127 129 130 131 127 114 118 120 118 119 119 143 180 189 168 216 147 134 121 135 150 149 125 146 137 143 137 140 136 142 132 113 140 110 140 127 131 128 125 133 134 137
138 148 130 134 130 126 121 124 130 129 122 109 120 115 117 128 169 168 202 200 168 145 140 133 135 149 147 134 140 127 118 131 129 134 131 140 114 126 128 126 130 139 128 132 130
192 134 172 154 137 128 139 124 128 128 132 131 127 128 123 116 117 123 174 202 195 188 151 138 149 144 151 123 145 115 138 134 133 128 133 126 104 105 120 137 111 168 135 132 134
205 195 173 207 190 153 137 135 133 133 133 132 131 125 131 124 122 113 119 123 176 204 191 147 151 145 135 153 123 155 147 141 126 132 147 136 125 118 115 140 152 116 129 136 141
241 236 234 218 205 142 141 151 149 136 139 139 134 130 129 131 129 127 125 124 123 125 192 216 184 146 150 142 143 138 155 158 127 136 130 125 134 123 139 128 113 143 117 128 155
293 251 245 252 240 234 216 206 165 147 144 143 138 140 134 137 136 135 128 131 130 126 125 131 201 216 168 147 152 155 142 142 141 135 142 124 122 132 127 132 143 107 155 131 135
230 231 231 241 268 253 255 269 222 206 199 139 147 142 145 137 140 136 141 136 128 134 134 125 127 133 203 216 140 152 158 135 141 154 140 133 144 121 123 111 115 122 142 129 126
303 289 246 239 255 235 252 253 275 236 188 152 164 143 142 142 140 146 138 136 141 133 132 133 127 131 132 139 213 224 173 167 149 141 133 126 144 118 120 123 141 133 135 114 125
284 265 269 283 279 313 255 256 242 277 247 236 239 153 153 136 144 142 143 142 139 137 139 137 136 138 127 131 132 162 211 201 177 145 139 141 131 126 124 122 131 110 113 139 174
273 267 255 260 275 271 299 250 238 232 269 271 224 240 232 153 151 148 153 151 150 145 147 140 146 140 140 134 133 131 144 186 206 149 225 139 128 124 131 122 142 139 164 162 158
268 255 256 293 298 268 265 285 295 230 225 276 264 253 236 239 188 151 150 147 151 149 151 149 152 146 136 140 139 134 138 141 177 188 133 133 138 124 107 110 115 121 155 172 142
360 350 343 341 284 296 263 262 277 304 287 234 248 261 259 234 239 185 164 156 159 157 153 155 150 151 150 149 142 145 139 134 142 167 169 164 186 197 116 120 131 144 132 131 121
320 356 351 328 335 269 280 281 265 271 307 281 265 267 252 270 250 228 235 212 158 155 159 162 159 150 145 159 157 126 149 140 135 132 145 145 180 183 177 131 145 153 158 128 140
384 387 356 351 321 321 262 274 280 271 272 307 289 261 261 267 254 255 220 231 237 244 164 156 157 161 151 136 152 152 159 150 139 130 137 156 151 176 189 149 141 143 144 160 146
362 354 353 354 299 313 307 257 261 275 263 274 266 287 255 257 264 261 251 220 231 238 236 250 221 166 159 161 153 161 153 150 150 127 132 122 141 160 171 197 200 174 141 145 121
335 329 324 323 314 294 298 290 260 251 264 262 266 296 323 271 257 258 263 237 230 240 245 247 239 245 209 174 172 174 148 111 150 151 104 129 129 134 149 166 204 181 163 170 170
327 316 309 306 304 303 297 283 282 281 266 252 250 259 286 297 270 251 252 254 273 280 244 240 235 240 247 236 182 178 176 165 105 137 142 108 80 133 133 146 170 168 169 156 155
321 308 296 297 286 286 285 288 286 279 299 280 261 250 250 259 287 278 253 260 256 262 265 270 258 240 240 238 239 203 77 184 172 160 146 142 126 121 131 101 128 97 175 168 165
323 296 281 277 286 277 275 274 274 275 275 275 283 283 266 250 250 269 284 286 255 251 257 257 269 264 258 261 240 241 218 221 188 179 155 147 135 136 130 142 109 142 179 143 157
323 301 285 273 267 259 262 267 268 268 268 270 272 274 276 278 282 267 263 270 286 292 249 241 252 263 254 270 274 239 249 216 258 229 190 122 157 140 137 133 138 140 111 175 162
319 292 283 270 262 258 253 256 253 264 262 258 260 264 271 278 281 285 291 298 280 277 289 282 251 265 255 264 276 276 268 216 259 267 243 180 149 124 94 103 140 100 137 140 171
316 294 270 275 258 272 263 261 255 259 261 262 266 271 280 287 295 297 328 299 297 308 322 273 292 279 262 70 264 273 279 277 237 248 229 236 164 162 158 128 135 141 130 135 122
323 291 280 268 265 265 260 262 263 263 268 285 282 276 287 284 309 314 315 346 339 345 369 424 326 289 290 296 273 263 268 274 270 268 253 260 183 201 177 151 145 88 137 122 125

GFSSW_2pvu_pres_060.txt.gz
Presure
114 112 153 134 143 138 140 130 145 138 168 169 181 191 138 135 155 153 142 129 126 144 139 132 135 141 118 134 130 141 144 130 118 123 143 122 133 122 160 140 124 126 136 139 137
118 122 120 117 117 139 144 143 134 163 137 169 173 181 202 137 157 147 157 149 138 145 130 138 132 145 147 114 145 112 110 125 126 113 146 114 117 138 126 128 123 134 124 143 133
125 118 121 122 119 121 118 120 146 136 136 136 167 182 187 222 159 146 133 162 147 141 133 131 140 137 137 123 145 103 105 124 138 123 152 124 113 136 120 139 119 133 128 131 157
137 131 131 124 126 125 121 119 120 151 143 135 142 154 182 190 216 142 144 134 132 149 150 143 146 146 133 129 149 139 143 107 135 124 131 133 148 130 142 140 122 126 131 131 151
201 164 124 126 131 122 126 125 118 122 122 142 125 142 166 187 187 190 172 157 142 139 136 128 145 131 139 133 139 137 132 124 119 117 118 127 137 120 136 134 120 121 151 127 135
201 142 177 178 135 128 129 130 127 125 122 119 122 123 130 149 177 182 146 160 150 142 126 139 160 140 129 142 120 140 121 130 117 135 129 125 138 113 141 125 122 139 141 137 137
239 204 195 197 142 132 135 134 130 121 135 133 127 121 125 123 128 162 190 144 186 171 142 136 132 143 119 139 119 131 140 103 116 132 131 107 142 121 124 130 134 148 149 133 130
229 247 249 283 221 200 158 145 133 134 130 121 127 131 132 115 118 119 147 189 192 186 185 172 141 129 125 138 135 122 143 139 117 130 137 125 135 109 126 125 128 142 163 126 133
245 224 238 251 318 265 260 220 142 142 133 133 128 125 137 134 129 132 118 126 169 187 201 224 183 177 128 125 139 137 150 135 127 133 133 115 126 139 127 116 116 140 142 128 143
214 266 220 301 297 343 276 269 223 205 144 140 132 129 132 138 140 132 127 123 118 131 177 189 218 198 172 164 161 123 138 116 137 118 125 139 138 121 139 122 124 138 155 126 134
237 252 252 299 308 316 319 266 263 243 218 158 148 141 140 136 135 140 136 130 133 117 123 147 182 196 222 189 141 127 130 147 129 128 124 115 131 120 123 117 132 144 150 138 132
231 223 259 294 294 298 298 307 281 272 255 228 145 143 153 146 143 142 137 140 134 133 128 125 127 144 186 195 205 182 150 123 142 141 131 125 125 137 131 125 142 144 115 161 142
229 243 282 311 284 227 276 299 307 266 215 270 228 182 147 147 155 145 144 141 139 139 137 136 130 131 125 162 190 223 211 149 137 135 123 128 142 140 125 123 139 113 126 130 147
248 251 286 368 361 283 272 278 282 265 270 259 262 236 208 163 155 153 143 151 148 144 145 140 144 130 131 126 131 157 192 215 218 141 133 131 143 120 140 124 124 108 135 160 138
265 275 334 397 330 364 280 268 279 280 309 308 239 259 169 222 194 188 156 148 145 154 145 149 141 141 134 135 130 132 142 181 170 150 143 164 149 130 142 131 127 128 136 116 121
242 279 407 407 367 347 312 258 273 240 278 310 262 253 252 261 235 208 187 164 160 143 141 140 149 149 141 139 135 133 131 135 158 180 175 178 137 140 120 132 139 137 135 149 159
245 400 395 390 379 356 328 297 294 294 273 273 315 285 244 244 272 224 226 187 157 164 159 141 154 144 147 149 143 141 140 133 136 147 161 174 117 140 137 133 141 138 131 129 159
260 373 359 366 363 343 318 324 291 283 276 259 268 306 294 247 236 273 216 233 229 170 158 162 156 160 158 153 148 140 141 138 129 136 149 172 169 170 187 149 98 107 158 122 111
328 299 333 335 334 347 291 314 315 269 272 282 251 263 292 283 267 231 270 264 224 246 211 157 161 159 154 152 149 157 149 141 144 131 131 152 157 157 146 187 138 100 126 123 127
303 336 330 319 311 316 283 298 307 289 257 276 268 257 268 286 274 210 226 255 268 229 235 243 169 159 165 161 156 162 154 151 142 144 127 106 124 107 146 168 191 143 138 116 135
255 327 315 307 298 298 297 277 287 293 278 251 261 274 259 261 282 275 269 228 250 253 252 219 235 243 167 158 158 158 164 158 154 149 139 126 135 146 142 165 168 180 211 183 151
328 320 296 285 288 280 284 292 296 285 282 274 251 251 261 256 270 271 282 263 259 242 267 262 264 228 233 230 170 166 149 167 85 154 151 108 132 133 140 133 156 174 206 222 105
344 325 305 288 271 282 276 274 275 280 276 269 278 272 254 250 257 267 263 306 282 266 256 266 265 251 224 242 244 194 185 178 163 157 141 134 147 135 135 140 136 153 166 208 172
344 319 307 282 276 273 261 262 266 273 278 279 275 277 278 289 273 255 263 264 291 290 267 256 260 262 270 252 240 243 226 220 188 172 161 144 151 156 142 119 118 136 140 181 189
333 318 304 292 276 267 267 264 262 261 263 265 272 274 278 277 274 285 273 261 264 283 287 282 257 259 259 275 267 239 242 248 214 197 185 148 150 139 132 129 121 133 141 123 154
321 316 291 281 281 278 267 263 260 254 254 259 264 264 266 269 273 279 284 295 302 258 264 289 285 264 257 263 267 279 252 242 245 258 131 72 174 113 103 141 137 115 131 135 132
317 305 300 279 275 264 262 261 259 261 258 262 263 275 279 293 307 314 303 294 302 318 332 318 269 293 279 263 271 274 268 229 233 240 255 241 80 153 152 150 116 144 133 131 132

GFSSW_2pvu_pres_063.txt.gz
Presure
115 144 114 112 139 139 141 143 140 134 144 173 169 184 214 200 166 160 155 127 120 135 139 136 142 116 135 135 123 131 141 131 119 134 119 135 126 148 159 125 129 123 131 133 147
121 115 113 113 135 142 131 143 141 136 134 145 168 175 190 223 143 147 154 151 138 127 142 135 132 117 140 138 126 134 130 115 126 119 128 150 131 124 128 132 138 125 121 142 132
203 123 123 117 118 127 118 118 143 141 135 137 148 169 181 195 140 145 157 153 130 133 142 146 140 134 141 120 129 138 141 122 126 109 119 125 117 116 114 136 135 129 122 136 127
186 195 157 126 119 120 120 118 123 145 144 136 143 158 177 185 204 137 150 145 156 123 137 141 127 141 138 120 138 137 108 109 117 110 116 139 112 103 112 144 132 140 131 126 141
195 129 170 196 127 130 126 123 123 121 121 135 144 137 144 179 188 219 144 147 145 159 139 142 119 135 140 138 132 136 128 111 135 119 129 141 132 108 163 129 129 134 142 122 138
224 228 234 199 158 157 128 129 128 125 124 122 125 139 140 147 181 187 216 161 156 143 155 132 151 137 144 144 127 136 130 132 147 122 125 124 120 148 119 149 126 117 145 139 131
218 218 239 225 257 139 201 129 121 125 127 125 126 123 143 142 145 181 189 223 184 146 138 142 136 140 135 133 118 128 136 139 135 161 125 136 127 112 117 136 134 141 129 150 132
210 221 254 252 237 226 250 262 142 137 132 130 128 130 124 120 125 137 154 181 214 185 177 164 137 142 134 134 133 125 117 121 129 139 128 138 140 131 142 129 140 120 145 143 131
238 237 253 251 240 247 265 268 235 154 142 136 134 130 127 134 124 126 125 152 191 212 181 174 147 134 141 137 138 136 137 120 138 126 124 128 130 118 140 131 124 117 143 140 131
250 238 236 227 240 244 261 248 271 325 255 142 139 138 126 126 135 129 131 121 135 183 192 190 168 147 138 149 150 145 120 116 120 124 131 135 114 130 110 121 129 118 134 139 163
243 234 226 230 238 251 272 269 299 321 343 210 150 145 140 135 123 132 133 132 115 146 184 187 196 219 143 149 130 150 135 145 139 122 139 119 133 126 134 141 112 132 120 141 125
234 232 221 232 230 253 256 283 299 304 319 338 281 152 153 145 141 136 133 137 137 120 124 145 178 192 194 222 141 150 139 132 122 143 126 125 129 126 123 134 125 137 137 137 134
224 213 224 229 246 255 296 288 331 296 302 316 271 267 182 159 150 134 136 135 138 145 126 123 127 170 189 190 197 197 134 112 133 123 131 134 122 140 133 126 131 113 137 148 142
216 222 231 241 255 306 371 347 325 301 296 305 290 208 257 194 167 154 144 134 136 138 139 138 126 121 156 182 183 184 188 198 131 152 125 151 126 123 125 127 131 132 123 148 134
206 223 237 249 343 421 432 386 361 302 293 290 306 264 263 244 208 157 164 152 144 140 138 137 141 131 126 128 155 172 186 205 147 127 153 144 129 125 129 130 132 100 136 149 132
226 231 248 362 311 399 404 370 322 321 282 276 296 274 256 258 226 210 172 165 162 148 142 142 139 136 137 133 127 129 157 183 192 141 170 136 137 137 134 133 135 130 133 121 111
232 242 291 376 368 380 387 356 340 337 276 274 286 300 269 253 250 221 215 175 162 159 153 140 145 140 140 138 136 128 130 134 166 180 183 205 215 137 138 143 139 146 134 141 142
238 258 367 346 344 352 346 361 322 324 283 270 260 284 316 258 256 246 226 214 192 163 153 152 147 147 145 138 142 140 132 131 124 153 171 182 157 149 138 140 148 133 134 138 141
247 372 339 331 325 326 333 302 306 315 307 250 256 261 277 309 246 247 246 227 215 212 166 166 158 156 148 146 142 148 143 140 135 126 147 163 176 184 152 159 145 180 138 147 110
300 356 328 314 310 312 311 290 293 305 298 259 259 266 259 268 293 259 243 245 222 224 194 193 169 166 160 136 152 138 146 145 142 105 129 130 153 172 184 182 167 193 143 146 139
264 349 315 302 297 296 302 286 282 301 298 273 266 282 258 254 262 300 289 232 241 232 219 212 186 168 171 167 165 140 144 143 143 147 136 122 122 145 165 173 165 171 92 127 121
351 358 308 283 287 283 287 298 269 286 290 272 259 258 270 262 256 260 293 288 231 244 237 247 224 204 177 168 166 171 166 154 146 143 145 143 136 132 140 160 165 163 152 176 113
331 349 306 289 275 282 275 276 286 273 278 289 264 254 254 266 264 248 254 289 280 250 230 231 258 217 229 206 203 176 166 171 158 160 148 149 145 138 130 136 156 161 158 162 178
336 349 320 294 285 275 272 273 276 280 280 279 285 264 250 249 260 263 243 256 278 277 274 232 235 253 232 216 229 205 186 171 159 167 159 154 89 152 136 131 135 146 162 162 146
318 325 311 309 277 272 271 269 264 264 267 277 277 276 279 261 242 251 263 255 261 264 279 270 258 223 241 262 250 219 238 202 176 164 160 163 155 149 145 136 135 133 139 146 167
320 315 308 286 286 279 268 265 265 264 263 268 269 277 279 268 264 294 242 252 258 262 264 281 279 269 222 232 260 262 215 224 242 200 177 163 125 158 150 143 139 117 134 139 143
316 312 299 303 277 274 273 268 273 267 263 264 268 264 271 273 277 283 286 290 296 258 260 266 265 299 275 259 237 235 268 261 222 235 244 193 180 167 107 153 143 144 141 135 122

GFSSW_2pvu_pres_069.txt.gz
Presure
165 158 114 114 133 138 142 147 142 135 141 134 148 161 174 188 197 120 127 138 132 130 141 113 126 114 127 127 122 121 151 142 120 136 142 126 130 119 127 119 150 120 146 146 136
129 136 140 122 115 126 123 138 147 145 137 155 135 152 173 173 187 182 164 133 134 130 133 140 117 123 116 125 127 118 148 127 115 139 135 138 128 150 130 138 134 133 139 138 153
145 140 136 140 140 125 117 117 115 153 151 142 144 136 154 177 190 221 126 157 161 139 128 139 117 127 118 121 123 113 139 148 121 131 147 111 123 137 129 120 132 143 131 151 149
240 149 224 141 123 151 126 128 119 118 143 156 149 146 141 161 175 203 234 137 138 147 120 128 127 136 112 124 126 136 136 147 141 157 145 136 144 122 142 124 140 120 147 142 142
144 144 171 203 176 135 170 213 127 126 120 121 143 145 147 144 164 174 214 236 185 133 149 142 115 139 129 130 123 131 139 131 144 153 151 123 134 116 123 139 123 138 133 131 149
211 204 216 211 225 144 143 137 150 186 129 120 121 120 149 151 144 166 184 225 194 180 136 155 146 88 120 127 128 128 135 147 147 142 134 111 115 128 115 152 126 125 141 145 134
216 228 224 214 216 213 236 228 238 206 199 134 119 125 122 150 152 150 167 198 227 193 171 165 125 147 146 124 139 121 132 128 135 139 133 137 124 139 153 135 123 126 130 140 144
201 193 207 213 220 221 213 208 227 235 238 219 192 134 128 126 122 151 154 168 209 229 187 172 131 138 89 136 133 142 140 124 141 147 130 145 155 145 149 150 130 142 136 146 141
220 213 202 206 211 218 216 247 233 212 224 235 192 160 134 130 127 122 152 152 169 218 209 173 124 130 126 137 128 145 140 117 122 142 129 120 120 149 151 125 131 129 127 137 141
213 197 189 199 171 184 205 203 245 250 230 228 234 260 181 137 135 129 123 158 155 173 214 208 177 178 157 140 154 141 133 140 143 134 139 130 114 142 147 122 135 122 118 125 146
236 249 202 194 206 197 230 216 212 218 259 245 246 247 265 254 137 133 130 124 143 156 174 214 148 184 143 152 151 136 132 138 130 131 137 138 134 142 131 117 146 147 137 119 133
210 226 210 182 211 236 234 246 212 216 203 199 222 246 254 260 178 146 133 132 125 141 156 178 211 179 184 133 136 140 133 129 131 132 130 134 132 133 136 147 133 144 136 133 123
265 265 257 270 219 255 252 235 215 181 244 248 253 249 235 240 259 243 138 135 133 124 142 154 183 215 231 150 159 153 141 140 140 134 132 132 129 137 140 132 140 104 138 137 117
261 250 246 249 238 254 244 247 241 243 245 220 242 252 256 255 239 256 215 145 137 135 123 136 155 173 211 231 175 144 150 141 155 143 140 132 132 135 132 140 101 134 139 141 131
233 231 230 230 238 231 234 240 238 242 240 233 211 231 217 245 249 211 251 204 148 146 140 126 127 156 169 205 147 204 146 140 149 138 137 141 130 141 132 135 140 135 139 126 140
226 228 234 234 235 236 253 243 242 243 232 232 237 241 240 248 238 254 188 282 196 147 145 139 131 124 149 171 196 181 156 149 147 139 141 136 141 137 130 139 143 143 138 150 145
232 246 294 309 336 356 340 328 385 313 271 252 256 255 256 260 271 267 275 301 285 174 149 149 139 139 131 123 168 179 176 153 190 149 142 142 156 139 153 139 131 137 138 124 131
249 323 305 389 373 356 347 345 352 365 378 415 410 389 379 361 344 333 319 316 286 235 168 153 148 127 132 136 125 160 171 196 168 141 150 145 146 146 151 140 147 104 127 139 139
319 386 365 359 334 330 320 323 328 339 392 378 370 355 346 338 324 313 304 300 287 299 209 168 153 149 141 128 136 130 119 163 183 202 144 155 170 152 154 144 137 135 152 133 133
388 361 346 345 315 304 307 313 314 340 335 322 321 322 315 313 307 293 288 276 275 312 296 183 168 146 150 146 142 137 134 130 153 166 183 196 149 180 149 151 144 153 160 147 155
370 346 353 322 301 290 294 301 317 302 301 311 303 302 301 299 290 275 269 264 271 296 286 241 185 174 159 149 148 136 139 137 136 159 162 166 173 175 158 153 199 147 156 154 148
360 372 352 316 288 278 281 296 300 279 282 280 304 305 289 289 277 269 259 261 273 289 277 272 206 182 181 162 152 147 136 134 138 133 153 161 90 165 172 182 180 144 147 223 156
293 352 348 305 287 282 276 276 285 269 270 287 287 281 294 287 272 262 260 262 267 283 284 273 268 204 191 180 166 156 148 141 131 132 102 134 132 134 128 145 171 175 184 188 198
298 344 347 307 292 278 279 270 272 273 265 278 283 286 293 279 266 250 260 256 266 272 281 273 260 251 202 200 183 175 158 153 141 139 115 134 116 138 138 140 130 132 158 176 186
354 319 323 325 300 284 279 276 269 265 263 269 280 276 278 285 263 243 253 252 255 268 275 277 262 254 238 199 201 191 178 175 149 145 141 138 127 111 139 140 141 136 131 132 165
354 330 307 329 308 302 280 275 278 271 265 262 267 274 269 271 274 247 250 241 243 253 264 287 296 257 251 229 199 198 198 191 178 172 156 141 142 141 138 122 144 142 140 135 134
284 262 319 298 319 315 306 288 280 276 271 268 261 267 271 265 267 265 252 244 242 245 252 261 284 295 257 251 220 204 198 208 197 191 178 162 150 141 144 112 141 146 145 142 135

GFSSW_2pvu_pres_072.txt.gz
Presure
115 121 131 161 124 117 127 139 143 141 161 133 138 146 150 164 166 163 156 126 131 114 117 119 118 120 122 126 131 127 124 125 145 124 123 133 130 125 125 140 141 148 154 139 137
128 125 172 124 143 155 114 116 133 144 144 151 139 141 152 153 174 186 181 160 138 129 143 117 120 120 119 126 130 124 122 133 147 146 133 131 133 137 134 128 131 151 144 150 130
211 135 226 123 124 126 142 122 117 113 136 143 143 144 141 153 170 177 187 129 120 139 126 139 138 113 118 125 114 126 130 119 135 153 131 131 144 129 134 124 139 133 145 135 162
217 153 148 153 139 218 138 137 141 117 114 120 141 144 146 144 158 178 180 237 225 141 135 126 139 140 123 128 124 119 131 124 142 155 117 140 137 124 122 127 145 144 142 137 124
207 169 186 220 233 248 231 141 131 146 123 115 117 149 144 151 146 166 139 199 135 188 129 124 130 139 123 124 132 123 125 129 110 152 155 123 130 130 139 124 136 144 127 144 147
198 202 212 240 229 170 198 242 191 132 144 179 117 120 153 144 149 149 172 179 198 131 142 133 132 125 132 125 122 129 131 107 122 143 139 143 138 137 122 131 131 139 146 141 139
200 226 224 215 221 234 208 222 145 156 139 148 184 120 121 152 154 152 152 181 196 213 131 157 142 138 127 117 123 147 127 113 133 139 143 134 127 136 142 122 129 134 148 141 146
225 219 206 190 210 231 231 232 215 228 177 143 137 223 124 122 123 158 154 157 178 215 239 134 141 141 134 124 121 143 131 120 134 140 146 148 119 116 115 136 133 143 131 134 132
247 239 227 196 201 202 199 209 227 225 225 240 188 138 181 144 124 124 147 152 157 177 222 237 181 145 119 127 126 139 145 144 130 135 105 116 129 156 154 142 132 125 148 146 138
248 248 230 210 210 222 206 222 206 201 226 239 222 240 238 199 150 127 125 145 152 156 176 221 199 119 128 135 122 127 123 136 132 133 133 135 135 149 159 145 140 142 133 146 135
206 224 238 209 235 212 201 217 202 192 192 192 233 241 237 239 216 148 128 127 144 160 154 180 224 199 145 176 101 123 133 135 134 135 110 140 146 118 149 160 150 133 125 121 121
254 241 222 261 206 220 216 217 194 194 204 203 207 213 241 228 238 175 162 134 127 152 162 161 191 228 197 153 145 151 145 140 126 135 136 136 120 142 139 144 126 124 119 124 120
266 231 264 234 254 208 212 233 199 202 193 202 216 217 222 230 232 190 135 148 135 127 155 146 168 203 232 195 163 141 138 137 137 129 132 135 146 143 136 131 138 123 137 129 139
257 255 253 245 247 257 257 253 212 216 207 218 210 237 214 187 235 238 228 213 143 138 129 148 148 167 207 227 194 148 137 137 136 139 128 140 149 146 145 143 116 130 147 145 129
242 240 241 243 240 245 244 246 254 258 211 225 212 205 241 222 199 262 243 238 218 150 140 129 143 151 168 209 208 196 182 164 155 143 132 126 152 144 146 137 144 142 137 138 136
240 238 267 279 266 263 252 247 247 245 231 245 244 235 247 240 197 235 190 254 250 220 143 138 128 138 154 173 168 151 194 181 153 150 140 136 139 138 140 144 140 136 142 130 134
234 261 328 383 403 406 395 351 281 252 245 243 247 250 249 250 241 249 249 264 253 249 235 142 140 132 134 156 171 174 152 195 183 145 139 142 141 146 134 138 138 139 138 135 128
245 365 391 380 368 362 352 354 354 352 293 253 245 241 247 246 252 246 250 248 258 256 257 206 148 139 123 133 149 168 176 217 198 148 140 162 163 130 139 149 140 146 129 135 140
250 392 360 362 336 326 325 324 330 342 348 365 271 250 247 246 247 250 248 248 244 245 155 247 209 149 138 128 130 148 169 183 196 154 194 178 146 153 154 134 137 150 141 133 149
247 395 377 348 320 308 305 310 319 325 336 381 377 386 378 254 250 243 239 236 222 236 238 196 252 182 151 134 133 147 146 170 178 203 163 200 151 146 149 152 149 145 138 140 131
242 383 366 327 306 293 293 298 309 327 327 355 338 348 333 357 354 277 246 246 247 249 250 245 247 276 159 150 137 138 130 156 167 176 157 219 214 150 154 151 176 144 144 155 133
243 369 352 328 294 286 283 289 299 309 295 309 305 324 316 320 329 333 332 332 323 255 250 253 259 263 299 187 146 133 141 137 131 116 129 176 162 151 155 213 154 150 148 152 150
239 288 362 317 290 277 272 281 290 289 274 284 303 306 301 302 309 312 309 311 307 301 297 292 291 298 285 214 167 136 129 127 133 138 127 164 120 179 191 163 151 149 147 156 145
240 280 336 329 310 283 269 264 276 283 266 268 277 281 286 292 299 298 301 298 292 288 281 278 272 284 269 282 227 165 147 134 136 134 149 155 146 107 157 179 200 214 172 169 178
242 236 314 343 319 299 281 269 264 273 274 268 283 281 279 282 281 285 294 292 287 280 274 270 268 263 264 289 267 210 161 153 136 139 141 141 140 142 143 146 131 179 188 193 186
236 234 268 293 296 299 314 289 275 266 267 271 267 272 277 275 282 277 279 275 271 271 268 270 260 266 274 266 284 264 207 165 149 150 135 136 134 163 144 143 141 137 130 156 177
232 231 279 291 294 295 318 288 308 282 271 271 270 268 275 272 274 284 272 268 263 261 254 253 253 265 285 272 269 270 227 207 177 158 147 141 138 135 139 145 144 143 141 138 129

GFSSW_2pvu_pres_075.txt.gz
Presure
116 154 116 121 132 114 121 139 136 140 132 165 136 142 179 166 157 138 145 122 129 117 133 118 119 125 117 125 126 126 121 150 128 129 118 125 126 140 120 136 146 153 138 132 125
141 151 147 119 117 123 132 127 119 134 142 135 144 133 143 172 164 169 153 141 134 126 127 131 119 119 124 128 127 131 112 119 149 130 119 122 129 125 136 115 141 131 152 114 116
230 151 148 137 135 125 158 129 146 114 127 145 142 155 137 145 162 161 170 155 136 134 126 133 118 120 122 118 124 131 115 118 132 151 116 129 143 134 129 136 123 141 147 137 117
208 208 171 136 146 147 136 183 127 139 115 115 139 143 156 139 143 153 167 169 149 148 130 134 137 118 123 122 126 128 131 122 130 156 128 140 136 131 124 127 140 136 131 151 135
196 213 223 217 223 217 244 193 134 126 135 116 116 126 139 152 142 140 149 168 170 165 150 128 130 139 121 119 122 117 128 113 126 129 162 141 143 131 123 135 139 126 140 146 146
227 217 213 193 182 220 192 145 152 144 201 136 125 117 119 133 144 143 144 157 177 180 173 137 132 126 132 140 135 121 135 115 123 140 158 137 141 129 134 134 126 139 136 141 120
257 235 236 223 226 206 223 214 233 238 253 217 139 133 117 118 127 147 143 144 168 184 178 128 144 135 133 130 137 111 131 130 107 137 143 127 130 130 126 131 134 139 135 149 136
265 263 239 247 222 212 194 209 226 219 236 252 200 136 136 119 122 130 149 149 150 178 180 243 147 146 137 126 136 144 142 131 133 132 142 121 129 142 125 128 132 134 144 139 146
236 262 258 267 268 239 213 217 196 232 222 220 249 175 130 151 123 124 139 148 161 155 158 195 186 148 141 127 134 136 131 130 127 125 134 141 146 127 141 122 123 123 130 132 137
232 224 242 242 252 261 250 222 195 189 209 242 218 176 196 138 146 125 124 147 155 140 167 184 235 132 162 121 117 129 137 127 115 101 133 130 136 156 115 115 136 140 129 144 139
267 272 224 219 213 253 247 251 215 199 190 215 239 230 228 239 187 151 127 122 148 149 141 173 195 236 138 148 150 137 129 122 109 125 131 133 115 107 126 124 152 182 147 141 138
276 265 254 268 217 218 242 235 246 219 214 209 197 214 227 214 164 141 165 148 125 139 150 144 180 213 228 117 156 148 143 141 132 134 146 135 134 114 144 134 141 173 143 131 133
244 268 261 251 255 259 223 238 221 213 218 222 219 212 200 211 221 195 148 212 156 127 140 152 149 148 219 212 174 135 129 143 132 140 134 135 138 138 135 124 150 168 144 120 129
221 258 247 251 243 256 255 204 217 229 211 225 215 201 211 206 220 218 227 226 192 137 129 128 152 145 184 222 221 173 112 141 143 133 134 137 143 143 136 142 143 159 137 120 129
258 238 253 244 249 249 240 258 251 259 235 214 224 215 183 211 199 202 226 226 174 211 144 131 127 152 148 179 217 77 102 153 142 147 108 141 131 141 140 135 121 155 125 130 131
226 248 246 312 425 386 381 290 254 245 259 236 222 234 222 203 184 200 202 208 228 232 211 153 132 127 153 150 177 225 216 179 170 136 144 140 148 134 136 134 146 141 133 130 148
217 253 269 407 389 389 397 407 386 257 257 251 256 217 212 207 213 190 206 211 212 226 234 210 139 132 133 154 152 173 220 203 177 171 159 154 155 150 129 141 142 142 142 131 149
222 252 357 379 356 356 357 362 365 369 248 249 251 254 251 223 217 222 224 208 227 229 245 226 217 145 134 137 153 150 174 218 194 175 164 145 134 133 142 124 135 143 147 146 144
233 256 393 355 329 328 329 326 319 344 350 265 251 246 249 253 241 213 218 215 214 214 206 251 251 204 146 134 132 143 154 174 143 226 176 164 151 141 144 148 129 150 146 143 137
237 254 278 339 317 305 305 307 318 327 329 341 349 251 245 247 249 250 230 219 209 209 244 219 220 255 209 136 134 128 139 113 175 208 222 197 173 154 151 151 129 134 139 130 145
235 250 248 339 308 295 291 303 328 317 320 328 347 392 332 242 242 248 249 244 220 227 242 247 256 261 226 197 135 134 128 149 157 173 199 195 198 111 159 150 147 145 131 141 145
237 244 246 346 307 294 284 295 302 314 316 329 341 335 364 341 249 243 242 252 247 246 239 241 218 239 153 198 212 140 134 118 152 153 171 187 210 198 185 170 156 142 113 155 134
238 245 237 294 325 299 281 276 290 294 293 310 322 310 334 316 321 265 243 242 238 247 245 245 240 238 180 260 252 217 142 140 128 150 138 169 187 152 165 198 169 154 160 136 156
237 238 228 286 349 322 289 274 273 287 285 275 292 311 312 308 298 341 332 241 233 239 237 210 240 242 247 247 196 246 193 142 134 134 131 165 141 174 189 216 222 190 188 156 146
233 238 230 283 321 305 307 291 271 271 276 269 274 281 312 296 294 315 319 307 334 314 241 239 240 239 249 246 242 241 250 156 127 139 143 158 118 173 180 182 183 169 226 208 156
231 235 228 289 313 291 327 330 298 274 269 276 267 277 278 284 286 290 312 300 306 317 289 243 239 238 236 231 226 229 238 244 204 145 96 135 120 128 96 155 171 188 169 217 225
229 225 223 288 299 295 297 312 299 306 278 271 270 263 270 279 279 286 288 291 304 294 309 307 312 296 239 236 238 242 246 246 249 208 154 142 123 157 147 154 159 135 176 190 165

GFSSW_2pvu_pres_078.txt.gz
Presure
125 126 127 125 125 141 120 121 126 132 135 128 133 138 156 166 149 142 135 132 116 130 122 124 126 115 115 106 125 114 109 130 126 132 129 129 128 138 140 127 147 138 116 120 109
120 190 131 151 132 135 126 125 118 124 127 134 132 134 140 151 167 147 145 135 133 126 117 128 121 112 111 121 123 128 114 126 136 131 130 122 126 138 114 140 129 143 112 119 126
242 127 124 128 156 129 124 124 134 155 123 136 138 137 135 134 143 161 154 145 145 133 132 123 126 131 111 125 112 98 116 119 147 119 118 127 127 125 134 135 144 131 134 108 121
206 222 181 149 148 149 229 136 124 128 162 119 127 138 140 179 132 141 160 163 129 146 124 131 125 119 129 116 124 124 109 135 115 152 127 130 127 135 133 122 131 137 145 125 113
256 243 249 242 234 217 193 177 147 127 141 156 118 127 136 140 170 131 142 169 160 148 137 135 127 132 127 119 124 129 123 130 129 123 153 135 141 129 120 135 141 141 123 144 148
183 200 264 267 240 229 213 196 138 141 143 151 151 119 120 135 149 177 130 160 170 166 152 135 133 127 136 128 124 128 112 118 132 134 124 132 136 145 136 135 140 134 139 137 144
260 243 184 264 260 240 230 208 213 225 146 136 126 143 122 131 132 143 151 139 165 164 175 164 132 139 135 132 140 119 141 114 122 127 119 158 147 127 127 127 127 143 136 145 121
216 253 287 276 258 258 233 231 221 213 228 224 194 137 158 164 127 135 140 175 135 150 158 163 162 154 145 127 137 124 111 136 127 120 122 130 152 144 123 141 132 146 140 133 146
245 291 258 247 230 255 265 226 237 206 205 213 207 163 152 171 155 120 132 140 144 132 148 155 170 163 158 148 137 134 143 133 128 126 124 131 154 120 126 118 138 127 137 134 146
247 248 287 247 241 227 258 266 233 240 202 195 217 203 149 136 182 141 122 128 141 144 133 148 163 171 167 129 144 139 117 137 143 128 124 117 125 137 150 144 115 128 125 136 130
252 237 148 279 268 263 220 251 257 265 267 202 217 190 204 157 211 146 145 124 126 143 147 135 149 169 175 177 136 146 135 131 134 138 120 120 128 120 153 128 133 137 126 127 135
256 241 196 261 267 266 275 218 215 243 262 251 201 211 199 155 168 210 142 158 124 144 150 147 142 157 179 150 144 159 141 140 123 130 130 125 133 139 138 134 116 118 136 136 137
261 247 223 202 252 258 263 267 241 217 234 252 256 198 202 216 162 218 211 142 158 123 128 149 148 143 175 175 230 184 148 141 142 106 140 99 134 137 131 116 120 129 154 140 149
240 254 223 228 244 256 257 258 266 256 217 234 250 199 206 214 212 146 235 206 143 157 125 135 153 154 143 170 185 234 134 144 134 129 108 126 125 132 140 115 139 120 158 139 128
242 251 240 234 246 250 254 247 246 253 260 221 267 244 251 210 210 214 214 144 205 152 161 124 136 152 153 146 169 101 191 157 138 148 140 138 134 145 113 136 132 125 154 138 146
221 258 232 258 272 419 429 417 304 251 245 268 266 232 246 243 206 212 215 220 169 179 168 162 127 131 153 144 128 177 213 183 144 140 141 149 140 137 135 135 124 140 148 145 158
222 255 245 260 396 383 385 395 394 351 260 248 258 264 242 215 232 207 204 208 223 203 144 201 168 126 133 155 161 146 190 179 180 158 151 144 142 140 142 135 114 181 136 140 147
227 260 253 265 363 351 358 381 387 357 344 259 256 256 251 224 237 223 218 209 202 213 217 162 150 203 133 136 157 150 148 197 208 99 172 156 157 151 140 138 164 161 227 131 154
225 254 256 264 339 328 325 323 304 290 299 354 249 253 253 219 223 245 211 208 209 206 225 233 155 196 203 138 137 134 180 148 198 132 179 182 97 141 144 137 153 130 133 145 120
223 249 254 259 326 299 301 320 292 293 309 313 341 250 251 253 255 226 241 211 216 211 210 216 218 226 185 208 139 149 142 156 147 192 224 191 147 114 144 140 141 156 133 142 145
221 238 252 250 327 307 285 294 343 318 329 339 344 324 240 255 259 258 234 231 213 209 199 206 204 211 226 234 205 135 134 157 148 150 173 209 231 185 166 148 115 149 147 136 138
245 237 249 240 312 306 298 288 299 318 336 320 334 349 344 250 249 251 248 242 215 220 186 207 206 209 201 220 228 208 138 136 137 155 149 89 185 90 178 175 147 141 129 150 146
234 235 247 233 247 321 314 282 284 291 312 312 336 321 323 415 243 242 247 252 247 207 203 230 208 211 206 206 223 233 150 157 139 137 145 154 169 184 108 88 178 173 143 132 145
224 240 242 235 281 303 327 309 275 279 284 280 300 309 310 340 345 242 237 244 246 246 242 225 203 213 218 207 222 238 223 223 164 109 111 151 118 153 182 217 216 140 165 149 120
232 240 238 236 310 242 315 335 309 274 282 278 272 292 309 324 316 301 257 242 239 241 247 237 231 202 217 218 226 217 218 242 233 191 141 151 122 160 161 175 193 227 222 169 158
231 239 234 231 300 263 292 306 313 310 274 279 272 277 292 284 300 313 304 336 248 238 238 241 241 240 234 206 205 202 213 209 238 256 208 209 144 118 137 149 181 185 205 230 195
228 230 232 228 269 299 297 288 289 321 313 276 274 262 277 300 284 273 304 321 312 285 238 236 236 242 241 243 215 208 204 244 240 234 190 187 161 125 115 130 156 169 175 196 204

GFSSW_2pvu_pres_084.txt.gz
Presure
116 118 124 121 122 119 118 119 126 126 136 131 132 160 151 144 140 133 130 118 119 121 124 125 125 112 104 139 130 124 129 121 119 136 132 126 142 123 144 144 134 138 128 125 132
190 113 114 143 120 125 117 121 120 146 145 136 136 128 138 153 142 140 128 128 130 124 129 125 119 113 114 117 122 137 131 133 138 132 128 124 134 133 144 135 145 111 117 118 121
189 155 117 131 131 119 211 119 129 124 132 139 138 142 129 169 147 149 141 126 138 116 118 131 123 116 111 113 116 127 113 135 123 132 132 126 130 136 131 137 142 118 152 123 122
233 207 240 203 145 137 140 140 119 125 132 130 132 137 144 129 166 137 151 142 127 134 126 125 124 127 109 112 116 119 111 115 137 128 136 123 129 128 161 132 134 143 120 136 122
239 210 227 234 242 238 225 212 137 133 138 139 130 121 133 143 128 166 142 152 149 126 136 125 122 125 125 112 113 118 116 114 122 144 122 118 123 112 129 138 134 139 137 134 137
184 214 207 222 221 270 240 207 281 147 144 145 161 129 125 128 146 134 167 157 152 148 133 133 134 119 130 123 120 106 106 140 120 120 133 135 122 130 130 121 131 138 137 146 136
206 227 213 216 274 207 271 273 302 177 258 150 133 154 135 126 136 147 137 143 142 149 154 144 127 135 125 116 129 131 111 124 121 119 113 126 156 133 131 141 131 135 136 137 143
226 187 172 224 251 290 277 269 287 199 207 267 151 135 155 133 127 138 147 146 141 156 152 154 142 126 110 130 121 130 141 113 117 114 122 133 126 155 135 131 131 127 135 134 143
200 225 215 238 219 277 284 268 315 275 285 262 242 177 143 160 144 136 119 144 143 144 144 166 153 142 125 131 132 125 133 133 115 118 122 128 130 130 166 141 127 125 136 141 137
203 194 195 172 217 267 271 266 249 289 273 268 248 238 148 149 158 138 130 136 144 165 141 168 165 158 142 134 133 139 133 133 123 116 129 125 118 134 129 142 125 133 131 138 136
189 218 172 168 195 257 266 260 257 291 262 193 257 242 208 228 149 155 153 134 147 140 156 138 155 165 159 140 139 140 136 138 136 141 121 124 129 132 133 163 124 146 133 131 127
205 200 237 232 250 253 245 255 257 263 287 261 210 248 242 224 208 161 157 159 131 152 151 177 141 149 161 178 144 136 142 139 135 112 123 123 126 128 136 128 150 137 132 132 127
193 202 203 265 243 183 259 254 245 257 274 269 248 249 242 214 223 199 161 172 162 130 136 153 171 148 149 159 172 163 140 142 126 118 125 140 122 131 103 146 113 119 119 122 122
187 191 209 256 251 251 244 258 250 241 257 274 247 178 245 239 212 220 183 155 152 176 128 152 139 156 143 145 157 158 163 123 148 141 126 120 122 118 129 127 158 155 168 130 127
203 219 207 239 240 240 248 269 253 244 198 158 278 230 247 243 239 217 217 218 159 144 182 165 132 152 156 145 162 160 183 161 158 146 140 140 116 128 123 129 105 120 145 151 116
217 215 214 259 248 238 252 258 377 437 253 233 194 281 237 251 245 233 217 223 201 180 145 142 177 134 114 153 161 172 178 182 166 136 157 152 152 131 118 137 140 120 123 130 146
208 195 217 264 245 241 272 269 427 379 395 264 263 267 262 243 249 240 219 216 220 176 188 173 167 145 140 123 150 146 154 157 162 165 160 153 151 117 132 109 111 118 124 131 120
202 221 227 249 247 250 261 293 355 357 343 273 260 262 268 223 249 249 235 226 215 215 166 188 189 156 148 134 127 152 142 148 154 156 160 164 135 128 135 117 130 116 129 142 137
201 247 252 244 242 254 249 278 327 327 328 343 265 255 259 266 229 248 243 234 217 216 212 168 184 151 159 147 150 126 144 158 152 154 155 164 106 162 159 158 132 106 144 146 119
210 253 249 245 235 251 241 265 314 315 328 315 335 257 256 259 264 253 250 237 237 224 224 218 209 190 190 166 152 152 129 120 157 148 150 163 156 140 168 164 162 132 135 140 144
242 244 241 244 237 247 240 323 312 300 296 314 321 319 249 253 256 236 240 252 246 239 126 209 174 191 190 165 161 152 143 145 144 153 153 144 158 159 160 167 148 165 133 121 139
213 255 236 226 242 236 248 338 332 304 298 298 312 318 271 248 249 256 253 230 244 253 207 207 205 212 221 203 148 184 185 141 164 127 84 152 91 86 150 170 169 168 121 155 94
267 243 243 227 238 229 244 359 270 296 302 337 296 302 314 255 245 254 253 223 227 241 209 217 220 203 202 217 188 75 198 188 148 163 126 127 152 146 156 170 161 126 138 162 150
260 245 234 235 235 228 244 322 341 309 289 320 339 298 299 301 250 246 256 254 232 228 242 245 203 223 206 207 222 230 221 157 180 170 157 145 135 152 89 136 166 121 194 178 138
239 245 230 231 225 228 320 318 323 325 293 291 294 320 369 325 293 250 241 241 252 261 229 240 241 207 219 206 206 219 224 222 173 164 213 147 146 124 157 149 152 167 96 209 176
242 243 226 230 223 224 299 240 297 338 318 281 284 309 319 318 333 301 247 244 240 253 259 223 240 240 204 203 216 204 223 220 214 222 160 155 136 161 141 126 153 150 159 219 193
246 238 232 220 221 222 268 316 304 303 323 286 281 282 290 306 311 324 316 264 244 238 251 259 224 232 240 206 196 218 217 209 226 229 233 217 141 145 148 127 128 143 87 157 206

GFSSW_2pvu_pres_087.txt.gz
Presure
152 133 134 135 120 115 123 122 123 133 132 134 129 157 150 144 133 135 124 135 117 126 121 124 116 115 118 132 132 139 121 126 142 125 130 135 125 145 133 117 119 124 142 131 119
212 202 201 146 131 122 122 121 118 120 125 124 144 137 141 150 142 132 131 122 126 117 124 124 118 118 122 120 130 141 120 117 126 137 133 127 138 135 137 136 125 117 136 117 116
213 214 227 218 191 139 113 139 122 118 121 128 138 143 126 138 149 143 140 130 119 125 121 125 128 127 123 117 123 137 125 128 133 133 135 122 123 132 140 136 145 121 149 116 118
197 205 222 232 245 134 120 120 138 131 119 121 127 151 135 128 140 151 149 142 131 120 123 131 128 126 128 117 128 116 115 125 135 132 138 134 123 143 138 138 126 113 120 129 119
250 212 222 209 208 229 214 185 156 132 123 119 127 128 156 135 154 142 155 151 140 131 130 118 130 129 120 126 118 122 115 119 131 130 128 142 124 129 140 133 136 141 139 137 119
205 210 224 226 218 244 241 228 218 216 138 206 120 124 128 137 142 134 147 159 152 135 134 117 118 132 130 122 125 118 114 118 122 124 131 124 119 125 125 133 132 137 138 135 148
212 227 209 200 197 226 252 236 226 304 160 237 172 132 126 127 133 137 140 137 158 151 140 127 125 129 124 121 128 131 119 116 110 121 138 146 136 116 127 132 133 136 139 125 126
225 204 227 222 227 235 247 258 236 307 232 319 181 231 139 156 139 125 134 142 138 155 152 126 112 135 123 126 124 136 114 119 125 120 119 126 133 138 138 126 140 133 136 137 146
240 208 226 206 166 230 238 267 251 293 285 270 278 215 157 150 149 143 126 131 144 154 149 147 130 130 139 124 126 135 131 114 111 129 126 121 119 129 154 145 134 141 132 133 136
198 195 214 216 204 208 275 256 270 203 278 268 289 261 236 219 148 152 139 128 128 141 141 155 145 142 130 116 139 134 134 129 122 110 118 121 123 126 124 133 146 144 145 133 143
172 236 204 203 219 226 248 258 262 266 265 262 332 283 213 255 249 138 156 139 131 128 137 135 149 147 145 135 132 138 134 124 134 146 117 123 126 131 129 115 132 127 125 135 127
176 209 202 214 197 213 251 261 235 181 265 261 302 267 244 212 256 199 139 157 143 126 137 137 135 151 150 153 141 133 132 135 125 115 116 139 126 125 122 130 125 149 143 134 130
198 216 203 218 215 223 243 251 142 266 142 255 262 298 247 204 256 173 163 143 153 139 137 135 150 140 150 155 153 145 137 137 136 118 132 123 112 131 129 123 142 130 159 141 136
222 207 212 206 219 249 266 247 189 250 239 247 245 287 270 238 251 246 162 161 149 156 143 135 126 148 138 151 157 149 145 142 139 136 138 124 142 126 124 133 115 114 134 146 129
186 213 227 214 275 253 249 242 235 169 257 260 246 258 290 256 256 250 231 217 158 148 157 157 140 118 151 140 161 169 155 149 144 146 135 118 134 125 126 120 134 147 136 159 151
199 211 200 288 259 254 249 242 249 251 257 254 258 172 257 255 253 246 222 229 200 180 150 157 136 135 122 172 142 174 168 161 143 141 141 130 141 117 131 122 132 142 149 143 162
214 226 211 256 250 258 238 243 249 254 302 382 266 267 257 276 252 245 241 210 222 169 188 161 150 146 150 148 166 144 146 159 166 154 148 147 141 130 126 124 130 124 120 123 121
207 239 278 264 244 253 239 254 246 277 374 371 424 263 253 256 266 246 187 234 225 220 197 158 156 150 131 154 142 126 167 143 149 168 167 162 121 145 132 125 126 130 123 123 125
222 223 281 265 243 242 245 245 252 294 330 346 364 325 266 256 268 248 240 197 218 224 214 194 183 158 146 142 172 118 150 172 142 151 156 136 161 115 145 129 133 130 130 138 144
206 229 265 250 244 241 251 237 248 323 320 330 339 356 257 252 255 225 246 243 228 87 219 213 192 192 157 148 152 169 113 147 147 143 157 158 166 173 122 146 157 150 122 109 118
250 267 262 254 239 240 245 244 315 328 316 307 319 336 257 256 253 260 227 240 241 232 165 194 211 189 194 161 157 161 164 119 127 147 162 166 169 176 165 166 161 159 116 153 110
218 277 256 247 242 244 238 242 322 325 321 306 298 313 271 252 252 255 260 226 233 240 233 79 141 90 198 196 191 172 152 157 134 124 147 148 149 170 160 161 104 167 118 146 154
221 275 254 240 234 235 233 244 254 348 323 303 305 304 318 251 241 249 259 262 232 241 238 228 209 84 186 203 198 194 166 169 146 133 113 123 110 141 151 123 171 140 128 167 166
216 268 250 243 236 237 230 291 310 338 312 289 352 307 306 315 245 238 246 255 260 230 243 237 222 212 216 212 208 160 184 192 171 152 149 117 124 107 144 147 151 154 131 163 118
200 253 258 236 231 229 239 326 311 344 305 288 313 332 301 301 301 246 239 248 253 258 237 240 229 209 213 212 213 215 186 167 189 178 156 119 136 132 117 95 149 150 112 161 160
223 251 240 230 227 225 251 256 309 327 320 284 289 291 328 305 294 273 244 244 248 255 223 242 237 227 222 211 202 214 220 229 169 187 186 150 137 134 135 125 142 147 102 154 159
246 258 237 228 219 223 233 320 264 296 327 294 278 290 286 342 325 310 262 244 244 249 258 229 240 235 227 229 208 213 215 215 144 175 161 190 181 150 141 154 83 131 141 94 151

GFSSW_2pvu_pres_093.txt.gz
Presure
242 221 215 206 206 182 128 137 117 123 128 147 158 154 145 133 125 118 129 130 124 124 125 136 140 147 124 129 140 128 126 136 140 118 140 137 126 143 149 152 131 127 120 126 127
197 226 234 248 238 216 148 135 126 130 120 129 146 151 158 143 130 130 116 132 125 128 120 127 148 138 146 134 139 135 107 137 148 122 126 151 151 144 149 124 111 146 132 144 122
178 191 214 226 229 240 223 138 135 139 128 117 118 127 134 163 144 136 133 123 132 123 128 126 126 144 141 157 139 141 151 128 146 134 126 130 137 140 148 130 148 123 135 122 118
170 205 194 195 196 235 230 237 213 140 147 119 125 127 123 135 157 148 137 133 119 133 127 131 125 126 125 122 141 136 145 133 140 143 140 145 134 127 136 145 146 147 123 130 123
173 192 211 200 208 236 226 230 232 240 118 142 118 119 120 128 133 139 149 138 131 126 119 125 126 129 121 124 136 135 142 126 128 138 140 140 144 132 150 143 140 120 114 148 108
206 199 202 234 201 226 224 228 230 238 233 242 123 124 117 122 122 134 140 149 134 134 120 119 125 126 132 124 122 142 147 140 135 143 141 138 126 129 131 152 147 139 120 135 103
190 206 227 213 215 226 219 236 224 243 245 241 240 118 125 119 123 123 137 140 145 135 134 126 136 131 127 131 125 118 127 138 126 133 134 151 127 131 132 130 135 140 117 98 156
185 191 202 219 181 222 217 220 233 215 238 232 248 247 123 123 124 122 125 130 142 143 137 136 130 134 125 132 129 122 121 140 124 128 137 140 143 128 129 133 137 150 140 144 138
184 190 191 205 237 211 214 212 226 215 228 231 226 235 267 124 124 121 120 128 150 144 142 135 136 130 123 133 129 133 129 122 128 127 127 136 151 141 151 131 138 129 131 135 149
176 191 188 210 248 234 227 245 215 235 222 229 230 240 244 275 166 128 123 120 142 141 149 142 137 137 130 124 131 132 127 116 123 130 126 121 132 132 115 145 148 157 145 132 136
174 189 205 200 232 222 236 299 254 210 221 250 211 220 250 282 276 233 127 122 122 150 134 148 141 141 142 135 129 127 132 122 124 120 130 119 123 138 134 118 132 129 151 140 138
174 177 196 216 234 225 239 353 282 256 221 222 239 239 249 280 263 231 227 129 136 162 126 138 151 143 143 142 137 129 121 124 132 118 101 121 131 168 132 125 132 127 130 160 140
182 190 196 214 227 244 352 332 310 308 226 211 250 246 236 270 264 270 207 188 133 151 154 134 147 156 145 143 133 134 135 127 138 124 127 123 126 124 131 133 140 128 126 127 145
181 177 184 215 220 236 316 298 282 278 273 249 252 248 247 261 264 272 291 212 153 140 135 127 122 146 156 148 143 135 136 134 134 128 125 132 119 131 139 125 127 115 126 130 142
179 177 183 208 224 332 298 279 260 259 255 251 244 240 253 259 271 268 283 276 189 139 140 149 130 124 146 143 154 146 143 130 138 124 117 125 115 113 119 122 123 119 128 129 135
183 193 182 203 228 308 294 266 256 252 247 244 242 211 213 203 261 260 271 287 243 162 148 137 151 141 123 143 154 152 143 145 137 138 137 124 113 137 133 125 128 123 127 126 137
170 184 184 193 225 298 280 274 247 243 245 248 244 243 238 240 258 260 261 264 276 240 164 153 137 140 126 157 143 150 137 142 143 146 144 124 138 148 142 129 129 137 131 128 131
187 186 172 205 248 280 280 263 249 245 245 238 235 234 232 235 240 263 263 256 294 260 223 173 154 142 149 131 146 126 154 135 140 141 145 146 144 139 126 132 118 123 127 125 110
181 194 182 200 249 283 271 256 253 242 240 234 227 234 240 245 235 242 260 253 292 264 250 220 171 156 150 138 134 131 126 147 140 136 152 149 148 148 147 143 134 124 131 128 132
181 185 199 205 254 288 264 252 249 247 243 240 250 249 252 250 213 252 260 254 267 266 256 227 217 174 155 152 145 139 104 130 141 144 137 144 149 152 150 150 147 136 143 120 136
180 172 200 208 247 272 252 248 239 232 240 294 292 239 260 259 247 249 262 260 254 284 256 230 215 221 171 156 147 149 131 126 145 138 147 141 140 145 154 154 155 152 127 131 123
182 177 199 210 290 274 257 248 234 236 303 261 342 340 331 342 375 380 263 262 251 282 256 251 223 245 222 176 155 86 143 129 134 124 124 139 141 141 135 142 150 155 157 149 129
186 174 201 196 250 277 253 242 241 247 297 338 350 319 301 318 355 354 277 258 251 263 274 252 249 207 245 230 174 156 142 150 134 132 120 120 165 140 143 140 143 147 151 155 155
186 182 200 191 285 255 252 237 241 268 335 350 342 311 296 305 323 330 349 254 252 243 268 255 249 210 211 224 188 181 150 140 119 155 133 133 139 141 164 155 145 141 140 149 159
190 189 205 190 275 254 247 235 237 297 330 338 320 308 290 286 295 304 330 255 246 243 259 250 254 248 234 247 222 176 176 148 140 146 155 154 137 142 136 142 160 162 143 141 142
190 196 204 212 271 250 245 233 238 296 322 331 307 290 345 296 298 299 309 313 248 245 242 262 258 253 248 242 249 221 221 186 154 143 143 151 155 134 137 145 135 143 164 164 161
183 194 204 195 244 251 243 231 237 294 321 330 304 286 310 307 293 301 305 312 251 247 242 246 258 254 253 237 207 246 218 223 205 159 144 143 146 154 154 144 154 136 131 151 170

GFSSW_2pvu_pres_096.txt.gz
Presure
201 205 222 231 209 190 172 131 124 133 123 125 160 148 145 130 126 134 133 125 139 115 126 146 135 134 150 133 139 132 116 145 139 128 141 139 116 140 146 149 120 125 122 124 120
194 199 191 212 221 233 227 206 162 136 125 121 125 141 151 144 132 129 125 129 124 125 119 136 130 138 132 130 139 140 126 134 132 139 130 148 152 141 117 137 127 118 119 121 123
182 186 180 212 206 218 227 236 247 142 138 119 123 126 136 153 143 136 132 137 125 128 125 129 140 146 126 126 131 135 129 137 129 146 125 139 135 146 111 134 147 116 121 117 147
179 192 211 168 230 238 240 237 254 237 140 134 124 121 128 136 154 144 136 132 139 134 127 129 124 164 144 150 138 137 114 137 136 120 130 140 129 138 140 144 148 111 119 119 119
183 184 193 202 200 225 222 233 232 243 237 142 120 126 122 118 133 148 145 136 132 130 134 134 127 126 129 129 147 142 137 156 133 148 137 147 138 140 137 125 143 146 129 137 109
173 178 177 195 205 219 237 223 228 240 232 230 138 123 128 128 121 133 151 145 137 134 125 132 126 128 132 127 143 143 123 128 136 132 143 134 138 141 144 133 137 113 149 112 150
168 163 184 184 200 230 204 245 225 220 240 250 232 249 124 126 127 122 134 139 145 138 135 125 132 133 130 124 124 134 142 137 125 135 142 129 124 131 128 130 133 150 149 150 135
163 176 181 184 177 192 230 224 251 231 228 231 248 238 178 127 125 124 124 133 140 144 137 135 129 133 136 131 120 115 134 143 127 132 140 121 130 130 130 127 136 140 97 102 140
166 171 167 168 184 198 184 225 235 241 236 236 230 251 243 199 122 124 124 125 140 146 144 139 139 132 136 129 133 124 117 147 145 136 144 139 146 125 133 120 138 138 132 147 141
158 168 166 190 181 199 192 228 256 260 301 247 232 233 240 246 240 119 123 126 126 130 151 145 141 144 138 139 120 132 123 124 149 128 135 140 136 131 139 152 128 132 134 134 149
173 163 161 165 188 195 197 233 261 381 363 249 243 240 238 240 244 250 123 124 127 128 138 149 148 142 144 138 139 132 132 127 126 138 126 125 137 150 125 133 157 133 139 140 145
165 173 180 198 175 212 191 256 286 337 342 278 307 281 224 238 247 236 237 125 127 126 131 139 144 150 144 143 138 136 126 133 129 120 141 127 143 134 145 136 132 122 146 148 139
165 170 178 191 177 198 210 261 323 310 302 315 315 283 242 220 234 245 249 263 125 129 127 130 157 137 151 147 142 137 131 131 131 124 128 124 121 117 137 130 131 131 124 133 158
171 163 182 177 187 197 215 266 319 293 290 286 297 295 238 220 245 238 238 250 215 127 131 131 127 157 137 154 148 143 136 126 138 133 119 126 123 124 129 141 127 127 132 133 127
173 173 184 176 196 204 211 278 294 276 271 270 265 250 236 222 220 231 248 244 275 163 131 126 137 128 147 153 157 143 135 138 125 125 140 107 129 118 125 129 127 130 124 129 132
175 178 171 191 188 196 210 312 282 263 256 263 253 255 232 215 199 242 228 241 266 237 161 133 152 131 135 151 155 151 147 144 141 136 132 139 125 127 114 116 131 125 129 122 124
174 175 172 191 186 198 216 302 279 257 256 248 252 248 244 247 211 245 247 244 228 264 213 150 135 150 136 129 152 143 146 142 142 137 138 129 138 117 137 125 123 124 132 121 122
174 165 173 192 190 189 251 299 271 257 240 241 242 241 247 243 247 250 244 252 262 263 244 214 149 135 156 144 146 130 149 140 141 141 137 129 142 132 122 116 122 126 127 128 131
174 167 181 188 196 220 245 293 258 260 249 242 241 237 237 239 233 216 249 255 268 261 270 211 182 152 142 162 136 133 141 101 132 143 148 145 137 104 100 138 119 124 133 119 135
175 171 186 187 182 214 236 297 258 249 245 247 242 244 235 233 239 237 241 248 261 257 273 221 185 181 151 145 151 153 155 132 149 149 147 148 145 103 152 149 133 129 123 126 129
175 170 194 190 174 207 297 284 262 254 226 241 229 231 242 246 235 236 234 243 254 261 264 308 207 216 171 146 150 159 130 152 135 143 147 152 145 149 147 128 147 134 134 125 124
178 174 200 188 183 203 284 268 262 245 244 229 250 301 366 249 253 239 240 244 240 258 261 262 276 204 217 151 153 140 130 130 140 132 135 136 152 153 140 148 158 155 148 127 131
175 180 203 174 174 211 263 263 261 243 251 253 362 354 298 345 305 262 260 259 255 247 262 258 297 270 205 223 150 157 135 144 129 130 147 130 155 150 157 144 148 152 158 157 151
173 182 204 204 181 219 239 269 260 244 241 312 351 351 326 317 325 325 242 240 254 257 259 260 258 280 250 205 200 151 151 141 143 134 136 136 131 147 141 148 152 149 148 156 157
189 189 192 214 205 219 237 270 252 239 244 353 332 324 312 301 304 322 338 265 247 247 254 259 255 287 262 251 206 211 157 151 150 146 88 142 139 155 132 114 152 154 152 143 146
186 191 193 200 205 224 268 271 247 238 241 348 314 315 303 299 299 316 323 336 326 247 239 255 254 260 279 257 243 214 222 164 151 140 143 148 142 164 141 130 94 155 143 148 148
193 197 194 190 209 222 210 247 247 241 235 347 311 292 290 297 292 295 289 295 296 301 258 249 253 254 220 168 203 224 216 223 169 150 144 151 146 145 143 169 138 134 137 142 157

GFSSW_2pvu_pres_102.txt.gz
Presure
197 196 202 198 198 228 237 232 148 121 123 146 127 140 151 143 130 147 123 125 134 139 147 152 117 150 126 115 112 107 146 135 124 157 141 125 136 128 119 139 122 126 136 139 167
187 195 187 213 202 200 234 205 246 181 120 121 136 127 130 153 143 132 139 126 137 145 130 134 140 109 134 129 133 127 106 150 146 122 122 136 140 139 129 126 142 123 119 132 153
179 179 192 198 194 205 205 217 224 251 151 125 117 134 126 128 149 144 132 158 128 133 129 146 139 143 146 122 133 121 132 129 133 136 146 123 126 147 150 127 145 134 129 149 154
173 179 180 175 187 186 206 200 205 216 228 206 217 126 127 127 127 133 142 134 143 133 130 142 154 130 142 140 131 133 118 149 138 143 126 132 140 145 147 122 138 149 130 111 145
164 171 174 164 175 177 186 199 184 195 212 216 221 167 131 128 138 129 158 142 134 133 132 135 140 148 132 155 122 136 139 126 122 145 116 147 142 137 146 144 122 146 134 142 146
167 161 165 170 161 162 172 182 187 192 199 197 211 223 213 128 146 141 133 153 140 135 134 136 121 160 142 148 132 131 138 140 130 133 138 129 133 131 137 137 141 137 140 140 141
164 166 160 166 153 155 173 174 187 191 181 201 219 204 217 126 120 127 130 143 147 140 134 133 143 139 132 140 138 133 135 127 133 132 136 131 138 112 136 113 118 139 121 120 137
155 161 164 162 162 155 158 170 174 185 185 203 199 201 200 240 256 133 128 151 158 148 140 137 130 128 136 148 132 126 119 119 128 137 118 117 147 139 143 128 140 145 118 112 138
158 159 155 182 162 158 166 173 173 184 194 182 206 219 217 228 253 156 136 133 130 145 149 141 132 133 128 135 138 138 139 127 132 134 122 146 143 147 122 130 134 131 137 134 139
169 168 157 149 156 165 168 175 173 181 190 192 212 226 413 412 374 260 141 126 134 150 157 149 139 129 134 136 136 126 149 133 132 210 134 131 141 130 135 126 134 134 126 136 126
170 169 162 157 167 165 163 173 171 183 188 202 212 229 348 365 372 190 271 139 132 129 142 157 144 137 127 132 132 144 145 162 155 129 132 131 142 127 132 121 136 131 141 122 133
157 172 172 172 161 164 168 190 174 180 190 207 217 301 302 321 365 290 270 261 130 134 128 145 152 140 135 137 128 121 135 141 153 131 133 130 141 143 123 133 126 136 132 143 135
164 152 160 161 161 165 164 182 175 178 197 214 226 313 284 299 354 303 264 257 180 137 131 143 143 155 140 130 136 135 127 123 177 153 147 139 130 142 134 156 133 137 136 133 139
171 149 155 152 153 163 164 219 181 181 206 206 301 292 274 301 335 319 268 252 250 144 138 125 137 151 151 135 126 135 130 126 143 140 144 135 155 143 162 154 125 142 127 137 146
144 154 155 166 154 163 166 192 180 187 195 259 243 269 269 278 320 306 268 246 248 251 139 144 126 125 149 145 138 120 112 135 152 154 137 142 151 172 174 161 165 173 146 148 144
154 154 163 161 199 201 212 183 181 180 193 246 311 273 254 263 300 299 262 247 247 250 253 139 124 128 128 151 145 134 120 135 140 166 155 144 156 163 183 130 144 124 152 150 159
153 174 185 230 203 216 182 182 180 175 196 240 240 284 251 253 282 291 253 242 237 241 246 147 134 116 122 134 146 140 125 121 132 137 125 157 144 152 124 130 141 136 133 125 128
192 214 248 167 204 179 171 170 173 216 239 230 235 272 250 249 260 294 247 240 234 233 240 257 141 132 125 128 126 128 133 133 145 132 139 126 163 133 129 129 131 128 128 126 126
244 247 229 189 167 164 171 167 197 224 230 228 230 274 255 238 249 269 232 230 227 223 230 249 185 144 138 127 130 119 139 140 147 143 145 164 118 126 138 123 126 121 124 148 129
237 196 172 171 168 168 169 164 220 221 230 224 274 261 260 245 236 254 255 227 229 218 229 239 245 148 153 136 108 142 126 130 148 147 152 145 131 133 132 135 118 123 116 130 121
183 170 160 165 171 163 180 210 225 221 223 218 282 258 256 245 236 238 258 249 279 236 227 229 238 244 146 142 133 128 125 139 149 137 150 148 137 134 138 132 138 126 108 120 127
172 165 169 170 167 203 203 217 212 220 215 208 272 263 254 246 246 236 239 250 249 246 224 233 232 237 207 149 147 140 128 126 126 131 133 146 150 141 136 133 140 134 136 133 129
175 161 169 179 190 196 216 207 210 213 219 245 274 259 235 231 249 250 237 242 248 245 254 227 227 232 225 209 156 136 141 136 131 119 128 145 158 146 93 133 154 145 129 129 132
161 171 185 193 204 213 208 198 206 206 228 261 266 251 315 331 250 255 256 240 245 245 249 223 226 223 230 235 213 152 149 141 141 129 140 128 139 137 138 139 150 149 131 124 141
178 185 190 198 216 216 190 205 210 216 203 277 262 251 387 317 329 282 248 257 245 255 246 247 221 221 238 232 231 203 159 153 146 137 138 133 124 131 155 158 147 153 145 151 130
186 190 202 208 213 188 194 196 208 211 228 271 264 252 351 375 288 369 299 245 245 246 254 246 237 214 229 234 230 225 176 169 152 148 154 156 134 126 122 131 136 136 136 112 143
194 202 206 188 203 195 197 197 201 216 222 238 262 253 322 322 306 256 290 264 265 314 251 247 250 220 219 222 228 227 254 214 171 159 149 148 137 149 96 127 125 119 156 111 155

GFSSW_2pvu_pres_105.txt.gz
Presure
188 192 194 204 203 207 205 225 258 161 214 125 119 126 142 158 135 132 156 126 140 141 148 133 134 124 123 129 135 120 137 149 134 152 141 126 127 128 118 140 125 128 156 162 190
189 196 186 180 199 197 191 197 221 245 249 181 122 124 125 149 154 124 149 143 126 126 150 147 146 130 133 127 121 122 132 140 138 130 122 135 122 139 129 140 144 125 126 143 170
172 171 179 183 193 182 199 206 212 215 207 253 132 125 139 126 132 153 126 160 126 129 141 160 143 131 134 133 133 120 138 132 133 151 118 167 119 142 153 140 143 118 145 150 129
180 174 170 173 165 177 188 190 198 196 205 215 206 127 126 134 132 156 153 130 129 126 149 145 144 121 112 132 133 121 113 136 141 153 121 146 141 143 145 124 117 122 135 149 145
169 176 164 170 158 166 167 172 161 194 180 198 213 214 131 127 137 129 144 150 131 141 132 142 127 144 142 136 128 136 129 137 138 121 136 136 133 129 146 138 142 101 128 118 143
166 160 164 166 164 159 172 159 174 176 189 194 193 195 210 218 133 146 127 157 145 129 131 134 136 135 138 136 126 136 120 116 119 141 144 121 136 138 127 121 137 141 136 147 136
170 160 157 159 163 164 161 148 153 168 162 183 187 198 207 219 220 134 141 125 160 143 131 132 124 146 152 138 142 125 133 122 124 105 130 136 128 144 124 137 133 139 136 117 142
163 166 167 175 176 176 165 149 166 165 170 166 187 191 195 194 195 211 134 135 132 154 142 158 131 123 147 131 146 143 123 112 123 121 136 130 130 136 134 141 135 140 120 146 142
158 158 161 162 169 173 165 154 165 157 174 174 184 190 181 198 195 213 222 149 130 135 148 137 133 133 130 144 134 138 154 126 129 118 121 126 131 131 148 138 142 145 126 143 140
153 157 163 164 175 162 154 165 172 172 173 175 194 191 198 203 203 220 223 143 144 126 162 150 138 131 142 117 143 153 142 142 140 120 140 154 137 137 148 131 127 136 141 131 131
152 151 162 162 164 153 170 161 162 169 170 171 200 199 203 203 236 328 397 377 142 141 127 161 149 134 128 139 124 139 126 137 122 145 134 130 135 124 149 145 133 131 132 137 128
152 165 162 174 173 155 153 163 163 162 172 215 217 216 214 213 294 320 349 381 304 137 139 132 154 143 138 131 122 139 140 123 124 131 121 145 133 156 142 143 136 130 139 139 134
143 166 181 152 156 154 155 156 158 205 228 222 222 185 197 304 310 287 317 370 293 258 141 125 168 157 146 136 125 127 140 143 128 128 112 137 143 132 141 131 134 135 132 135 141
173 190 157 162 158 157 157 204 237 229 172 211 182 194 256 320 282 279 345 358 300 257 268 131 131 144 150 140 134 129 133 143 148 126 127 131 132 141 141 146 138 127 133 132 134
156 154 147 151 148 179 209 245 214 164 197 185 184 208 297 235 276 276 331 348 295 259 260 146 130 128 157 146 136 137 133 152 158 129 135 142 170 157 130 144 132 136 139 137 132
151 144 145 151 203 211 235 209 198 172 187 170 193 266 323 295 260 269 330 333 268 260 251 238 139 133 145 157 142 138 132 127 111 125 135 150 140 157 158 145 137 126 127 139 126
145 152 225 244 255 214 205 177 178 178 177 179 230 251 314 289 251 268 317 307 260 253 242 244 187 125 132 156 150 143 138 137 128 134 171 140 138 173 173 152 151 141 132 154 141
141 249 261 222 207 188 172 165 175 178 211 226 225 252 306 279 245 260 274 300 262 248 240 244 239 146 126 128 132 149 143 130 117 125 139 136 142 168 175 143 149 142 161 171 152
235 228 214 196 179 172 169 171 170 209 233 218 222 243 295 274 240 251 267 303 271 246 235 239 241 143 142 121 163 150 148 142 126 132 137 116 123 170 139 154 177 171 133 142 154
197 184 181 165 181 175 169 169 204 217 213 207 231 242 283 288 239 239 257 273 282 248 238 235 241 222 147 139 125 163 143 147 139 139 129 132 136 122 164 130 182 155 155 147 147
186 172 163 163 169 169 176 213 218 206 206 218 221 240 285 280 257 236 251 264 271 245 233 227 237 245 152 143 139 140 117 147 148 144 132 141 115 164 147 156 140 131 125 125 117
166 167 177 171 173 178 189 212 210 193 202 202 218 230 283 269 286 236 238 255 275 256 238 230 233 241 236 145 146 136 129 108 151 145 144 157 164 130 125 123 132 136 115 120 123
162 167 170 175 179 191 210 218 195 195 204 205 218 230 286 263 263 264 233 241 258 242 235 234 225 230 233 209 140 142 157 127 143 121 129 156 145 161 162 157 123 103 131 127 119
170 173 181 181 190 203 208 194 192 188 206 203 214 226 276 274 255 275 267 238 246 266 235 234 222 229 227 240 196 143 152 136 133 153 144 128 134 151 146 137 135 130 122 130 127
191 205 194 193 200 213 189 189 190 185 204 201 215 222 283 273 377 441 266 263 242 243 256 233 225 221 228 236 230 186 143 149 143 134 139 139 136 149 133 131 160 147 137 140 129
204 211 207 204 208 193 187 189 189 197 205 203 211 220 276 286 358 335 306 266 270 241 250 250 233 220 224 230 235 86 178 143 146 148 166 156 143 130 126 125 120 129 151 144 141
212 223 213 210 173 178 182 189 193 178 205 204 208 219 273 274 335 303 290 286 268 269 240 251 251 242 221 220 231 225 220 169 149 141 156 171 150 142 135 125 118 132 118 140 144

GFSSW_2pvu_pres_108.txt.gz
Presure
187 181 185 192 195 209 212 227 240 202 161 192 129 128 126 152 133 140 152 147 151 132 131 140 134 121 127 127 142 138 119 156 130 133 136 130 140 155 125 116 129 141 162 144 134
178 181 184 173 173 189 192 196 198 211 234 270 172 128 119 127 152 128 135 154 145 146 132 153 126 137 131 130 129 111 149 151 140 125 149 133 157 138 137 144 113 138 155 161 130
172 168 171 182 181 171 190 186 187 195 196 208 231 258 139 119 128 157 137 138 153 133 140 153 127 132 135 126 120 128 135 138 143 131 123 123 123 140 138 117 139 135 154 156 143
180 178 172 177 168 176 172 181 174 183 187 201 205 208 231 131 147 141 155 122 160 134 130 160 128 134 138 127 128 144 116 120 151 121 129 135 125 114 118 136 110 133 140 145 150
172 168 175 173 159 159 167 159 161 173 185 192 182 208 208 214 132 161 140 152 124 163 119 157 150 134 133 131 113 120 123 158 115 134 149 146 135 130 125 131 110 130 137 140 127
169 177 160 176 169 163 163 171 162 156 171 192 176 195 197 195 206 129 123 141 148 126 150 125 143 136 139 137 112 134 147 148 136 137 144 156 141 133 125 132 121 134 132 132 123
165 167 162 164 169 165 170 147 145 147 172 168 186 182 179 187 201 210 139 126 134 140 127 141 127 144 133 138 125 130 120 136 138 136 145 149 125 128 117 130 143 111 140 135 138
153 168 163 153 164 160 171 173 182 154 157 148 179 177 169 192 193 199 214 237 172 152 134 158 133 138 148 139 133 140 119 141 146 150 153 123 144 129 140 127 136 137 103 146 140
171 155 152 159 161 168 159 165 163 165 162 168 174 174 166 191 192 193 197 154 222 129 162 127 149 129 140 129 137 135 133 125 125 128 131 120 139 124 123 123 121 142 126 132 145
167 164 152 164 168 165 166 143 160 166 161 167 158 175 189 189 203 172 210 196 145 138 132 154 131 135 136 138 134 137 144 120 135 141 142 137 140 141 132 166 137 134 134 137 138
166 154 158 161 160 167 178 174 159 163 160 162 161 170 188 183 254 251 182 179 212 139 126 143 142 161 133 134 163 142 146 137 124 128 150 135 115 139 133 143 137 123 128 128 132
162 160 162 165 169 176 186 166 160 165 161 168 171 235 181 238 199 187 197 206 205 234 144 121 147 143 160 135 130 152 141 148 126 131 136 122 144 138 127 129 141 129 136 123 135
155 172 176 177 181 151 149 152 158 159 160 234 235 210 175 193 180 196 280 281 327 347 394 136 151 160 159 139 137 138 120 144 151 132 138 138 125 157 145 143 143 131 128 140 137
178 179 187 154 151 144 150 151 155 226 230 220 209 193 199 187 192 267 260 310 302 308 382 312 139 124 150 164 139 134 125 147 150 133 116 116 133 119 132 142 152 134 137 130 136
145 144 145 155 154 148 154 232 249 222 208 180 187 179 174 196 244 305 312 278 279 300 370 325 212 151 129 151 142 138 167 125 143 154 143 132 152 149 152 149 152 143 136 139 134
142 150 153 151 158 150 240 223 206 187 175 176 184 175 234 228 276 299 282 262 309 360 345 297 268 137 114 144 151 160 139 157 130 149 149 134 133 140 136 167 169 139 136 136 138
146 149 147 153 250 219 212 193 163 182 177 182 198 220 219 235 273 284 271 263 293 328 321 270 247 212 144 135 153 147 137 136 130 144 142 142 119 143 143 126 146 124 143 136 138
148 150 152 206 197 191 183 174 171 172 177 197 227 210 216 239 267 278 262 265 322 310 306 259 238 238 125 140 160 144 143 141 137 135 118 138 142 138 146 129 145 150 140 135 125
157 154 199 188 172 175 164 169 174 178 185 222 211 198 221 234 264 275 251 260 289 310 298 252 232 247 163 141 140 159 151 112 135 136 138 129 138 134 140 136 149 147 178 131 133
202 200 189 173 167 164 171 181 175 181 218 221 201 202 210 224 233 284 250 251 268 300 324 258 236 248 259 147 107 138 161 153 134 125 136 119 138 134 163 137 132 165 144 146 126
179 172 161 167 170 174 176 176 184 190 214 205 198 198 208 221 230 288 255 244 261 285 309 258 239 250 261 183 144 125 137 153 144 140 145 138 134 119 141 158 164 143 180 160 149
171 168 169 168 173 178 184 189 191 211 207 197 191 202 209 212 231 288 284 237 252 272 293 253 243 250 233 221 180 145 131 132 155 149 141 142 153 148 96 156 162 158 149 185 149
168 171 174 178 181 195 193 201 206 214 185 196 194 197 215 207 226 293 274 270 243 263 281 251 239 240 243 239 206 145 131 158 154 107 118 144 148 141 104 121 114 123 171 183 135
170 205 233 215 214 207 204 204 207 198 187 198 191 198 216 212 230 281 276 274 243 253 264 272 238 242 237 242 213 176 143 147 146 96 116 156 141 164 162 130 134 154 155 178 131
228 197 189 184 206 216 218 215 187 186 188 197 194 196 209 214 234 278 402 350 281 244 255 266 247 242 240 241 229 190 172 146 123 157 139 122 139 106 133 157 143 147 135 121 109
181 187 174 180 179 178 178 179 177 199 189 202 205 196 209 215 234 278 362 393 259 257 253 266 273 245 235 234 234 217 179 150 147 142 142 137 138 110 132 119 120 98 120 140 129
182 176 188 195 186 188 169 175 199 194 203 210 193 211 209 210 232 357 352 378 342 269 249 256 269 275 237 231 219 238 212 172 156 148 152 149 145 136 143 112 123 122 132 143 148

GFSSW_2pvu_pres_111.txt.gz
Presure
175 168 180 189 193 199 210 212 229 199 191 149 131 131 123 134 138 124 150 123 131 158 140 127 136 125 118 124 141 132 136 142 119 139 137 151 129 121 142 124 150 150 165 155 125
177 176 186 179 183 181 185 195 202 207 222 220 164 153 158 125 136 136 133 148 124 156 143 137 127 127 134 135 152 148 156 162 126 143 140 141 142 118 143 128 130 146 154 159 158
169 171 156 182 181 172 176 171 184 190 201 210 220 169 138 174 122 136 145 147 149 122 123 142 131 133 126 136 133 134 144 145 148 132 150 136 135 133 125 124 118 132 147 148 155
176 163 168 166 168 170 179 176 175 173 184 189 197 209 156 188 146 122 142 130 157 156 129 154 129 133 133 135 134 135 114 131 154 139 117 136 132 126 112 126 125 119 138 146 142
169 170 174 163 168 165 169 157 174 187 170 179 192 194 203 212 188 125 122 149 128 160 148 141 135 139 132 143 122 129 128 129 110 153 126 132 129 130 132 128 124 123 127 146 147
177 168 172 170 175 171 158 158 153 163 164 167 184 175 186 192 208 147 194 125 151 126 159 163 133 144 129 132 134 133 131 134 118 130 153 124 133 136 113 135 137 130 128 134 153
174 181 166 157 161 161 175 180 160 171 153 171 154 190 175 195 192 205 136 133 124 149 128 144 124 154 141 124 136 142 132 133 127 139 120 159 141 138 138 109 135 124 130 139 132
172 159 155 163 165 167 159 174 174 159 180 168 165 167 178 187 180 188 197 142 168 124 136 155 154 162 140 128 133 106 130 125 146 107 167 147 138 137 148 140 110 113 134 131 132
167 164 167 164 157 170 163 168 166 170 153 162 152 174 161 177 193 180 192 187 131 181 125 134 164 153 149 143 141 131 140 116 130 150 127 153 130 134 135 125 140 138 127 133 131
167 167 169 163 171 161 162 168 165 174 181 173 183 170 157 158 181 174 173 200 193 135 132 151 140 138 131 145 136 135 139 140 136 142 150 128 148 137 136 128 136 142 133 129 136
162 165 165 163 161 168 165 171 171 180 195 134 168 162 167 167 170 171 176 190 226 196 139 121 143 158 161 149 132 136 130 139 137 133 159 143 159 139 142 137 144 140 146 141 120
170 161 167 167 165 167 178 178 175 161 151 156 157 162 158 171 180 254 247 238 220 205 203 153 144 127 145 156 139 149 138 137 147 137 135 140 152 158 140 121 150 141 147 130 131
178 165 173 170 173 181 185 152 156 160 150 165 164 166 247 230 220 210 179 171 205 188 204 198 176 137 122 149 137 141 148 141 139 142 138 133 163 163 146 139 136 128 133 134 139
200 210 209 146 179 203 154 157 148 148 157 178 250 220 206 194 185 186 184 169 173 197 193 83 212 140 155 141 143 141 156 149 139 147 138 141 131 140 125 139 114 140 141 131 141
193 197 200 144 151 155 149 149 163 170 232 211 202 191 191 185 188 237 235 232 278 161 207 236 204 146 189 138 142 176 154 155 144 143 132 147 135 147 152 156 155 129 151 140 133
190 172 155 145 169 149 152 161 228 214 199 187 179 163 182 199 236 217 228 238 320 306 294 290 165 324 240 163 132 162 145 115 152 131 112 148 119 114 119 134 142 157 146 136 141
176 177 175 145 149 157 178 200 193 189 182 170 182 170 189 234 220 221 225 253 302 279 272 277 294 268 272 153 164 132 167 145 127 153 139 144 141 151 141 114 128 136 137 148 139
258 212 185 168 160 174 199 192 181 168 176 173 177 182 217 225 203 222 222 247 292 267 258 289 341 321 336 217 208 146 165 161 110 138 140 138 136 147 152 146 148 129 157 163 127
221 217 210 207 195 192 187 176 171 168 181 180 190 194 216 204 188 219 210 240 287 258 261 319 321 318 321 307 194 168 139 152 145 137 111 149 141 113 141 137 146 149 164 153 159
196 198 193 190 182 179 165 164 172 181 186 192 198 212 212 195 195 211 218 236 285 259 261 287 303 306 311 301 240 146 131 155 166 139 160 120 145 141 135 135 137 148 147 132 151
185 181 178 179 170 163 169 180 189 208 208 205 208 213 186 202 195 212 213 231 277 264 256 279 279 309 305 82 192 239 146 153 167 146 161 151 132 148 143 152 155 126 128 138 148
175 178 173 170 165 174 183 229 215 207 206 209 205 203 192 194 196 211 208 220 234 280 248 271 276 312 297 95 224 240 146 172 133 149 168 153 105 162 117 125 127 136 155 154 138
165 169 174 178 182 188 205 185 191 208 210 218 197 189 198 199 205 208 215 225 231 286 259 265 274 290 298 267 221 242 148 142 144 145 109 149 144 129 143 150 152 135 153 146 136
220 225 223 221 229 198 184 180 181 179 182 178 180 198 196 208 201 211 209 222 232 273 269 247 279 274 294 247 226 241 242 144 107 118 136 146 158 156 141 122 159 161 155 144 139
177 181 191 191 183 184 176 178 187 191 186 177 178 200 206 208 198 206 211 228 273 287 267 252 266 283 276 244 225 249 229 180 144 155 132 149 125 117 150 141 125 138 152 141 142
184 200 189 181 182 183 190 195 192 187 181 196 193 195 200 210 207 220 219 237 404 390 292 271 255 279 280 248 226 238 236 201 144 136 96 108 140 134 141 132 150 108 125 110 148
193 183 184 181 188 188 195 192 197 195 193 197 190 199 198 209 219 221 220 240 360 382 435 271 250 274 286 262 230 226 251 217 165 148 160 127 144 124 144 162 155 113 127 142 118

GFSSW_2pvu_pres_114.txt.gz
Presure
143 192 182 190 191 200 207 213 226 201 192 200 157 165 133 140 150 125 145 139 147 143 150 138 140 132 124 122 135 136 140 125 143 127 123 136 144 126 134 143 139 143 149 149 134
190 187 186 186 181 188 191 192 201 202 214 214 189 191 126 134 142 150 124 145 142 126 153 140 129 126 141 134 141 135 151 125 122 126 126 126 148 134 128 133 140 145 146 149 150
175 169 172 177 176 176 178 190 182 193 199 202 216 231 195 128 133 140 136 149 149 141 132 130 141 128 127 134 141 127 126 154 161 147 146 163 151 113 132 129 146 128 140 142 140
174 169 164 163 164 167 173 174 177 185 184 192 194 204 214 207 153 132 143 135 154 150 135 149 142 129 138 133 129 145 120 145 147 161 129 149 133 142 125 126 132 147 131 150 138
166 165 166 169 168 166 170 172 167 175 174 177 182 192 200 202 199 157 132 143 137 145 142 142 137 140 130 132 128 131 147 139 133 148 127 124 140 126 133 126 134 133 139 139 140
173 177 174 164 167 162 158 156 159 167 171 188 172 179 189 194 203 153 133 130 144 131 136 149 152 130 133 130 138 136 141 129 138 132 129 129 120 138 142 135 132 132 131 141 125
165 177 178 162 164 168 173 165 172 156 162 156 166 181 192 184 187 197 199 129 125 148 134 134 159 133 140 130 134 140 136 139 129 128 125 173 123 147 112 141 125 133 136 137 138
170 172 170 170 164 161 154 173 177 163 157 171 164 174 168 189 181 190 200 196 126 128 152 154 133 140 150 136 137 139 132 124 136 131 121 136 134 147 147 144 116 133 134 137 136
163 164 170 171 162 171 172 170 172 159 167 171 161 183 169 160 173 177 182 197 207 126 133 148 155 144 139 142 137 142 138 118 133 148 133 130 168 136 147 134 115 145 127 138 128
164 163 167 170 164 158 167 173 144 165 152 166 183 160 178 178 182 164 180 185 188 202 126 139 150 137 149 150 142 143 137 135 138 126 134 136 120 156 158 131 120 137 141 116 137
169 169 163 166 166 164 172 176 151 168 169 171 178 189 172 186 180 186 151 183 172 181 197 149 167 152 163 165 138 155 144 137 137 145 142 127 172 147 145 143 151 143 134 139 135
175 185 175 161 167 172 170 174 172 176 185 180 185 192 191 165 162 168 159 173 159 178 169 181 139 132 147 139 156 155 152 139 140 141 146 151 150 128 158 151 149 158 145 140 121
183 186 191 194 197 192 184 181 186 180 152 149 152 151 152 166 170 164 171 203 200 190 169 180 190 140 134 150 159 155 153 135 150 141 145 133 170 115 129 145 146 165 153 134 130
188 192 200 207 207 209 150 165 194 150 153 162 165 162 163 171 211 206 210 203 206 207 160 178 229 206 132 137 141 154 163 150 108 134 141 97 161 154 119 172 145 155 158 114 145
187 190 195 277 143 137 145 151 185 152 156 161 166 225 220 208 199 195 194 181 185 197 200 208 268 219 227 143 155 161 146 155 144 151 142 125 143 156 154 121 151 156 147 138 124
132 219 157 169 183 185 188 156 153 155 160 184 203 197 196 189 184 164 179 166 234 220 236 188 180 329 190 229 134 124 161 160 132 140 150 147 151 134 132 147 130 133 142 145 154
253 202 252 171 209 220 217 199 164 158 200 197 191 187 184 174 177 189 212 236 212 206 240 324 313 190 211 196 186 128 145 160 152 129 143 142 143 144 144 139 147 129 154 143 148
243 217 226 226 220 215 202 205 198 196 194 189 181 160 166 185 199 213 227 208 199 225 228 283 304 298 199 211 197 252 163 134 144 154 152 143 121 119 121 120 124 130 133 140 144
203 193 209 209 205 203 201 196 193 185 179 157 173 198 200 216 211 215 219 204 195 220 222 253 293 273 274 211 225 216 174 142 126 148 108 157 148 109 146 141 136 134 136 136 139
194 194 193 192 187 189 183 177 178 170 168 194 226 218 207 207 210 215 188 197 200 219 222 241 292 279 306 226 191 226 197 160 136 128 136 138 157 108 126 152 149 150 145 137 135
177 180 174 182 180 183 173 165 169 177 180 211 189 199 211 213 191 194 196 197 212 215 216 234 275 272 294 304 300 200 217 213 167 138 146 119 131 109 135 145 126 158 149 155 128
155 163 154 154 159 161 170 188 188 192 225 187 183 177 183 179 179 200 196 206 207 211 226 226 243 278 271 295 315 221 210 228 177 163 163 135 158 148 115 133 113 128 143 153 158
186 189 193 199 205 211 217 217 221 220 192 180 180 180 197 181 181 200 211 201 215 209 224 219 235 282 263 289 302 306 74 207 234 126 144 124 125 102 130 133 151 118 150 128 142
178 172 186 175 175 181 174 176 184 182 178 179 197 195 188 186 202 192 208 198 212 214 224 218 243 274 272 153 261 296 258 186 227 184 146 145 148 162 135 154 146 147 153 156 167
191 189 180 178 180 183 192 184 185 180 181 193 193 196 196 203 195 193 209 197 216 211 221 227 290 237 274 271 292 283 293 249 207 231 168 149 142 159 119 140 123 115 153 119 155
189 196 199 189 184 176 180 183 185 184 188 192 197 198 214 204 199 203 211 210 220 212 235 387 384 306 273 263 280 287 283 290 214 226 189 142 152 110 138 162 140 138 158 150 143
184 188 189 195 198 197 194 185 179 185 189 198 195 206 200 208 195 205 200 221 215 234 254 379 428 361 270 262 278 290 272 280 217 220 115 159 133 135 149 128 149 160 130 125 137

GFSSW_2pvu_pres_117.txt.gz
Presure
191 192 195 197 201 199 209 214 223 200 194 195 174 130 140 126 142 127 135 145 144 129 139 147 150 148 135 129 136 139 139 137 121 125 134 127 135 140 140 135 154 150 148 142 166
187 189 182 182 188 187 185 196 203 206 214 212 195 195 145 133 138 149 127 143 139 143 136 140 135 138 133 129 123 138 128 144 130 137 129 147 147 115 142 138 133 143 149 142 154
184 181 178 175 183 183 185 192 191 191 196 204 211 222 194 200 133 129 151 144 151 136 153 129 136 137 143 121 135 143 134 132 123 149 152 132 159 144 139 140 131 141 152 144 147
163 170 164 170 170 181 177 177 182 180 173 193 190 202 213 233 203 131 122 128 132 148 136 156 133 148 154 136 126 149 137 129 138 154 135 137 154 150 142 132 134 133 145 149 141
175 172 169 169 164 165 163 164 178 177 182 190 177 193 190 208 204 187 127 137 129 147 142 139 138 155 149 142 131 138 140 123 163 148 160 133 148 114 130 136 137 147 144 147 155
169 170 173 165 163 166 173 167 163 166 172 177 181 183 183 196 201 165 192 127 141 125 150 133 140 155 137 142 131 140 145 145 123 148 146 127 125 137 109 141 134 133 149 129 132
170 173 174 170 174 177 164 168 164 165 162 162 168 181 179 184 189 196 207 146 126 137 125 151 147 140 146 137 141 141 122 141 135 129 147 143 143 134 161 144 136 144 142 139 126
166 172 179 182 177 173 169 165 159 168 170 173 175 167 169 176 190 189 190 203 215 165 132 138 140 149 140 157 147 138 139 145 159 114 138 130 158 166 151 150 137 140 142 135 122
163 171 172 171 166 179 169 164 178 164 165 171 173 163 163 163 171 187 182 186 199 212 127 130 146 136 150 142 158 141 139 138 146 133 126 126 115 146 132 116 107 134 143 136 135
162 164 172 172 166 169 173 168 178 161 164 168 173 181 174 167 169 163 174 187 184 197 210 170 127 155 132 160 145 152 136 141 133 130 143 138 124 120 123 147 145 138 138 128 135
177 176 175 174 174 174 180 177 173 162 165 158 154 167 171 189 186 168 162 191 178 180 191 208 215 131 152 134 141 153 147 146 137 138 146 153 144 126 179 158 138 154 131 139 139
184 185 185 178 181 186 181 173 174 179 181 173 159 172 189 185 187 202 163 155 166 159 174 183 198 184 129 133 156 129 145 156 149 142 141 109 137 142 126 150 161 149 146 142 142
190 190 187 186 194 203 208 214 215 221 198 176 182 196 204 214 206 210 201 180 180 176 164 164 186 191 171 157 142 154 138 148 148 153 144 136 142 141 149 156 130 148 148 141 137
187 185 184 189 197 199 202 207 207 189 208 216 197 156 150 154 151 151 150 152 159 163 170 159 160 175 183 194 173 147 156 151 154 144 134 147 149 108 140 161 144 165 132 139 139
179 180 186 186 194 187 274 259 138 199 147 152 147 143 159 159 163 157 229 219 217 215 215 167 216 177 173 186 191 168 133 153 140 158 152 153 132 95 140 134 141 148 148 147 113
183 185 189 163 186 207 166 216 187 172 155 145 152 157 164 169 207 205 200 202 197 198 197 202 202 164 222 174 200 186 146 148 162 139 164 114 110 144 142 150 110 150 137 143 152
184 195 228 133 215 224 225 209 200 215 212 199 163 171 185 197 191 189 187 181 180 178 188 175 212 195 238 257 280 185 212 192 136 139 164 157 142 161 133 157 110 134 165 141 131
225 222 236 211 219 222 215 206 212 204 204 203 200 198 195 192 186 168 166 167 178 214 226 221 222 217 233 268 133 305 108 218 157 141 162 156 116 158 156 150 156 135 147 126 118
213 229 211 201 192 193 201 204 202 192 194 194 188 183 181 169 177 223 219 215 215 215 220 202 209 221 230 285 299 294 209 264 209 162 140 138 130 145 123 124 141 150 136 136 147
179 177 184 187 181 185 187 187 186 184 181 177 182 173 169 202 195 191 202 222 188 198 208 200 211 223 226 263 296 282 245 222 283 187 89 139 162 117 145 162 153 132 142 149 140
187 187 174 164 174 169 170 171 167 161 165 162 206 217 196 205 188 185 193 191 180 183 206 213 217 231 221 234 288 290 248 229 210 183 131 152 120 155 135 164 120 149 145 131 145
191 187 185 190 188 186 187 197 202 216 201 210 225 234 218 188 181 188 188 187 191 207 198 220 210 228 218 241 263 287 304 207 218 208 171 162 128 120 153 140 118 148 169 122 138
191 189 186 184 178 183 181 202 181 178 182 177 181 187 184 178 193 195 193 194 202 200 200 224 215 228 223 236 249 291 310 197 201 311 181 103 162 149 146 148 142 138 126 155 141
177 183 192 190 197 192 184 174 174 180 185 196 188 186 187 193 199 198 201 206 204 202 210 213 225 229 225 229 272 294 292 297 183 240 192 154 162 162 127 106 151 134 120 153 135
178 183 185 196 205 185 195 195 188 179 183 181 187 186 188 188 201 196 208 193 213 201 212 213 227 222 185 243 305 287 285 305 202 195 242 182 167 163 163 150 154 156 132 134 141
180 181 181 189 194 188 189 199 194 190 193 201 191 183 189 193 197 201 198 208 205 213 208 229 225 215 252 387 300 279 299 296 206 225 233 190 176 165 164 155 128 114 158 165 150
182 185 196 185 192 186 189 187 185 186 200 194 195 188 189 197 188 209 209 210 210 212 216 226 224 245 316 381 323 274 286 277 285 196 206 233 182 175 165 110 157 165 144 158 160

GFSSW_2pvu_pres_123.txt.gz
Presure
134 207 213 186 219 227 233 225 218 221 195 192 185 169 191 180 151 131 149 147 143 139 143 150 153 150 125 129 137 133 130 131 121 132 149 126 146 128 151 135 156 149 165 214 177
193 196 202 167 202 203 206 210 214 218 234 192 197 191 191 189 172 151 134 143 138 145 138 144 154 149 147 123 145 140 126 130 128 128 140 145 123 160 132 145 158 139 160 153 172
188 180 184 183 190 183 188 195 194 196 208 206 194 201 185 186 189 165 130 133 144 133 142 138 153 141 147 139 130 128 136 126 134 125 132 140 153 160 148 145 141 164 155 152 147
182 181 182 182 184 183 181 188 183 183 201 201 203 210 192 198 183 195 158 125 141 147 130 142 139 148 162 150 135 126 124 131 135 126 143 159 146 136 150 132 150 158 119 149 147
188 173 183 178 172 177 172 172 177 190 190 192 192 195 206 212 202 190 187 163 128 134 139 146 149 146 156 154 131 126 117 139 137 124 129 159 120 121 131 142 161 135 151 153 143
177 182 173 177 173 171 170 171 172 171 170 168 185 191 191 197 204 214 194 215 193 127 133 132 142 146 143 160 140 150 146 140 129 150 120 137 149 138 144 130 129 156 134 149 137
184 169 187 173 172 172 170 169 169 166 165 165 171 173 178 188 194 203 202 213 183 168 127 137 149 140 149 139 140 146 142 147 131 133 127 136 157 148 117 142 146 153 128 116 141
188 183 184 166 168 175 173 171 178 169 170 171 171 166 168 170 174 186 190 198 204 215 227 138 129 137 141 151 139 156 145 144 146 137 123 135 154 150 138 136 155 136 141 125 142
191 191 185 178 181 174 177 169 170 179 173 171 178 172 164 162 168 173 180 186 194 204 209 174 151 123 135 140 146 148 143 144 129 131 119 135 151 145 139 131 124 159 125 149 131
186 194 195 191 184 178 176 174 174 174 189 176 180 176 172 163 166 167 174 168 188 191 199 204 197 188 129 148 143 141 151 123 141 157 124 130 129 150 131 132 123 140 151 153 125
194 189 188 197 194 188 188 175 169 169 174 171 175 175 179 179 173 165 178 172 179 163 177 198 202 212 216 135 132 150 141 147 143 152 144 144 126 133 127 129 122 108 139 150 159
196 200 194 193 193 186 190 186 188 187 181 180 167 176 173 175 172 169 156 165 170 177 180 174 196 195 205 219 138 136 154 135 145 145 146 144 165 136 122 128 129 134 144 148 150
195 199 194 191 200 189 193 189 193 193 191 191 194 191 178 178 174 178 175 165 168 170 178 183 167 174 197 201 194 158 135 142 146 134 146 149 152 125 139 148 124 131 133 146 151
195 188 183 184 183 185 189 185 197 182 188 190 196 200 200 206 174 176 179 168 168 170 171 177 185 167 172 180 201 199 168 152 132 148 135 148 150 154 158 108 124 117 133 160 123
186 186 183 186 189 195 195 186 197 197 238 252 272 264 267 210 217 214 176 173 179 168 174 185 178 190 171 173 195 195 204 204 139 137 148 148 146 158 126 119 117 134 131 111 167
196 195 192 192 190 194 197 207 229 234 200 233 269 206 177 151 209 211 211 210 210 206 208 193 205 208 205 168 164 174 192 202 206 156 139 151 140 159 128 127 147 131 122 135 149
183 191 192 192 196 216 212 213 240 227 217 186 186 214 167 145 143 175 143 194 145 147 147 150 156 159 164 182 195 181 186 183 200 212 172 151 152 156 119 133 146 149 152 135 130
167 173 175 180 196 191 184 180 240 215 215 210 213 213 206 208 205 149 146 148 147 150 156 160 163 160 159 154 155 160 167 183 175 194 209 176 164 146 153 133 152 159 150 134 149
174 171 168 169 180 192 197 187 180 203 200 203 206 206 206 200 201 199 200 201 200 196 168 167 164 197 201 203 200 209 173 164 164 177 188 203 185 152 139 128 164 115 139 126 136
179 176 175 170 182 172 196 195 194 178 175 184 192 189 188 187 187 191 193 196 196 194 189 187 185 182 203 226 217 215 251 211 206 206 135 183 121 180 168 133 138 155 137 127 160
174 185 180 176 168 173 171 184 196 191 191 179 166 170 173 176 179 191 220 233 226 218 170 171 179 188 194 196 202 207 213 224 229 224 234 176 181 142 163 156 149 154 132 150 134
186 178 175 175 177 177 169 169 171 194 197 190 190 194 193 195 163 191 184 185 200 220 217 209 201 196 206 215 201 195 194 219 219 243 234 278 270 169 201 179 131 152 148 139 155
202 185 187 169 178 173 179 174 170 181 176 195 190 187 183 184 188 179 187 190 187 188 189 188 188 188 210 207 211 219 216 215 208 243 233 247 249 290 180 219 176 159 142 150 127
203 205 188 171 186 181 171 180 168 171 173 179 193 190 189 195 187 178 182 183 181 187 190 192 191 197 208 219 220 198 212 216 213 225 257 242 194 185 242 209 143 157 149 167 134
217 211 209 201 178 188 180 177 180 169 171 175 178 193 214 190 202 202 195 190 198 203 201 189 194 203 201 228 220 213 206 216 216 267 256 237 237 323 265 160 174 178 157 149 155
246 229 220 210 206 198 188 183 180 184 180 175 179 179 193 189 190 196 196 190 210 199 191 193 199 216 220 217 226 218 216 210 210 224 241 231 244 256 154 258 130 114 180 122 127
248 262 245 241 237 205 190 176 177 185 183 184 177 186 187 182 190 189 194 201 199 196 205 200 205 221 215 230 234 219 213 223 229 237 239 223 249 142 327 222 112 190 142 162 175

GFSSW_2pvu_pres_129.txt.gz
Presure
125 122 126 124 207 197 184 190 195 222 170 166 172 172 173 168 161 152 165 152 138 139 145 138 154 140 133 132 131 125 142 134 140 124 112 131 125 144 131 154 152 139 145 178 229
129 143 170 205 207 213 216 224 226 225 228 208 183 212 200 177 171 168 162 171 138 141 143 138 141 155 130 126 124 131 134 131 134 151 123 133 132 158 131 137 141 141 143 156 202
197 197 198 198 196 195 210 212 212 213 213 215 215 236 234 180 172 167 164 166 169 135 139 144 138 142 152 118 131 140 135 124 137 127 120 114 140 148 141 127 135 145 137 161 141
193 195 183 190 192 194 190 191 184 182 189 197 198 208 213 207 206 191 180 179 166 167 141 141 145 131 142 158 146 120 134 141 126 135 131 121 133 145 134 140 125 134 132 128 142
177 189 190 189 186 192 181 184 187 187 185 188 186 187 200 206 214 205 196 197 194 181 169 138 138 146 147 146 156 147 143 127 144 135 134 133 138 125 143 149 129 120 137 127 133
192 190 181 182 180 187 184 166 187 179 181 178 180 189 190 188 197 204 208 191 203 192 198 145 138 139 147 147 152 149 147 137 140 124 139 132 122 145 149 160 131 157 136 128 127
183 183 192 192 175 175 182 183 173 180 176 178 176 180 178 176 183 190 196 204 185 192 186 212 146 143 138 150 135 145 156 143 147 130 136 131 132 136 159 131 155 125 148 133 128
187 187 191 189 188 186 186 174 184 183 169 175 176 173 177 174 174 180 181 189 201 203 211 192 192 145 146 144 155 132 140 142 157 153 145 136 146 140 113 149 153 134 130 146 130
192 185 185 184 194 193 184 188 191 178 181 180 178 174 171 180 179 173 181 176 182 193 201 213 195 190 141 145 138 148 138 144 117 125 150 158 132 126 140 119 141 137 140 143 132
191 197 193 187 198 194 194 191 188 192 195 189 185 182 179 179 177 183 179 182 177 177 183 192 205 207 184 166 139 132 146 136 137 141 144 134 136 121 124 143 120 137 136 137 143
202 204 194 191 194 200 187 193 200 191 199 208 197 180 179 168 169 177 184 186 169 167 179 181 188 196 211 181 147 141 127 143 143 142 146 156 151 155 127 146 134 128 128 139 150
185 196 194 208 204 201 196 197 203 204 202 196 191 195 191 185 183 176 179 193 183 175 163 181 181 186 191 210 203 154 137 141 136 153 138 151 150 154 132 156 131 131 129 138 149
178 176 180 191 197 191 197 194 190 185 189 195 192 192 188 192 191 191 187 174 180 179 182 183 178 176 187 189 201 214 152 155 148 132 144 152 150 127 139 152 139 122 134 130 145
178 179 176 175 180 189 201 193 196 186 185 193 185 187 191 194 200 204 199 188 181 184 181 175 177 184 185 179 179 198 211 149 167 138 153 155 132 142 150 154 130 143 119 120 143
170 173 174 178 177 173 184 191 201 200 200 202 243 228 247 249 198 189 198 201 201 177 180 187 170 184 178 172 170 179 185 198 209 137 156 135 142 135 155 145 135 127 155 137 130
163 175 172 182 177 179 174 175 187 197 197 192 203 211 236 233 234 252 260 197 201 207 198 185 183 177 178 175 184 169 180 188 195 216 164 140 154 154 156 117 143 142 152 131 143
183 179 188 173 183 183 177 174 172 181 185 201 190 194 228 219 247 235 255 266 291 205 201 205 199 181 175 175 179 186 181 176 183 188 210 207 160 149 134 141 142 155 138 130 130
176 166 178 190 189 182 185 172 177 174 176 183 200 189 220 217 215 231 205 228 172 254 261 205 207 209 182 183 181 177 183 180 194 175 187 201 172 184 149 147 142 150 147 141 162
228 214 199 233 171 198 189 179 178 182 170 176 184 208 182 214 209 211 218 203 178 157 148 162 205 209 214 216 220 187 183 187 210 196 178 192 194 167 181 159 156 142 129 139 156
223 233 225 243 225 193 187 184 183 182 178 176 180 185 202 185 209 206 204 202 204 177 181 185 185 172 151 200 151 192 195 215 224 212 215 174 175 194 212 178 179 143 133 145 135
248 225 251 309 288 228 200 183 179 188 179 182 176 178 191 197 178 197 211 205 202 200 200 201 201 202 200 161 157 159 158 162 162 165 170 186 170 164 140 204 213 142 145 137 150
260 284 313 292 271 261 214 197 191 192 182 180 178 174 177 189 191 190 176 180 188 191 189 192 193 192 197 202 208 211 203 166 165 167 164 170 165 170 171 180 195 222 176 132 142
280 318 314 291 248 210 256 219 195 194 187 180 185 186 175 176 178 201 194 187 190 196 195 196 223 206 201 203 207 237 249 208 198 201 194 187 183 212 164 162 183 184 158 137 159
285 313 296 273 286 291 286 209 211 191 188 181 180 186 185 171 177 183 177 186 196 199 193 197 196 196 196 197 199 194 200 210 214 216 218 217 196 205 224 207 159 149 186 216 180
314 301 282 280 274 278 268 260 215 203 188 179 188 175 185 181 173 171 175 176 181 185 198 201 199 199 187 187 180 187 188 192 200 203 203 207 209 223 235 179 223 153 166 167 216
311 290 279 241 267 265 261 247 250 218 197 184 184 186 188 187 179 170 170 169 175 179 181 191 193 196 201 210 206 203 207 218 211 207 209 207 225 233 222 244 246 217 222 162 202
298 276 268 261 251 249 265 239 252 245 204 184 186 187 194 191 184 180 176 172 169 174 181 188 192 188 194 194 202 206 204 206 206 212 210 214 246 239 258 246 242 234 212 242 162

GFSSW_2pvu_pres_132.txt.gz
Presure
216 120 124 124 205 143 211 186 183 171 169 167 165 163 165 162 166 154 159 137 147 140 143 130 148 119 120 128 128 134 113 151 140 123 125 138 133 130 129 132 140 137 131 141 165
121 122 124 163 186 221 233 234 229 216 190 189 201 185 169 165 170 173 150 161 154 138 137 140 134 153 140 125 128 129 116 144 160 152 126 118 143 130 126 147 150 137 132 173 133
119 123 140 202 203 204 205 206 206 211 219 220 226 202 227 185 195 203 174 168 166 165 138 138 140 137 147 139 130 143 140 162 137 129 122 133 129 142 129 131 129 130 131 127 150
126 184 198 197 190 193 197 194 194 195 195 197 203 209 213 219 216 226 175 187 173 169 126 140 143 137 153 144 141 123 132 135 127 129 118 124 134 143 130 136 114 133 138 142 140
198 195 189 189 191 191 191 195 180 190 186 185 189 194 201 202 208 215 205 207 181 169 155 151 131 144 138 148 148 147 128 131 139 138 140 129 139 138 139 132 124 136 129 138 136
184 185 195 193 193 188 177 192 188 179 188 185 188 194 195 188 194 200 208 212 219 193 178 163 155 143 146 142 143 157 142 145 139 135 138 131 137 151 144 132 138 145 136 136 138
183 189 188 190 186 190 191 190 176 188 184 186 180 178 181 183 184 185 190 197 206 208 197 195 174 150 139 134 148 144 153 155 150 138 133 142 141 149 128 141 146 140 136 135 133
198 197 187 184 189 192 194 190 190 190 183 187 182 172 181 176 172 170 179 181 191 202 207 195 188 168 155 140 152 145 145 146 145 152 146 146 139 143 135 143 136 140 138 146 139
192 190 190 192 192 184 187 193 198 189 186 194 175 184 175 172 177 171 169 172 178 188 194 203 208 186 200 137 134 155 133 138 147 148 159 143 150 142 112 143 132 132 147 144 139
201 202 207 208 201 194 191 191 192 194 196 191 192 190 173 167 172 177 183 176 175 176 182 189 199 209 186 189 151 135 153 133 141 144 133 166 162 140 141 158 125 132 134 150 133
178 178 183 190 194 213 204 196 199 199 195 199 196 192 214 201 182 186 182 188 187 178 176 179 187 196 215 187 191 133 129 154 138 147 147 128 142 148 130 144 129 119 120 144 158
181 178 179 178 178 183 191 192 198 200 201 216 202 201 196 200 205 184 181 177 185 190 183 177 178 184 192 205 206 154 147 134 152 142 139 146 169 153 128 141 130 136 116 144 151
173 174 177 182 183 180 177 181 192 191 200 195 192 196 195 202 201 200 195 187 185 187 193 176 175 176 185 188 197 215 171 151 139 143 155 142 138 146 151 156 136 110 133 132 149
158 163 170 173 176 183 186 180 179 183 197 204 197 184 189 193 199 202 202 206 193 185 190 165 169 179 177 183 188 193 209 178 161 147 131 130 149 135 150 159 138 145 130 135 125
169 170 163 182 190 171 177 187 181 180 183 189 206 210 208 224 201 192 200 204 207 196 184 188 176 184 170 176 181 188 188 201 213 159 135 145 139 132 152 152 137 156 124 140 140
148 163 159 153 191 181 186 187 184 186 179 183 188 201 197 202 228 239 244 248 207 203 205 189 188 187 184 177 173 178 182 190 202 211 174 145 141 128 153 134 148 156 138 125 143
169 191 202 205 183 179 219 180 185 179 191 176 182 186 197 194 201 234 235 242 254 246 213 204 195 182 177 184 182 172 177 179 184 192 198 216 158 161 145 149 149 158 150 132 133
159 183 169 150 192 151 167 228 192 182 185 195 178 180 183 198 193 220 227 228 242 275 289 198 198 204 199 184 182 184 171 172 179 180 186 198 212 189 159 150 146 155 157 148 124
162 201 160 167 210 216 256 236 219 222 203 191 181 177 179 186 210 191 218 219 216 236 261 283 256 200 203 206 198 181 177 179 188 171 176 188 195 200 151 158 156 142 143 147 132
195 179 200 210 231 243 268 245 239 223 249 204 194 183 175 178 192 195 208 217 215 138 204 197 184 258 220 204 208 214 193 195 178 191 181 177 182 191 197 178 179 148 141 115 157
204 214 208 229 238 247 244 324 278 241 259 209 192 189 185 184 181 202 199 212 209 206 210 184 181 191 149 168 206 207 209 215 218 199 192 175 191 174 181 191 207 149 163 153 148
209 222 229 220 257 271 332 310 285 254 230 241 198 189 192 179 181 195 194 188 208 206 204 205 205 204 182 186 188 189 153 199 153 231 227 216 226 211 178 185 194 194 159 139 154
212 227 225 215 236 345 311 297 280 270 284 237 208 188 195 190 180 178 197 188 178 189 196 198 196 197 202 202 204 205 206 207 167 155 153 159 188 185 193 178 176 183 198 218 178
214 214 207 222 260 317 309 289 277 267 274 224 216 191 186 191 178 176 178 197 192 196 189 184 185 195 197 196 214 210 202 203 208 230 246 201 151 155 160 171 184 182 172 204 212
218 210 241 219 319 310 288 272 271 250 257 220 223 200 194 200 182 175 177 177 179 187 189 192 200 208 197 206 192 199 197 198 200 202 206 215 222 232 203 156 163 172 174 195 198
241 213 236 284 329 298 276 270 273 276 282 291 223 214 197 185 189 184 180 174 176 179 178 179 183 188 202 202 200 208 206 200 196 188 194 200 204 208 217 217 216 161 162 165 169
233 212 244 291 317 283 272 262 259 265 264 267 269 209 200 193 186 181 184 183 173 171 172 177 176 180 185 194 202 193 201 199 207 223 227 217 216 216 214 130 220 216 221 221 212

GFSSW_2pvu_pres_135.txt.gz
Presure
203 196 200 126 121 122 125 160 171 170 170 168 166 158 150 161 167 160 139 141 150 138 130 137 134 145 121 142 134 157 149 135 133 171 139 139 135 127 139 137 129 134 151 160 146
200 119 118 120 129 192 139 224 202 189 174 172 171 172 167 165 161 162 159 138 145 151 139 136 149 145 143 128 148 130 156 138 126 125 117 126 141 128 146 133 130 142 139 151 175
190 119 118 191 177 196 206 211 214 219 226 229 226 213 235 241 195 205 167 169 169 133 158 138 150 136 150 146 141 114 122 148 145 126 124 124 134 139 147 129 134 125 143 154 142
200 192 125 196 192 192 196 197 200 204 206 209 213 214 220 223 216 180 217 199 205 188 139 152 126 146 140 155 146 145 149 133 132 127 121 131 144 128 127 130 148 128 128 146 150
189 199 200 190 189 195 192 191 192 189 190 193 199 199 200 205 211 214 219 230 223 182 204 152 155 133 147 139 152 148 146 123 125 131 148 126 146 132 130 145 142 133 137 139 143
189 189 185 189 197 196 190 185 188 192 187 180 186 190 186 186 195 201 205 214 213 227 188 170 174 142 138 149 136 153 151 148 138 139 141 144 148 122 138 143 130 137 131 134 145
198 188 192 194 188 187 190 192 194 187 181 188 179 181 181 182 191 188 192 198 203 210 213 205 169 171 128 135 149 138 157 148 150 149 149 143 147 131 132 146 132 148 130 140 131
194 193 191 190 191 186 187 189 190 193 188 189 176 185 183 168 175 181 185 188 192 195 203 210 185 173 169 145 141 146 148 141 153 155 156 141 149 150 127 149 132 137 127 140 136
205 204 208 211 209 204 197 192 187 185 190 195 184 195 187 187 175 173 177 177 183 185 190 199 197 205 191 167 151 140 150 152 148 151 157 156 152 162 134 150 131 132 133 139 140
181 182 185 186 189 189 195 210 200 192 192 193 197 196 189 191 194 180 165 169 172 174 181 187 194 201 211 190 172 171 138 149 169 154 153 147 141 142 128 131 126 132 137 141 137
182 182 183 184 179 179 181 187 192 205 203 202 201 196 194 198 193 198 190 184 169 170 174 180 186 196 203 198 187 179 151 139 152 140 143 153 158 167 138 141 124 146 129 141 154
165 165 173 174 176 178 181 178 181 188 194 188 198 200 199 204 199 196 205 208 186 189 174 179 182 186 188 198 197 191 183 152 134 156 158 138 124 149 127 152 138 121 140 125 146
164 174 140 163 170 172 173 169 175 180 180 189 195 197 198 200 204 206 201 204 212 191 193 193 174 183 186 189 196 194 186 187 154 145 156 158 150 159 151 128 146 126 126 131 140
189 186 164 171 183 159 153 164 177 172 176 182 185 191 200 202 192 196 202 207 200 200 185 188 191 190 180 184 186 192 202 187 181 159 139 149 161 141 141 146 155 133 129 127 136
182 180 147 173 184 162 200 196 199 182 184 179 184 187 190 201 207 195 192 196 202 204 203 186 188 193 177 185 187 186 186 196 205 194 155 146 140 161 160 142 152 160 125 123 141
172 165 175 149 181 192 193 175 175 190 190 181 191 185 181 193 196 200 209 225 216 200 205 197 186 192 188 178 178 183 183 187 199 205 199 160 134 138 143 147 153 159 131 137 154
175 194 188 156 149 173 157 180 157 152 200 247 209 189 185 186 190 199 201 205 240 243 233 202 202 188 190 175 167 169 178 186 190 194 201 198 190 147 149 141 152 149 135 151 132
175 149 181 168 192 156 204 145 208 178 229 253 240 205 181 189 187 191 200 197 227 236 250 252 199 204 189 191 180 178 170 177 184 190 191 197 203 181 157 140 132 133 143 151 129
170 144 181 195 149 195 198 206 211 225 243 237 262 235 192 185 190 181 189 208 211 228 231 270 290 206 198 202 192 182 189 181 174 185 185 188 193 195 136 156 139 159 140 149 125
184 186 180 168 188 193 202 208 212 214 242 254 254 244 234 190 193 184 184 205 189 223 221 229 290 297 196 200 205 190 187 172 174 174 178 176 183 189 194 197 205 132 142 147 158
172 148 190 194 200 201 207 207 208 209 264 287 351 321 231 219 190 188 178 186 198 211 220 214 226 272 291 258 197 199 206 194 181 171 173 172 173 175 186 194 198 204 191 158 150
149 198 187 208 194 218 240 208 233 243 255 337 330 318 300 235 194 188 180 174 200 200 216 216 197 195 194 264 264 202 201 201 203 206 181 171 176 169 171 179 190 198 142 218 143
199 216 204 194 191 234 238 207 226 263 326 319 305 301 294 233 199 187 182 181 189 197 207 210 207 209 188 179 176 148 193 209 207 207 226 219 186 169 176 176 182 190 197 133 190
145 193 206 208 239 218 232 219 266 275 321 302 290 290 290 231 204 189 184 180 182 202 193 203 206 209 206 206 197 200 190 178 151 171 202 216 221 227 221 193 177 174 184 192 163
159 206 214 226 234 226 235 272 272 301 304 290 291 288 280 222 212 195 186 184 180 196 189 185 187 194 197 194 189 194 198 208 225 223 174 230 178 178 249 220 206 218 204 189 191
192 207 216 244 251 227 273 283 270 312 290 275 273 288 276 223 216 197 188 185 179 180 200 189 189 190 198 202 201 202 201 160 205 206 201 202 204 207 152 225 158 160 198 186 219
207 209 249 224 230 252 284 270 324 294 277 266 270 252 262 219 221 200 186 182 186 178 176 180 186 194 190 186 186 193 203 204 203 209 206 164 202 198 201 205 172 160 160 160 169

GFSSW_2pvu_pres_138.txt.gz
Presure
201 198 200 203 207 183 185 124 137 146 160 167 159 157 155 150 144 147 140 132 126 135 128 141 136 147 140 143 134 138 117 170 139 119 123 143 130 136 134 137 139 145 157 156 177
197 208 206 149 142 135 114 120 121 141 176 173 170 169 169 161 149 152 153 157 132 130 124 150 135 133 146 138 134 152 176 124 144 147 125 125 145 131 121 144 128 139 152 145 170
197 199 125 186 123 197 195 194 201 229 228 201 192 180 178 180 180 176 174 164 161 135 139 133 131 145 134 146 145 157 132 128 132 142 124 128 155 137 133 153 134 139 142 145 153
200 194 194 190 186 198 198 201 203 204 205 208 217 219 222 226 217 209 217 218 211 183 158 147 139 131 150 144 144 144 150 116 144 160 131 125 160 137 137 152 154 136 135 135 147
192 199 201 191 193 193 193 187 190 189 193 193 196 201 205 208 214 215 219 225 232 202 175 202 147 159 143 151 128 145 111 148 143 135 133 123 151 139 136 148 139 138 142 136 149
190 185 185 188 191 196 195 189 185 192 192 192 187 184 184 190 189 200 206 211 212 216 228 206 181 188 159 146 137 144 140 153 127 128 134 147 148 138 138 154 130 147 142 138 138
185 186 191 193 193 190 185 185 189 191 186 184 193 187 180 184 190 188 188 196 201 207 211 213 219 180 190 157 146 138 150 142 150 153 152 150 155 137 147 135 150 131 137 144 126
203 200 198 198 196 194 193 191 191 191 191 184 201 186 188 185 184 181 187 189 191 192 199 205 210 203 176 195 155 146 139 151 140 155 152 151 141 139 149 160 138 142 137 142 149
194 193 193 194 193 199 204 212 209 203 195 192 195 198 197 185 188 180 175 179 185 188 189 194 201 206 210 171 178 162 149 140 146 153 144 155 151 133 149 135 124 126 138 145 145
184 183 181 182 182 182 184 188 192 196 205 210 201 197 200 211 192 197 191 177 178 181 187 187 191 202 198 194 168 156 161 150 146 138 152 151 155 142 154 144 141 121 138 140 153
149 162 171 155 178 177 176 181 182 185 182 187 196 204 207 209 197 201 198 198 177 177 177 184 186 194 193 197 204 168 156 162 154 143 145 140 149 158 154 139 128 118 143 128 150
157 171 173 168 149 167 171 168 171 174 172 176 183 184 198 194 205 207 205 208 203 190 174 173 179 183 186 191 194 199 180 166 166 151 144 147 171 153 164 156 125 151 128 130 139
156 163 163 188 177 156 172 179 167 166 164 169 179 173 183 184 200 204 207 212 215 201 210 180 176 173 182 185 191 194 201 192 179 169 157 139 140 153 153 132 140 147 137 124 136
163 165 176 175 146 134 164 170 154 164 194 192 207 208 184 178 183 192 205 201 201 213 214 194 201 187 176 181 187 191 197 207 191 206 176 146 148 148 149 142 133 140 140 117 141
183 176 180 172 178 158 129 179 179 145 181 163 196 195 210 187 179 186 187 207 199 201 205 211 208 196 184 180 181 189 193 197 205 192 198 182 155 161 152 144 132 131 126 136 126
179 159 162 141 163 166 169 173 168 170 145 202 209 152 160 189 226 181 187 183 207 213 206 199 209 207 191 193 187 177 189 189 194 205 189 191 166 150 150 143 160 145 150 138 136
144 167 175 173 180 168 147 190 172 159 187 164 187 143 227 232 239 198 187 186 186 212 204 210 236 208 195 179 190 184 176 183 188 190 196 201 199 189 142 146 148 137 149 160 138
171 154 171 171 144 191 184 189 153 188 188 190 208 208 211 239 224 261 184 186 184 194 207 202 242 257 202 196 181 192 178 180 185 189 185 192 200 189 205 139 143 156 142 163 133
146 126 163 170 159 146 151 188 193 192 199 196 237 204 193 212 255 250 214 182 187 182 203 198 242 241 247 202 191 190 185 182 167 177 185 188 189 197 202 192 159 143 139 155 151
168 166 173 174 175 144 194 196 202 198 198 195 237 204 208 207 255 236 246 178 186 185 181 210 232 234 272 248 206 191 188 181 174 174 168 176 188 189 188 200 196 188 148 144 159
167 171 178 183 196 191 193 195 192 196 196 193 235 209 221 221 228 336 257 187 183 189 186 212 213 226 252 298 227 201 196 182 184 175 177 175 177 180 191 193 194 175 205 183 174
180 179 173 191 196 196 203 192 191 196 238 220 222 218 249 260 341 325 263 203 186 192 186 188 196 227 225 270 297 271 197 199 182 184 176 174 169 174 179 187 193 195 198 171 134
187 179 191 210 203 204 207 196 198 188 244 249 223 250 279 269 328 309 288 223 190 191 184 177 200 222 214 235 266 286 195 194 195 194 184 176 174 175 175 178 184 185 192 199 201
195 191 190 211 211 206 199 199 204 216 258 227 240 283 282 333 308 302 275 234 197 187 189 181 198 212 217 201 192 230 248 212 194 194 194 193 193 183 174 176 178 180 184 185 186
190 202 213 211 202 205 191 205 197 219 251 236 252 295 267 312 294 291 276 237 203 189 189 183 184 210 209 211 199 186 204 203 193 168 202 203 204 206 208 204 175 171 177 177 181
219 217 214 209 211 197 206 208 224 254 248 258 287 277 320 295 287 281 272 231 209 192 192 188 183 203 205 199 203 201 191 179 175 176 185 200 195 190 197 199 200 209 216 228 182
214 208 210 219 215 221 243 318 308 298 270 284 275 285 301 282 284 271 231 224 210 195 190 183 182 197 202 208 203 198 196 195 198 193 205 200 213 174 208 186 208 215 223 235 228

GFSSW_2pvu_pres_141.txt.gz
Presure
201 200 202 210 115 112 112 184 116 126 149 127 146 142 134 148 146 142 136 135 130 133 136 129 131 137 140 141 147 163 184 134 155 129 123 139 133 132 133 141 139 144 148 155 158
204 201 202 200 203 204 206 215 183 139 152 141 136 162 162 154 149 150 146 143 137 140 133 135 132 131 142 139 112 142 136 123 179 141 126 122 132 139 135 126 127 145 147 143 151
197 199 202 197 201 195 120 209 220 233 235 228 183 178 174 167 165 153 154 149 146 145 142 141 129 136 132 127 136 147 155 178 161 123 146 125 144 138 130 128 144 141 147 142 154
203 192 198 198 200 198 197 208 208 210 210 211 212 212 216 221 209 209 204 194 157 149 155 155 141 145 143 133 138 140 161 143 124 130 146 125 124 134 135 148 147 138 134 149 150
189 199 196 193 189 187 194 195 196 199 200 202 205 206 207 207 209 210 211 217 222 225 242 212 181 157 144 142 142 125 158 117 117 129 142 122 123 136 131 157 133 149 147 142 149
190 191 189 190 198 197 195 186 196 198 190 194 194 193 194 194 198 200 201 203 206 212 217 224 222 195 156 148 131 147 146 150 125 142 146 133 124 157 129 141 164 146 144 136 147
187 200 198 194 193 193 193 195 198 198 195 188 185 189 192 190 187 188 188 184 192 197 203 212 212 237 216 197 148 160 148 140 138 155 128 114 149 157 128 146 159 133 137 145 140
189 205 201 209 199 199 200 202 202 198 195 194 196 200 197 192 192 187 186 188 187 189 192 198 204 213 228 192 188 156 158 147 148 150 155 154 159 156 132 133 155 142 140 147 138
200 198 196 195 196 196 197 198 198 196 198 206 211 210 198 196 200 193 191 189 184 187 189 189 190 200 212 212 180 193 162 161 153 145 149 153 153 166 132 136 154 132 134 141 150
187 188 170 171 187 181 189 189 188 186 184 185 190 193 198 205 207 200 207 191 189 178 178 186 187 189 202 200 203 178 189 172 160 159 145 146 150 132 145 142 127 162 128 143 147
164 152 165 164 167 166 177 173 173 174 171 174 177 174 179 184 191 201 209 202 211 190 178 178 183 189 185 193 196 207 174 178 183 167 163 143 158 155 157 165 139 162 120 127 132
172 161 163 163 178 168 189 153 180 172 178 186 181 175 183 180 179 184 188 199 210 204 203 182 176 180 181 185 195 196 196 191 173 181 173 164 151 151 152 162 166 143 151 137 135
163 163 163 166 170 177 158 178 163 173 189 152 193 192 191 198 208 190 181 186 198 206 206 211 191 176 171 179 187 192 201 193 183 175 174 169 171 135 156 158 144 148 129 144 126
188 144 154 161 180 186 180 184 169 135 164 179 148 181 170 160 210 185 211 185 187 195 206 209 219 192 176 169 178 182 196 197 193 189 177 166 168 148 150 147 148 142 141 152 139
168 153 156 138 179 134 159 172 173 185 178 138 185 182 192 186 204 216 233 211 187 189 194 210 203 210 204 177 176 179 176 193 195 188 194 190 173 173 164 152 154 138 140 149 142
173 176 157 171 169 181 170 168 159 161 192 179 145 177 138 196 201 201 161 168 232 189 190 196 210 204 205 209 171 184 184 180 186 195 196 193 194 183 148 151 145 139 137 154 146
176 170 174 170 154 155 174 175 166 167 195 194 192 149 189 200 176 222 187 225 241 245 190 187 203 214 200 203 208 183 182 186 180 188 193 197 192 196 195 163 143 155 144 132 149
172 171 167 168 169 167 168 168 172 141 178 190 191 202 199 198 199 197 201 215 224 237 198 191 192 213 214 207 200 202 179 187 187 188 187 191 198 196 192 197 141 160 136 155 130
171 169 169 171 170 164 162 176 174 150 188 188 197 191 197 200 197 205 230 208 209 231 253 190 193 195 209 207 217 202 197 179 185 196 171 185 193 194 201 189 196 148 146 148 138
168 171 170 176 173 174 178 181 172 185 204 200 202 197 190 188 230 231 233 207 208 263 254 191 193 187 201 205 237 228 203 148 181 196 185 182 188 190 190 195 201 191 201 155 156
171 168 164 141 167 178 183 152 181 181 205 168 203 204 195 111 246 219 217 221 211 223 259 210 196 192 192 209 242 238 200 197 179 184 186 186 180 171 183 189 193 196 199 193 134
168 167 165 175 180 189 189 196 200 178 209 208 208 201 186 203 223 244 212 221 279 241 304 241 191 194 186 204 236 234 241 196 194 185 190 183 181 176 173 170 180 192 192 200 205
183 190 191 192 202 197 198 179 201 217 213 204 201 196 200 202 214 211 230 267 250 311 293 245 188 193 186 198 232 250 297 240 203 196 185 190 185 183 177 178 180 181 185 193 149
203 202 205 202 200 204 194 220 215 212 209 210 210 201 202 202 223 250 236 296 277 321 286 243 206 196 191 191 223 233 275 288 205 199 198 185 186 183 187 184 180 180 179 179 189
231 220 199 195 198 224 220 212 208 211 205 216 206 235 202 246 239 253 246 283 309 309 281 243 219 194 193 187 218 209 261 273 274 206 194 195 191 180 179 185 187 184 181 181 181
235 231 229 220 219 217 212 209 215 212 217 217 229 289 273 263 265 264 280 273 301 299 277 241 223 195 189 183 213 209 232 239 249 256 190 191 194 196 195 197 195 196 195 189 185
219 227 224 220 216 217 216 218 213 218 235 343 312 306 296 290 275 277 266 295 287 289 276 235 225 201 188 178 208 208 207 218 225 224 221 201 197 197 202 209 208 210 213 214 217

GFSSW_2pvu_pres_144.txt.gz
Presure
210 210 212 207 198 186 111 111 175 162 133 118 123 148 123 142 132 130 135 141 140 135 132 134 124 140 132 139 149 120 149 140 163 153 138 127 129 136 138 120 126 148 156 150 158
204 203 205 202 205 213 213 214 203 183 172 162 147 135 140 127 135 137 145 143 142 141 142 140 137 128 134 132 143 128 141 161 123 141 143 127 118 127 132 159 137 139 146 150 152
201 210 220 219 203 202 204 210 208 215 215 212 176 149 162 158 145 154 148 148 150 148 139 143 142 140 146 139 150 140 156 151 131 119 176 126 126 147 135 130 147 138 139 139 137
202 201 200 202 204 201 201 201 201 205 207 221 223 224 225 176 157 162 162 164 160 153 153 150 148 148 142 143 144 135 137 149 135 166 159 146 129 125 129 128 147 147 146 138 138
193 194 202 195 198 200 202 203 202 202 203 206 209 211 212 212 211 213 213 214 217 223 230 173 148 151 154 158 146 148 144 157 167 116 124 135 134 126 146 128 147 139 146 146 151
191 188 189 194 200 199 197 192 193 197 195 191 194 199 200 203 202 203 204 205 209 212 218 214 225 239 197 156 162 155 147 160 153 115 119 132 154 127 134 134 138 155 138 151 140
163 172 200 199 194 192 193 196 195 197 198 197 198 197 197 194 197 193 191 191 196 201 207 204 208 218 214 218 201 162 158 147 157 148 147 135 142 132 134 144 131 160 133 146 135
207 209 208 197 200 203 202 200 200 201 199 198 197 193 190 196 197 191 191 189 189 189 191 192 192 207 210 212 225 187 194 162 153 165 148 134 122 150 157 146 132 166 141 144 130
219 207 203 199 197 196 192 191 190 191 191 191 192 193 195 202 207 196 192 194 186 186 189 189 194 197 200 202 209 222 195 190 171 159 145 150 161 127 148 145 137 149 131 139 144
175 165 170 166 167 173 173 176 172 168 173 172 172 172 174 179 183 188 196 202 195 194 186 183 185 194 192 192 196 203 217 188 197 176 146 159 149 157 155 154 144 160 139 134 141
164 170 170 150 171 169 186 175 161 171 178 175 177 178 179 179 173 177 180 183 191 206 201 190 184 183 180 186 194 197 204 210 182 196 175 152 166 147 149 160 140 135 139 137 120
154 163 155 159 174 164 178 176 172 141 170 168 185 162 169 185 196 191 186 213 180 187 198 201 202 164 158 173 188 193 199 203 205 189 195 173 166 134 159 148 133 160 132 146 138
173 163 180 171 154 155 188 185 176 170 164 168 163 164 164 182 189 190 178 180 190 205 185 193 205 198 190 180 176 187 192 198 198 208 184 186 181 170 167 135 164 163 145 147 138
173 167 178 138 155 170 169 180 163 173 169 171 169 180 193 176 195 179 192 184 200 221 209 187 192 201 199 199 182 182 184 189 194 197 198 189 176 190 166 168 157 155 168 140 161
172 175 178 157 181 164 174 177 157 176 177 159 165 175 144 140 196 193 203 197 206 211 231 213 185 195 200 209 200 189 181 175 185 192 196 196 199 176 142 156 173 157 166 148 155
175 179 172 173 174 170 172 166 139 157 171 169 176 163 171 181 146 191 167 201 207 207 223 227 220 189 198 200 207 205 180 181 175 179 187 196 196 198 185 175 167 174 156 146 158
182 177 177 177 172 171 164 167 160 171 165 167 140 159 189 185 186 142 196 201 202 202 155 166 171 239 192 203 198 206 201 193 175 180 174 178 195 194 189 193 150 138 170 143 139
177 176 175 166 170 168 166 165 170 171 170 173 176 183 172 185 197 193 195 190 204 198 217 157 220 240 190 195 204 199 204 202 207 185 180 177 178 194 198 197 200 139 169 162 147
169 164 166 168 164 167 171 172 168 171 168 170 172 185 185 188 201 194 198 191 187 197 236 239 214 226 256 189 199 206 198 202 176 208 188 183 183 179 194 199 198 188 195 155 177
168 168 169 169 170 170 173 174 164 172 176 168 185 192 191 195 195 197 198 203 194 198 238 228 230 219 247 190 193 201 144 202 202 210 146 185 186 184 183 196 202 198 158 200 184
171 170 171 171 172 174 173 177 179 186 189 188 188 201 195 122 193 201 118 197 191 202 246 214 223 217 242 241 192 196 207 207 198 204 206 182 191 189 186 183 191 199 200 191 188
174 170 173 178 181 186 187 186 192 190 195 201 203 160 189 217 212 202 200 198 191 190 219 223 220 238 234 258 191 193 201 205 231 204 206 195 184 187 187 180 186 193 199 202 201
215 211 205 203 198 197 200 199 200 202 200 196 198 216 219 212 209 205 198 199 203 195 199 246 226 292 229 256 196 194 197 203 236 247 202 200 193 182 193 188 181 177 182 190 197
201 189 190 198 192 196 233 197 232 232 226 228 224 219 216 208 210 204 213 207 202 203 225 252 242 298 306 255 209 191 193 201 233 233 222 201 200 194 179 186 176 176 177 178 186
199 204 215 197 193 213 233 228 223 228 223 220 219 211 213 208 216 206 212 210 217 210 253 257 256 321 288 251 218 192 191 198 231 307 243 199 200 198 189 191 189 183 181 181 184
203 199 207 216 205 220 226 228 220 225 222 221 219 219 222 217 208 211 221 268 281 266 259 260 280 318 284 247 219 189 189 197 230 285 248 243 201 204 197 188 187 190 184 188 188
221 221 190 225 237 195 244 238 229 228 220 230 223 225 204 212 221 328 304 290 277 266 263 265 272 302 277 241 217 189 193 195 226 274 270 255 227 197 201 201 196 186 184 185 186

GFSSW_2pvu_pres_147.txt.gz
Presure
182 196 192 199 182 177 193 128 142 161 130 125 136 153 119 132 136 130 141 141 140 144 144 137 121 130 128 135 120 155 133 142 148 151 145 128 128 149 132 144 146 133 146 139 156
214 213 209 209 214 218 215 180 180 158 173 156 155 140 131 146 148 144 143 135 138 138 139 142 142 142 148 149 134 148 133 137 133 141 140 124 129 127 141 129 144 141 132 137 153
199 204 204 197 200 204 203 213 218 217 209 193 179 159 158 156 145 132 131 149 155 147 143 143 142 139 139 142 141 142 138 147 151 128 145 152 135 121 154 128 142 140 144 146 137
207 206 205 204 219 219 205 205 203 203 205 207 212 212 230 233 165 154 162 159 156 154 130 137 149 153 150 149 145 146 140 139 176 134 137 141 145 124 128 133 130 158 144 139 150
198 194 195 201 197 203 204 203 201 201 198 196 196 209 210 212 214 217 221 222 190 186 182 183 165 164 147 152 148 151 147 128 161 187 137 153 179 127 123 143 126 140 136 147 130
200 194 189 191 202 201 196 195 193 191 193 197 196 196 199 204 204 205 208 212 214 214 211 213 212 225 235 168 154 143 146 152 142 145 166 141 131 142 126 131 127 131 152 137 129
164 160 195 197 200 182 183 189 193 194 197 198 197 192 197 196 195 197 193 197 200 201 195 200 208 213 219 225 239 222 160 155 144 152 151 149 122 154 141 123 158 123 158 140 147
187 212 209 196 201 200 197 195 196 198 201 199 200 197 194 193 191 190 192 195 193 195 189 191 194 191 196 209 215 230 193 222 163 151 142 172 132 135 124 125 136 143 132 145 142
213 211 204 200 194 191 189 188 188 187 186 186 187 187 186 187 189 194 200 200 197 196 197 187 189 190 190 189 198 212 217 198 214 185 161 153 156 129 128 149 144 134 131 143 138
187 175 172 171 171 171 171 173 176 172 171 171 172 169 169 169 171 178 180 183 189 197 204 199 198 189 185 187 191 201 213 206 212 185 188 168 164 138 133 136 146 143 149 143 137
162 166 158 157 175 162 170 179 170 189 179 170 149 175 178 184 189 178 175 170 192 179 185 194 207 204 190 184 183 189 193 207 207 216 187 194 169 168 133 144 151 159 143 158 140
168 171 173 169 156 171 167 177 177 178 174 178 175 142 161 178 174 176 175 185 191 188 197 187 189 202 205 192 185 181 187 194 205 209 207 193 201 177 167 161 145 161 144 135 140
172 164 170 169 173 181 165 171 175 185 165 165 167 177 157 174 170 167 166 196 189 189 204 183 213 184 197 106 199 190 185 184 190 200 207 202 185 198 174 158 150 149 153 148 136
161 158 167 180 188 169 149 138 165 166 178 170 172 174 172 169 172 173 183 187 195 183 191 177 201 220 186 195 206 201 192 182 182 188 197 205 200 165 196 177 161 141 149 152 153
182 179 137 170 175 184 172 176 154 177 171 178 171 173 157 165 171 168 172 190 193 192 205 204 201 207 226 189 195 208 202 192 185 184 188 197 202 200 181 187 148 151 145 150 154
180 177 183 171 179 172 176 178 179 176 165 163 173 173 164 168 167 164 182 175 191 196 199 198 205 199 213 240 192 199 203 204 197 186 180 187 195 203 200 177 172 180 148 142 150
194 190 184 183 181 177 179 168 171 173 169 169 169 172 168 155 168 173 165 185 190 187 198 201 205 200 213 219 235 189 200 204 205 198 184 176 182 192 200 199 185 170 167 142 140
183 183 178 174 177 175 168 168 168 166 168 173 170 169 169 167 168 175 180 188 193 182 203 199 196 192 233 170 174 227 194 199 203 205 207 175 180 179 187 199 200 189 149 143 160
167 168 171 170 168 164 166 167 171 170 169 169 174 167 167 172 170 182 181 189 188 192 201 199 205 192 241 240 161 172 193 200 207 204 212 200 187 178 180 183 198 195 195 181 172
172 172 172 171 173 173 173 175 171 173 175 176 178 180 183 183 184 184 192 194 202 184 203 199 201 196 214 241 233 218 235 191 200 206 203 199 194 198 182 186 186 197 202 196 149
174 171 185 200 193 180 180 175 174 176 179 183 183 186 189 197 196 192 196 197 203 190 203 201 201 196 203 231 212 208 225 232 196 207 181 200 180 220 194 189 189 184 191 203 144
182 184 185 201 191 195 203 209 210 210 196 199 201 196 196 196 195 198 192 190 187 209 203 203 200 191 193 207 216 213 219 260 190 202 209 151 203 215 205 190 192 181 185 195 201
185 186 189 196 205 190 211 244 197 190 189 195 195 194 196 195 231 224 218 203 216 208 208 204 197 194 196 202 219 221 232 262 189 197 208 205 202 206 206 197 190 191 181 184 188
189 192 194 216 204 195 209 199 200 209 211 204 193 205 230 228 227 220 216 218 214 210 207 203 204 201 196 196 220 222 289 263 213 193 202 206 209 228 205 196 185 193 182 179 182
197 195 209 201 200 198 199 212 208 203 203 217 210 211 228 227 224 221 215 219 209 207 206 212 203 213 197 204 227 233 310 261 228 194 199 205 213 249 205 208 188 187 195 180 179
209 197 194 199 196 187 209 198 229 198 198 191 200 202 225 223 223 223 208 217 214 223 221 207 206 216 217 209 256 248 294 255 228 195 193 204 205 241 255 206 196 191 189 191 180
203 218 217 212 216 215 234 266 253 203 227 186 243 230 241 227 222 221 222 222 221 228 205 216 218 273 275 262 253 267 289 253 227 197 192 200 210 262 252 206 204 200 185 190 183